<?xml version="1.0" encoding="UTF-8"?>
<gpx creator="Garmin Connect" version="1.1"
  xsi:schemaLocation="http://www.topografix.com/GPX/1/1 http://www.topografix.com/GPX/11.xsd"
  xmlns:ns3="http://www.garmin.com/xmlschemas/TrackPointExtension/v1"
  xmlns="http://www.topografix.com/GPX/1/1"
  xmlns:xsi="http://www.w3.org/2001/XMLSchema-instance" xmlns:ns2="http://www.garmin.com/xmlschemas/GpxExtensions/v3">
  <metadata>
    <link href="connect.garmin.com">
      <text>Garmin Connect</text>
    </link>
    <time>2026-05-07T09:53:59.000Z</time>
  </metadata>
  <trk>
    <name>Corseul Gehen</name>
    <type>walking</type>
    <trkseg>
      <trkpt lat="48.47100066952407360076904296875" lon="-2.14648746885359287261962890625">
        <ele>98</ele>
        <time>2026-05-07T09:53:59.000Z</time>
        <extensions>
          <ns3:TrackPointExtension>
            <ns3:atemp>17.0</ns3:atemp>
            <ns3:hr>92</ns3:hr>
          </ns3:TrackPointExtension>
        </extensions>
      </trkpt>
      <trkpt lat="48.47100536338984966278076171875" lon="-2.14649132452905178070068359375">
        <ele>98</ele>
        <time>2026-05-07T09:54:00.000Z</time>
        <extensions>
          <ns3:TrackPointExtension>
            <ns3:atemp>17.0</ns3:atemp>
            <ns3:hr>92</ns3:hr>
          </ns3:TrackPointExtension>
        </extensions>
      </trkpt>
      <trkpt lat="48.47106621600687503814697265625" lon="-2.146442793309688568115234375">
        <ele>98.40000152587890625</ele>
        <time>2026-05-07T09:54:06.000Z</time>
        <extensions>
          <ns3:TrackPointExtension>
            <ns3:atemp>17.0</ns3:atemp>
            <ns3:hr>93</ns3:hr>
          </ns3:TrackPointExtension>
        </extensions>
      </trkpt>
      <trkpt lat="48.47110410220921039581298828125" lon="-2.14635302312672138214111328125">
        <ele>98.40000152587890625</ele>
        <time>2026-05-07T09:54:12.000Z</time>
        <extensions>
          <ns3:TrackPointExtension>
            <ns3:atemp>17.0</ns3:atemp>
            <ns3:hr>92</ns3:hr>
          </ns3:TrackPointExtension>
        </extensions>
      </trkpt>
      <trkpt lat="48.47111868672072887420654296875" lon="-2.14634053409099578857421875">
        <ele>98.40000152587890625</ele>
        <time>2026-05-07T09:54:14.000Z</time>
        <extensions>
          <ns3:TrackPointExtension>
            <ns3:atemp>17.0</ns3:atemp>
            <ns3:hr>92</ns3:hr>
          </ns3:TrackPointExtension>
        </extensions>
      </trkpt>
      <trkpt lat="48.4711558185517787933349609375" lon="-2.14637900702655315399169921875">
        <ele>98.40000152587890625</ele>
        <time>2026-05-07T09:54:17.000Z</time>
        <extensions>
          <ns3:TrackPointExtension>
            <ns3:atemp>17.0</ns3:atemp>
            <ns3:hr>93</ns3:hr>
          </ns3:TrackPointExtension>
        </extensions>
      </trkpt>
      <trkpt lat="48.47117870114743709564208984375" lon="-2.146379761397838592529296875">
        <ele>98.59999847412109375</ele>
        <time>2026-05-07T09:54:22.000Z</time>
        <extensions>
          <ns3:TrackPointExtension>
            <ns3:atemp>16.0</ns3:atemp>
            <ns3:hr>94</ns3:hr>
          </ns3:TrackPointExtension>
        </extensions>
      </trkpt>
      <trkpt lat="48.47118339501321315765380859375" lon="-2.1462585590779781341552734375">
        <ele>98.59999847412109375</ele>
        <time>2026-05-07T09:54:28.000Z</time>
        <extensions>
          <ns3:TrackPointExtension>
            <ns3:atemp>16.0</ns3:atemp>
            <ns3:hr>94</ns3:hr>
          </ns3:TrackPointExtension>
        </extensions>
      </trkpt>
      <trkpt lat="48.47118942998349666595458984375" lon="-2.14615537784993648529052734375">
        <ele>98.59999847412109375</ele>
        <time>2026-05-07T09:54:34.000Z</time>
        <extensions>
          <ns3:TrackPointExtension>
            <ns3:atemp>16.0</ns3:atemp>
            <ns3:hr>93</ns3:hr>
          </ns3:TrackPointExtension>
        </extensions>
      </trkpt>
      <trkpt lat="48.47118725068867206573486328125" lon="-2.1461428888142108917236328125">
        <ele>98.40000152587890625</ele>
        <time>2026-05-07T09:54:40.000Z</time>
        <extensions>
          <ns3:TrackPointExtension>
            <ns3:atemp>16.0</ns3:atemp>
            <ns3:hr>93</ns3:hr>
          </ns3:TrackPointExtension>
        </extensions>
      </trkpt>
      <trkpt lat="48.47119278274476528167724609375" lon="-2.14614582248032093048095703125">
        <ele>98.59999847412109375</ele>
        <time>2026-05-07T09:54:48.000Z</time>
        <extensions>
          <ns3:TrackPointExtension>
            <ns3:atemp>16.0</ns3:atemp>
            <ns3:hr>94</ns3:hr>
          </ns3:TrackPointExtension>
        </extensions>
      </trkpt>
      <trkpt lat="48.471193872392177581787109375" lon="-2.14616082608699798583984375">
        <ele>98.40000152587890625</ele>
        <time>2026-05-07T09:54:53.000Z</time>
        <extensions>
          <ns3:TrackPointExtension>
            <ns3:atemp>16.0</ns3:atemp>
            <ns3:hr>91</ns3:hr>
          </ns3:TrackPointExtension>
        </extensions>
      </trkpt>
      <trkpt lat="48.4711977280676364898681640625" lon="-2.14616409502923488616943359375">
        <ele>98.8000030517578125</ele>
        <time>2026-05-07T09:54:55.000Z</time>
        <extensions>
          <ns3:TrackPointExtension>
            <ns3:atemp>16.0</ns3:atemp>
            <ns3:hr>90</ns3:hr>
          </ns3:TrackPointExtension>
        </extensions>
      </trkpt>
      <trkpt lat="48.471202589571475982666015625" lon="-2.14618169702589511871337890625">
        <ele>98.8000030517578125</ele>
        <time>2026-05-07T09:55:00.000Z</time>
        <extensions>
          <ns3:TrackPointExtension>
            <ns3:atemp>16.0</ns3:atemp>
            <ns3:hr>89</ns3:hr>
          </ns3:TrackPointExtension>
        </extensions>
      </trkpt>
      <trkpt lat="48.47119295038282871246337890625" lon="-2.1461697109043598175048828125">
        <ele>98.8000030517578125</ele>
        <time>2026-05-07T09:55:04.000Z</time>
        <extensions>
          <ns3:TrackPointExtension>
            <ns3:atemp>16.0</ns3:atemp>
            <ns3:hr>86</ns3:hr>
          </ns3:TrackPointExtension>
        </extensions>
      </trkpt>
      <trkpt lat="48.4711901843547821044921875" lon="-2.14616878889501094818115234375">
        <ele>99</ele>
        <time>2026-05-07T09:55:06.000Z</time>
        <extensions>
          <ns3:TrackPointExtension>
            <ns3:atemp>16.0</ns3:atemp>
            <ns3:hr>85</ns3:hr>
          </ns3:TrackPointExtension>
        </extensions>
      </trkpt>
      <trkpt lat="48.47117451019585132598876953125" lon="-2.14615420438349246978759765625">
        <ele>99</ele>
        <time>2026-05-07T09:55:14.000Z</time>
        <extensions>
          <ns3:TrackPointExtension>
            <ns3:atemp>16.0</ns3:atemp>
            <ns3:hr>85</ns3:hr>
          </ns3:TrackPointExtension>
        </extensions>
      </trkpt>
      <trkpt lat="48.4711722470819950103759765625" lon="-2.1461485885083675384521484375">
        <ele>99</ele>
        <time>2026-05-07T09:55:20.000Z</time>
        <extensions>
          <ns3:TrackPointExtension>
            <ns3:atemp>16.0</ns3:atemp>
            <ns3:hr>83</ns3:hr>
          </ns3:TrackPointExtension>
        </extensions>
      </trkpt>
      <trkpt lat="48.47117316909134387969970703125" lon="-2.14615303091704845428466796875">
        <ele>99</ele>
        <time>2026-05-07T09:55:22.000Z</time>
        <extensions>
          <ns3:TrackPointExtension>
            <ns3:atemp>15.0</ns3:atemp>
            <ns3:hr>83</ns3:hr>
          </ns3:TrackPointExtension>
        </extensions>
      </trkpt>
      <trkpt lat="48.471179790794849395751953125" lon="-2.14615680277347564697265625">
        <ele>99.1999969482421875</ele>
        <time>2026-05-07T09:55:26.000Z</time>
        <extensions>
          <ns3:TrackPointExtension>
            <ns3:atemp>15.0</ns3:atemp>
            <ns3:hr>84</ns3:hr>
          </ns3:TrackPointExtension>
        </extensions>
      </trkpt>
      <trkpt lat="48.471177779138088226318359375" lon="-2.14614330790936946868896484375">
        <ele>99</ele>
        <time>2026-05-07T09:55:34.000Z</time>
        <extensions>
          <ns3:TrackPointExtension>
            <ns3:atemp>15.0</ns3:atemp>
            <ns3:hr>85</ns3:hr>
          </ns3:TrackPointExtension>
        </extensions>
      </trkpt>
      <trkpt lat="48.47118574194610118865966796875" lon="-2.14614364318549633026123046875">
        <ele>99.40000152587890625</ele>
        <time>2026-05-07T09:55:41.000Z</time>
        <extensions>
          <ns3:TrackPointExtension>
            <ns3:atemp>15.0</ns3:atemp>
            <ns3:hr>85</ns3:hr>
          </ns3:TrackPointExtension>
        </extensions>
      </trkpt>
      <trkpt lat="48.4711880050599575042724609375" lon="-2.1461395360529422760009765625">
        <ele>99.1999969482421875</ele>
        <time>2026-05-07T09:55:51.000Z</time>
        <extensions>
          <ns3:TrackPointExtension>
            <ns3:atemp>15.0</ns3:atemp>
            <ns3:hr>84</ns3:hr>
          </ns3:TrackPointExtension>
        </extensions>
      </trkpt>
      <trkpt lat="48.47116512246429920196533203125" lon="-2.1461177431046962738037109375">
        <ele>98.8000030517578125</ele>
        <time>2026-05-07T09:56:02.000Z</time>
        <extensions>
          <ns3:TrackPointExtension>
            <ns3:atemp>15.0</ns3:atemp>
            <ns3:hr>83</ns3:hr>
          </ns3:TrackPointExtension>
        </extensions>
      </trkpt>
      <trkpt lat="48.47116537392139434814453125" lon="-2.146112211048603057861328125">
        <ele>99</ele>
        <time>2026-05-07T09:56:06.000Z</time>
        <extensions>
          <ns3:TrackPointExtension>
            <ns3:atemp>15.0</ns3:atemp>
            <ns3:hr>79</ns3:hr>
          </ns3:TrackPointExtension>
        </extensions>
      </trkpt>
      <trkpt lat="48.47116914577782154083251953125" lon="-2.1461120434105396270751953125">
        <ele>99</ele>
        <time>2026-05-07T09:56:08.000Z</time>
        <extensions>
          <ns3:TrackPointExtension>
            <ns3:atemp>15.0</ns3:atemp>
            <ns3:hr>76</ns3:hr>
          </ns3:TrackPointExtension>
        </extensions>
      </trkpt>
      <trkpt lat="48.47117166034877300262451171875" lon="-2.14611480943858623504638671875">
        <ele>99</ele>
        <time>2026-05-07T09:56:10.000Z</time>
        <extensions>
          <ns3:TrackPointExtension>
            <ns3:atemp>15.0</ns3:atemp>
            <ns3:hr>75</ns3:hr>
          </ns3:TrackPointExtension>
        </extensions>
      </trkpt>
      <trkpt lat="48.47117342054843902587890625" lon="-2.14605814777314662933349609375">
        <ele>99.40000152587890625</ele>
        <time>2026-05-07T09:56:16.000Z</time>
        <extensions>
          <ns3:TrackPointExtension>
            <ns3:atemp>15.0</ns3:atemp>
            <ns3:hr>75</ns3:hr>
          </ns3:TrackPointExtension>
        </extensions>
      </trkpt>
      <trkpt lat="48.47116403281688690185546875" lon="-2.1459643542766571044921875">
        <ele>99.40000152587890625</ele>
        <time>2026-05-07T09:56:21.000Z</time>
        <extensions>
          <ns3:TrackPointExtension>
            <ns3:atemp>15.0</ns3:atemp>
            <ns3:hr>75</ns3:hr>
          </ns3:TrackPointExtension>
        </extensions>
      </trkpt>
      <trkpt lat="48.47116394899785518646240234375" lon="-2.1459470875561237335205078125">
        <ele>99.40000152587890625</ele>
        <time>2026-05-07T09:56:22.000Z</time>
        <extensions>
          <ns3:TrackPointExtension>
            <ns3:atemp>14.0</ns3:atemp>
            <ns3:hr>75</ns3:hr>
          </ns3:TrackPointExtension>
        </extensions>
      </trkpt>
      <trkpt lat="48.47114861011505126953125" lon="-2.14584700763225555419921875">
        <ele>99.40000152587890625</ele>
        <time>2026-05-07T09:56:28.000Z</time>
        <extensions>
          <ns3:TrackPointExtension>
            <ns3:atemp>14.0</ns3:atemp>
            <ns3:hr>76</ns3:hr>
          </ns3:TrackPointExtension>
        </extensions>
      </trkpt>
      <trkpt lat="48.47115221433341503143310546875" lon="-2.14577257633209228515625">
        <ele>99</ele>
        <time>2026-05-07T09:56:34.000Z</time>
        <extensions>
          <ns3:TrackPointExtension>
            <ns3:atemp>14.0</ns3:atemp>
            <ns3:hr>76</ns3:hr>
          </ns3:TrackPointExtension>
        </extensions>
      </trkpt>
      <trkpt lat="48.47114969976246356964111328125" lon="-2.14577785693109035491943359375">
        <ele>99</ele>
        <time>2026-05-07T09:56:44.000Z</time>
        <extensions>
          <ns3:TrackPointExtension>
            <ns3:atemp>14.0</ns3:atemp>
            <ns3:hr>80</ns3:hr>
          </ns3:TrackPointExtension>
        </extensions>
      </trkpt>
      <trkpt lat="48.47114969976246356964111328125" lon="-2.14577785693109035491943359375">
        <ele>99</ele>
        <time>2026-05-07T09:56:46.000Z</time>
        <extensions>
          <ns3:TrackPointExtension>
            <ns3:atemp>14.0</ns3:atemp>
            <ns3:hr>79</ns3:hr>
          </ns3:TrackPointExtension>
        </extensions>
      </trkpt>
      <trkpt lat="48.47114969976246356964111328125" lon="-2.14577785693109035491943359375">
        <ele>98.8000030517578125</ele>
        <time>2026-05-07T09:56:50.000Z</time>
        <extensions>
          <ns3:TrackPointExtension>
            <ns3:atemp>14.0</ns3:atemp>
            <ns3:hr>76</ns3:hr>
          </ns3:TrackPointExtension>
        </extensions>
      </trkpt>
      <trkpt lat="48.47114969976246356964111328125" lon="-2.14577785693109035491943359375">
        <ele>98.8000030517578125</ele>
        <time>2026-05-07T09:56:53.000Z</time>
        <extensions>
          <ns3:TrackPointExtension>
            <ns3:atemp>14.0</ns3:atemp>
            <ns3:hr>73</ns3:hr>
          </ns3:TrackPointExtension>
        </extensions>
      </trkpt>
      <trkpt lat="48.47114969976246356964111328125" lon="-2.14577785693109035491943359375">
        <ele>99</ele>
        <time>2026-05-07T09:56:59.000Z</time>
        <extensions>
          <ns3:TrackPointExtension>
            <ns3:atemp>14.0</ns3:atemp>
            <ns3:hr>73</ns3:hr>
          </ns3:TrackPointExtension>
        </extensions>
      </trkpt>
      <trkpt lat="48.47115992568433284759521484375" lon="-2.14574164710938930511474609375">
        <ele>98.8000030517578125</ele>
        <time>2026-05-07T09:57:05.000Z</time>
        <extensions>
          <ns3:TrackPointExtension>
            <ns3:atemp>14.0</ns3:atemp>
            <ns3:hr>76</ns3:hr>
          </ns3:TrackPointExtension>
        </extensions>
      </trkpt>
      <trkpt lat="48.4711638651788234710693359375" lon="-2.14572924189269542694091796875">
        <ele>98.8000030517578125</ele>
        <time>2026-05-07T09:57:07.000Z</time>
        <extensions>
          <ns3:TrackPointExtension>
            <ns3:atemp>14.0</ns3:atemp>
            <ns3:hr>78</ns3:hr>
          </ns3:TrackPointExtension>
        </extensions>
      </trkpt>
      <trkpt lat="48.471186496317386627197265625" lon="-2.14569990523159503936767578125">
        <ele>98.59999847412109375</ele>
        <time>2026-05-07T09:57:16.000Z</time>
        <extensions>
          <ns3:TrackPointExtension>
            <ns3:atemp>14.0</ns3:atemp>
            <ns3:hr>79</ns3:hr>
          </ns3:TrackPointExtension>
        </extensions>
      </trkpt>
      <trkpt lat="48.47119219601154327392578125" lon="-2.14569353498518466949462890625">
        <ele>98.59999847412109375</ele>
        <time>2026-05-07T09:57:24.000Z</time>
        <extensions>
          <ns3:TrackPointExtension>
            <ns3:atemp>14.0</ns3:atemp>
            <ns3:hr>73</ns3:hr>
          </ns3:TrackPointExtension>
        </extensions>
      </trkpt>
      <trkpt lat="48.47119563259184360504150390625" lon="-2.14568096213042736053466796875">
        <ele>98.8000030517578125</ele>
        <time>2026-05-07T09:57:27.000Z</time>
        <extensions>
          <ns3:TrackPointExtension>
            <ns3:atemp>14.0</ns3:atemp>
            <ns3:hr>72</ns3:hr>
          </ns3:TrackPointExtension>
        </extensions>
      </trkpt>
      <trkpt lat="48.471186496317386627197265625" lon="-2.14569990523159503936767578125">
        <ele>98.8000030517578125</ele>
        <time>2026-05-07T09:57:35.000Z</time>
        <extensions>
          <ns3:TrackPointExtension>
            <ns3:atemp>14.0</ns3:atemp>
            <ns3:hr>71</ns3:hr>
          </ns3:TrackPointExtension>
        </extensions>
      </trkpt>
      <trkpt lat="48.471186496317386627197265625" lon="-2.14569990523159503936767578125">
        <ele>98.8000030517578125</ele>
        <time>2026-05-07T09:57:49.000Z</time>
        <extensions>
          <ns3:TrackPointExtension>
            <ns3:atemp>14.0</ns3:atemp>
            <ns3:hr>72</ns3:hr>
          </ns3:TrackPointExtension>
        </extensions>
      </trkpt>
      <trkpt lat="48.471186496317386627197265625" lon="-2.14569990523159503936767578125">
        <ele>99</ele>
        <time>2026-05-07T09:57:56.000Z</time>
        <extensions>
          <ns3:TrackPointExtension>
            <ns3:atemp>14.0</ns3:atemp>
            <ns3:hr>75</ns3:hr>
          </ns3:TrackPointExtension>
        </extensions>
      </trkpt>
      <trkpt lat="48.471186496317386627197265625" lon="-2.14569990523159503936767578125">
        <ele>98.8000030517578125</ele>
        <time>2026-05-07T09:58:02.000Z</time>
        <extensions>
          <ns3:TrackPointExtension>
            <ns3:atemp>14.0</ns3:atemp>
            <ns3:hr>73</ns3:hr>
          </ns3:TrackPointExtension>
        </extensions>
      </trkpt>
      <trkpt lat="48.471186496317386627197265625" lon="-2.14569990523159503936767578125">
        <ele>98.8000030517578125</ele>
        <time>2026-05-07T09:58:13.000Z</time>
        <extensions>
          <ns3:TrackPointExtension>
            <ns3:atemp>14.0</ns3:atemp>
            <ns3:hr>73</ns3:hr>
          </ns3:TrackPointExtension>
        </extensions>
      </trkpt>
      <trkpt lat="48.471186496317386627197265625" lon="-2.14569990523159503936767578125">
        <ele>98.8000030517578125</ele>
        <time>2026-05-07T09:58:17.000Z</time>
        <extensions>
          <ns3:TrackPointExtension>
            <ns3:atemp>14.0</ns3:atemp>
            <ns3:hr>76</ns3:hr>
          </ns3:TrackPointExtension>
        </extensions>
      </trkpt>
      <trkpt lat="48.471186496317386627197265625" lon="-2.14569990523159503936767578125">
        <ele>98.59999847412109375</ele>
        <time>2026-05-07T09:58:19.000Z</time>
        <extensions>
          <ns3:TrackPointExtension>
            <ns3:atemp>14.0</ns3:atemp>
            <ns3:hr>77</ns3:hr>
          </ns3:TrackPointExtension>
        </extensions>
      </trkpt>
      <trkpt lat="48.471186496317386627197265625" lon="-2.14569990523159503936767578125">
        <ele>98.40000152587890625</ele>
        <time>2026-05-07T09:58:23.000Z</time>
        <extensions>
          <ns3:TrackPointExtension>
            <ns3:atemp>14.0</ns3:atemp>
            <ns3:hr>79</ns3:hr>
          </ns3:TrackPointExtension>
        </extensions>
      </trkpt>
      <trkpt lat="48.471186496317386627197265625" lon="-2.14569990523159503936767578125">
        <ele>98.40000152587890625</ele>
        <time>2026-05-07T09:58:30.000Z</time>
        <extensions>
          <ns3:TrackPointExtension>
            <ns3:atemp>14.0</ns3:atemp>
            <ns3:hr>81</ns3:hr>
          </ns3:TrackPointExtension>
        </extensions>
      </trkpt>
      <trkpt lat="48.471186496317386627197265625" lon="-2.14569990523159503936767578125">
        <ele>98.40000152587890625</ele>
        <time>2026-05-07T09:58:45.000Z</time>
        <extensions>
          <ns3:TrackPointExtension>
            <ns3:atemp>14.0</ns3:atemp>
            <ns3:hr>79</ns3:hr>
          </ns3:TrackPointExtension>
        </extensions>
      </trkpt>
      <trkpt lat="48.471186496317386627197265625" lon="-2.14569990523159503936767578125">
        <ele>98.1999969482421875</ele>
        <time>2026-05-07T09:58:56.000Z</time>
        <extensions>
          <ns3:TrackPointExtension>
            <ns3:atemp>14.0</ns3:atemp>
            <ns3:hr>79</ns3:hr>
          </ns3:TrackPointExtension>
        </extensions>
      </trkpt>
      <trkpt lat="48.471186496317386627197265625" lon="-2.14569990523159503936767578125">
        <ele>98.1999969482421875</ele>
        <time>2026-05-07T09:59:08.000Z</time>
        <extensions>
          <ns3:TrackPointExtension>
            <ns3:atemp>14.0</ns3:atemp>
            <ns3:hr>76</ns3:hr>
          </ns3:TrackPointExtension>
        </extensions>
      </trkpt>
      <trkpt lat="48.47118121571838855743408203125" lon="-2.1456892602145671844482421875">
        <ele>98</ele>
        <time>2026-05-07T09:59:13.000Z</time>
        <extensions>
          <ns3:TrackPointExtension>
            <ns3:atemp>14.0</ns3:atemp>
            <ns3:hr>73</ns3:hr>
          </ns3:TrackPointExtension>
        </extensions>
      </trkpt>
      <trkpt lat="48.47123921848833560943603515625" lon="-2.14560066349804401397705078125">
        <ele>98</ele>
        <time>2026-05-07T09:59:19.000Z</time>
        <extensions>
          <ns3:TrackPointExtension>
            <ns3:atemp>14.0</ns3:atemp>
            <ns3:hr>72</ns3:hr>
          </ns3:TrackPointExtension>
        </extensions>
      </trkpt>
      <trkpt lat="48.47129068337380886077880859375" lon="-2.1455330215394496917724609375">
        <ele>98</ele>
        <time>2026-05-07T09:59:25.000Z</time>
        <extensions>
          <ns3:TrackPointExtension>
            <ns3:atemp>14.0</ns3:atemp>
            <ns3:hr>72</ns3:hr>
          </ns3:TrackPointExtension>
        </extensions>
      </trkpt>
      <trkpt lat="48.47128414548933506011962890625" lon="-2.14553050696849822998046875">
        <ele>97.8000030517578125</ele>
        <time>2026-05-07T09:59:26.000Z</time>
        <extensions>
          <ns3:TrackPointExtension>
            <ns3:atemp>14.0</ns3:atemp>
            <ns3:hr>72</ns3:hr>
          </ns3:TrackPointExtension>
        </extensions>
      </trkpt>
      <trkpt lat="48.47127894870936870574951171875" lon="-2.14554794132709503173828125">
        <ele>97.59999847412109375</ele>
        <time>2026-05-07T09:59:28.000Z</time>
        <extensions>
          <ns3:TrackPointExtension>
            <ns3:atemp>14.0</ns3:atemp>
            <ns3:hr>72</ns3:hr>
          </ns3:TrackPointExtension>
        </extensions>
      </trkpt>
      <trkpt lat="48.47127693705260753631591796875" lon="-2.1455539762973785400390625">
        <ele>97.40000152587890625</ele>
        <time>2026-05-07T09:59:29.000Z</time>
        <extensions>
          <ns3:TrackPointExtension>
            <ns3:atemp>14.0</ns3:atemp>
            <ns3:hr>71</ns3:hr>
          </ns3:TrackPointExtension>
        </extensions>
      </trkpt>
      <trkpt lat="48.4712755121290683746337890625" lon="-2.14555858634412288665771484375">
        <ele>97.8000030517578125</ele>
        <time>2026-05-07T09:59:37.000Z</time>
        <extensions>
          <ns3:TrackPointExtension>
            <ns3:atemp>14.0</ns3:atemp>
            <ns3:hr>70</ns3:hr>
          </ns3:TrackPointExtension>
        </extensions>
      </trkpt>
      <trkpt lat="48.47136863507330417633056640625" lon="-2.1454958058893680572509765625">
        <ele>97.59999847412109375</ele>
        <time>2026-05-07T09:59:45.000Z</time>
        <extensions>
          <ns3:TrackPointExtension>
            <ns3:atemp>14.0</ns3:atemp>
            <ns3:hr>71</ns3:hr>
          </ns3:TrackPointExtension>
        </extensions>
      </trkpt>
      <trkpt lat="48.47144893370568752288818359375" lon="-2.14549656026065349578857421875">
        <ele>97.1999969482421875</ele>
        <time>2026-05-07T09:59:51.000Z</time>
        <extensions>
          <ns3:TrackPointExtension>
            <ns3:atemp>14.0</ns3:atemp>
            <ns3:hr>74</ns3:hr>
          </ns3:TrackPointExtension>
        </extensions>
      </trkpt>
      <trkpt lat="48.4714880771934986114501953125" lon="-2.14548231102526187896728515625">
        <ele>97.1999969482421875</ele>
        <time>2026-05-07T09:59:54.000Z</time>
        <extensions>
          <ns3:TrackPointExtension>
            <ns3:atemp>14.0</ns3:atemp>
            <ns3:hr>77</ns3:hr>
          </ns3:TrackPointExtension>
        </extensions>
      </trkpt>
      <trkpt lat="48.47152001224458217620849609375" lon="-2.1454726718366146087646484375">
        <ele>97.1999969482421875</ele>
        <time>2026-05-07T09:59:57.000Z</time>
        <extensions>
          <ns3:TrackPointExtension>
            <ns3:atemp>14.0</ns3:atemp>
            <ns3:hr>81</ns3:hr>
          </ns3:TrackPointExtension>
        </extensions>
      </trkpt>
      <trkpt lat="48.471526801586151123046875" lon="-2.14547242037951946258544921875">
        <ele>97.1999969482421875</ele>
        <time>2026-05-07T09:59:58.000Z</time>
        <extensions>
          <ns3:TrackPointExtension>
            <ns3:atemp>14.0</ns3:atemp>
            <ns3:hr>83</ns3:hr>
          </ns3:TrackPointExtension>
        </extensions>
      </trkpt>
      <trkpt lat="48.47152252681553363800048828125" lon="-2.14546923525631427764892578125">
        <ele>97.40000152587890625</ele>
        <time>2026-05-07T10:00:00.000Z</time>
        <extensions>
          <ns3:TrackPointExtension>
            <ns3:atemp>14.0</ns3:atemp>
            <ns3:hr>86</ns3:hr>
          </ns3:TrackPointExtension>
        </extensions>
      </trkpt>
      <trkpt lat="48.47153954207897186279296875" lon="-2.145473845303058624267578125">
        <ele>97.40000152587890625</ele>
        <time>2026-05-07T10:00:04.000Z</time>
        <extensions>
          <ns3:TrackPointExtension>
            <ns3:atemp>14.0</ns3:atemp>
            <ns3:hr>88</ns3:hr>
          </ns3:TrackPointExtension>
        </extensions>
      </trkpt>
      <trkpt lat="48.4716174937784671783447265625" lon="-2.1454485319554805755615234375">
        <ele>97.40000152587890625</ele>
        <time>2026-05-07T10:00:10.000Z</time>
        <extensions>
          <ns3:TrackPointExtension>
            <ns3:atemp>14.0</ns3:atemp>
            <ns3:hr>88</ns3:hr>
          </ns3:TrackPointExtension>
        </extensions>
      </trkpt>
      <trkpt lat="48.4717130474746227264404296875" lon="-2.1454257331788539886474609375">
        <ele>97</ele>
        <time>2026-05-07T10:00:17.000Z</time>
        <extensions>
          <ns3:TrackPointExtension>
            <ns3:atemp>14.0</ns3:atemp>
            <ns3:hr>85</ns3:hr>
          </ns3:TrackPointExtension>
        </extensions>
      </trkpt>
      <trkpt lat="48.471798039972782135009765625" lon="-2.14541575871407985687255859375">
        <ele>96.8000030517578125</ele>
        <time>2026-05-07T10:00:24.000Z</time>
        <extensions>
          <ns3:TrackPointExtension>
            <ns3:atemp>13.0</ns3:atemp>
            <ns3:hr>85</ns3:hr>
          </ns3:TrackPointExtension>
        </extensions>
      </trkpt>
      <trkpt lat="48.47181379795074462890625" lon="-2.145448029041290283203125">
        <ele>96.8000030517578125</ele>
        <time>2026-05-07T10:00:30.000Z</time>
        <extensions>
          <ns3:TrackPointExtension>
            <ns3:atemp>13.0</ns3:atemp>
            <ns3:hr>85</ns3:hr>
          </ns3:TrackPointExtension>
        </extensions>
      </trkpt>
      <trkpt lat="48.47181170247495174407958984375" lon="-2.14544476009905338287353515625">
        <ele>96.8000030517578125</ele>
        <time>2026-05-07T10:00:40.000Z</time>
        <extensions>
          <ns3:TrackPointExtension>
            <ns3:atemp>13.0</ns3:atemp>
            <ns3:hr>85</ns3:hr>
          </ns3:TrackPointExtension>
        </extensions>
      </trkpt>
      <trkpt lat="48.47182159312069416046142578125" lon="-2.14547778479754924774169921875">
        <ele>96.8000030517578125</ele>
        <time>2026-05-07T10:00:52.000Z</time>
        <extensions>
          <ns3:TrackPointExtension>
            <ns3:atemp>13.0</ns3:atemp>
            <ns3:hr>84</ns3:hr>
          </ns3:TrackPointExtension>
        </extensions>
      </trkpt>
      <trkpt lat="48.47183986566960811614990234375" lon="-2.14553360827267169952392578125">
        <ele>96.8000030517578125</ele>
        <time>2026-05-07T10:00:59.000Z</time>
        <extensions>
          <ns3:TrackPointExtension>
            <ns3:atemp>13.0</ns3:atemp>
            <ns3:hr>83</ns3:hr>
          </ns3:TrackPointExtension>
        </extensions>
      </trkpt>
      <trkpt lat="48.47184665501117706298828125" lon="-2.14560284279286861419677734375">
        <ele>97</ele>
        <time>2026-05-07T10:01:06.000Z</time>
        <extensions>
          <ns3:TrackPointExtension>
            <ns3:atemp>13.0</ns3:atemp>
            <ns3:hr>82</ns3:hr>
          </ns3:TrackPointExtension>
        </extensions>
      </trkpt>
      <trkpt lat="48.4718508459627628326416015625" lon="-2.14567576535046100616455078125">
        <ele>98.1999969482421875</ele>
        <time>2026-05-07T10:01:13.000Z</time>
        <extensions>
          <ns3:TrackPointExtension>
            <ns3:atemp>13.0</ns3:atemp>
            <ns3:hr>83</ns3:hr>
          </ns3:TrackPointExtension>
        </extensions>
      </trkpt>
      <trkpt lat="48.47185210324823856353759765625" lon="-2.14569319970905780792236328125">
        <ele>98.59999847412109375</ele>
        <time>2026-05-07T10:01:15.000Z</time>
        <extensions>
          <ns3:TrackPointExtension>
            <ns3:atemp>13.0</ns3:atemp>
            <ns3:hr>84</ns3:hr>
          </ns3:TrackPointExtension>
        </extensions>
      </trkpt>
      <trkpt lat="48.4718578867614269256591796875" lon="-2.14574533514678478240966796875">
        <ele>98.8000030517578125</ele>
        <time>2026-05-07T10:01:18.000Z</time>
        <extensions>
          <ns3:TrackPointExtension>
            <ns3:atemp>13.0</ns3:atemp>
            <ns3:hr>87</ns3:hr>
          </ns3:TrackPointExtension>
        </extensions>
      </trkpt>
      <trkpt lat="48.4718500077724456787109375" lon="-2.1457744203507900238037109375">
        <ele>98.59999847412109375</ele>
        <time>2026-05-07T10:01:20.000Z</time>
        <extensions>
          <ns3:TrackPointExtension>
            <ns3:atemp>13.0</ns3:atemp>
            <ns3:hr>88</ns3:hr>
          </ns3:TrackPointExtension>
        </extensions>
      </trkpt>
      <trkpt lat="48.4718327410519123077392578125" lon="-2.14584005065262317657470703125">
        <ele>98.59999847412109375</ele>
        <time>2026-05-07T10:01:26.000Z</time>
        <extensions>
          <ns3:TrackPointExtension>
            <ns3:atemp>13.0</ns3:atemp>
            <ns3:hr>91</ns3:hr>
          </ns3:TrackPointExtension>
        </extensions>
      </trkpt>
      <trkpt lat="48.47183299250900745391845703125" lon="-2.145840637385845184326171875">
        <ele>98.59999847412109375</ele>
        <time>2026-05-07T10:01:27.000Z</time>
        <extensions>
          <ns3:TrackPointExtension>
            <ns3:atemp>13.0</ns3:atemp>
            <ns3:hr>90</ns3:hr>
          </ns3:TrackPointExtension>
        </extensions>
      </trkpt>
      <trkpt lat="48.4718330763280391693115234375" lon="-2.14584055356681346893310546875">
        <ele>98.59999847412109375</ele>
        <time>2026-05-07T10:01:34.000Z</time>
        <extensions>
          <ns3:TrackPointExtension>
            <ns3:atemp>13.0</ns3:atemp>
            <ns3:hr>90</ns3:hr>
          </ns3:TrackPointExtension>
        </extensions>
      </trkpt>
      <trkpt lat="48.4718330763280391693115234375" lon="-2.14584055356681346893310546875">
        <ele>98.8000030517578125</ele>
        <time>2026-05-07T10:01:53.000Z</time>
        <extensions>
          <ns3:TrackPointExtension>
            <ns3:atemp>13.0</ns3:atemp>
            <ns3:hr>89</ns3:hr>
          </ns3:TrackPointExtension>
        </extensions>
      </trkpt>
      <trkpt lat="48.4718330763280391693115234375" lon="-2.14584055356681346893310546875">
        <ele>98.40000152587890625</ele>
        <time>2026-05-07T10:02:03.000Z</time>
        <extensions>
          <ns3:TrackPointExtension>
            <ns3:atemp>13.0</ns3:atemp>
            <ns3:hr>88</ns3:hr>
          </ns3:TrackPointExtension>
        </extensions>
      </trkpt>
      <trkpt lat="48.4718330763280391693115234375" lon="-2.14584055356681346893310546875">
        <ele>98.59999847412109375</ele>
        <time>2026-05-07T10:02:16.000Z</time>
        <extensions>
          <ns3:TrackPointExtension>
            <ns3:atemp>13.0</ns3:atemp>
            <ns3:hr>86</ns3:hr>
          </ns3:TrackPointExtension>
        </extensions>
      </trkpt>
      <trkpt lat="48.4718330763280391693115234375" lon="-2.14584055356681346893310546875">
        <ele>98.40000152587890625</ele>
        <time>2026-05-07T10:02:19.000Z</time>
        <extensions>
          <ns3:TrackPointExtension>
            <ns3:atemp>13.0</ns3:atemp>
            <ns3:hr>83</ns3:hr>
          </ns3:TrackPointExtension>
        </extensions>
      </trkpt>
      <trkpt lat="48.4718330763280391693115234375" lon="-2.14584055356681346893310546875">
        <ele>98.1999969482421875</ele>
        <time>2026-05-07T10:02:24.000Z</time>
        <extensions>
          <ns3:TrackPointExtension>
            <ns3:atemp>13.0</ns3:atemp>
            <ns3:hr>81</ns3:hr>
          </ns3:TrackPointExtension>
        </extensions>
      </trkpt>
      <trkpt lat="48.4718330763280391693115234375" lon="-2.14584055356681346893310546875">
        <ele>98.59999847412109375</ele>
        <time>2026-05-07T10:02:32.000Z</time>
        <extensions>
          <ns3:TrackPointExtension>
            <ns3:atemp>13.0</ns3:atemp>
            <ns3:hr>78</ns3:hr>
          </ns3:TrackPointExtension>
        </extensions>
      </trkpt>
      <trkpt lat="48.4718312323093414306640625" lon="-2.1458414755761623382568359375">
        <ele>98.40000152587890625</ele>
        <time>2026-05-07T10:02:38.000Z</time>
        <extensions>
          <ns3:TrackPointExtension>
            <ns3:atemp>13.0</ns3:atemp>
            <ns3:hr>78</ns3:hr>
          </ns3:TrackPointExtension>
        </extensions>
      </trkpt>
      <trkpt lat="48.47183450125157833099365234375" lon="-2.14584566652774810791015625">
        <ele>98.40000152587890625</ele>
        <time>2026-05-07T10:02:43.000Z</time>
        <extensions>
          <ns3:TrackPointExtension>
            <ns3:atemp>13.0</ns3:atemp>
            <ns3:hr>79</ns3:hr>
          </ns3:TrackPointExtension>
        </extensions>
      </trkpt>
      <trkpt lat="48.4718330763280391693115234375" lon="-2.14584055356681346893310546875">
        <ele>98.1999969482421875</ele>
        <time>2026-05-07T10:02:49.000Z</time>
        <extensions>
          <ns3:TrackPointExtension>
            <ns3:atemp>13.0</ns3:atemp>
            <ns3:hr>77</ns3:hr>
          </ns3:TrackPointExtension>
        </extensions>
      </trkpt>
      <trkpt lat="48.4718330763280391693115234375" lon="-2.14584055356681346893310546875">
        <ele>98.59999847412109375</ele>
        <time>2026-05-07T10:02:55.000Z</time>
        <extensions>
          <ns3:TrackPointExtension>
            <ns3:atemp>13.0</ns3:atemp>
            <ns3:hr>80</ns3:hr>
          </ns3:TrackPointExtension>
        </extensions>
      </trkpt>
      <trkpt lat="48.47182829864323139190673828125" lon="-2.14584390632808208465576171875">
        <ele>98.8000030517578125</ele>
        <time>2026-05-07T10:03:03.000Z</time>
        <extensions>
          <ns3:TrackPointExtension>
            <ns3:atemp>13.0</ns3:atemp>
            <ns3:hr>83</ns3:hr>
          </ns3:TrackPointExtension>
        </extensions>
      </trkpt>
      <trkpt lat="48.47185579128563404083251953125" lon="-2.14588631875813007354736328125">
        <ele>98.59999847412109375</ele>
        <time>2026-05-07T10:03:09.000Z</time>
        <extensions>
          <ns3:TrackPointExtension>
            <ns3:atemp>13.0</ns3:atemp>
            <ns3:hr>82</ns3:hr>
          </ns3:TrackPointExtension>
        </extensions>
      </trkpt>
      <trkpt lat="48.47186953760683536529541015625" lon="-2.14596477337181568145751953125">
        <ele>98.8000030517578125</ele>
        <time>2026-05-07T10:03:15.000Z</time>
        <extensions>
          <ns3:TrackPointExtension>
            <ns3:atemp>13.0</ns3:atemp>
            <ns3:hr>80</ns3:hr>
          </ns3:TrackPointExtension>
        </extensions>
      </trkpt>
      <trkpt lat="48.4719011373817920684814453125" lon="-2.1460568904876708984375">
        <ele>98.59999847412109375</ele>
        <time>2026-05-07T10:03:21.000Z</time>
        <extensions>
          <ns3:TrackPointExtension>
            <ns3:atemp>13.0</ns3:atemp>
            <ns3:hr>80</ns3:hr>
          </ns3:TrackPointExtension>
        </extensions>
      </trkpt>
      <trkpt lat="48.47191228531301021575927734375" lon="-2.14610106311738491058349609375">
        <ele>98.59999847412109375</ele>
        <time>2026-05-07T10:03:24.000Z</time>
        <extensions>
          <ns3:TrackPointExtension>
            <ns3:atemp>13.0</ns3:atemp>
            <ns3:hr>79</ns3:hr>
          </ns3:TrackPointExtension>
        </extensions>
      </trkpt>
      <trkpt lat="48.47192200832068920135498046875" lon="-2.14616208337247371673583984375">
        <ele>98.8000030517578125</ele>
        <time>2026-05-07T10:03:28.000Z</time>
        <extensions>
          <ns3:TrackPointExtension>
            <ns3:atemp>13.0</ns3:atemp>
            <ns3:hr>78</ns3:hr>
          </ns3:TrackPointExtension>
        </extensions>
      </trkpt>
      <trkpt lat="48.471940867602825164794921875" lon="-2.14626266621053218841552734375">
        <ele>98.8000030517578125</ele>
        <time>2026-05-07T10:03:36.000Z</time>
        <extensions>
          <ns3:TrackPointExtension>
            <ns3:atemp>13.0</ns3:atemp>
            <ns3:hr>77</ns3:hr>
          </ns3:TrackPointExtension>
        </extensions>
      </trkpt>
      <trkpt lat="48.4719463996589183807373046875" lon="-2.14626333676278591156005859375">
        <ele>98.8000030517578125</ele>
        <time>2026-05-07T10:03:38.000Z</time>
        <extensions>
          <ns3:TrackPointExtension>
            <ns3:atemp>13.0</ns3:atemp>
            <ns3:hr>78</ns3:hr>
          </ns3:TrackPointExtension>
        </extensions>
      </trkpt>
      <trkpt lat="48.47195201553404331207275390625" lon="-2.14626333676278591156005859375">
        <ele>98.40000152587890625</ele>
        <time>2026-05-07T10:03:45.000Z</time>
        <extensions>
          <ns3:TrackPointExtension>
            <ns3:atemp>13.0</ns3:atemp>
            <ns3:hr>79</ns3:hr>
          </ns3:TrackPointExtension>
        </extensions>
      </trkpt>
      <trkpt lat="48.4719738923013210296630859375" lon="-2.14629636146128177642822265625">
        <ele>98.59999847412109375</ele>
        <time>2026-05-07T10:03:50.000Z</time>
        <extensions>
          <ns3:TrackPointExtension>
            <ns3:atemp>13.0</ns3:atemp>
            <ns3:hr>81</ns3:hr>
          </ns3:TrackPointExtension>
        </extensions>
      </trkpt>
      <trkpt lat="48.47199241630733013153076171875" lon="-2.1463004685938358306884765625">
        <ele>98.8000030517578125</ele>
        <time>2026-05-07T10:03:57.000Z</time>
        <extensions>
          <ns3:TrackPointExtension>
            <ns3:atemp>13.0</ns3:atemp>
            <ns3:hr>81</ns3:hr>
          </ns3:TrackPointExtension>
        </extensions>
      </trkpt>
      <trkpt lat="48.4719541110098361968994140625" lon="-2.14634313248097896575927734375">
        <ele>98.59999847412109375</ele>
        <time>2026-05-07T10:04:03.000Z</time>
        <extensions>
          <ns3:TrackPointExtension>
            <ns3:atemp>13.0</ns3:atemp>
            <ns3:hr>81</ns3:hr>
          </ns3:TrackPointExtension>
        </extensions>
      </trkpt>
      <trkpt lat="48.471955619752407073974609375" lon="-2.14644321240484714508056640625">
        <ele>98.8000030517578125</ele>
        <time>2026-05-07T10:04:10.000Z</time>
        <extensions>
          <ns3:TrackPointExtension>
            <ns3:atemp>13.0</ns3:atemp>
            <ns3:hr>82</ns3:hr>
          </ns3:TrackPointExtension>
        </extensions>
      </trkpt>
      <trkpt lat="48.4719618223607540130615234375" lon="-2.14657254517078399658203125">
        <ele>99</ele>
        <time>2026-05-07T10:04:18.000Z</time>
        <extensions>
          <ns3:TrackPointExtension>
            <ns3:atemp>13.0</ns3:atemp>
            <ns3:hr>84</ns3:hr>
          </ns3:TrackPointExtension>
        </extensions>
      </trkpt>
      <trkpt lat="48.47197540104389190673828125" lon="-2.14666466228663921356201171875">
        <ele>99.1999969482421875</ele>
        <time>2026-05-07T10:04:24.000Z</time>
        <extensions>
          <ns3:TrackPointExtension>
            <ns3:atemp>13.0</ns3:atemp>
            <ns3:hr>85</ns3:hr>
          </ns3:TrackPointExtension>
        </extensions>
      </trkpt>
      <trkpt lat="48.471979089081287384033203125" lon="-2.1466924063861370086669921875">
        <ele>99.59999847412109375</ele>
        <time>2026-05-07T10:04:26.000Z</time>
        <extensions>
          <ns3:TrackPointExtension>
            <ns3:atemp>13.0</ns3:atemp>
            <ns3:hr>85</ns3:hr>
          </ns3:TrackPointExtension>
        </extensions>
      </trkpt>
      <trkpt lat="48.47197833471000194549560546875" lon="-2.1467034704983234405517578125">
        <ele>99.8000030517578125</ele>
        <time>2026-05-07T10:04:27.000Z</time>
        <extensions>
          <ns3:TrackPointExtension>
            <ns3:atemp>13.0</ns3:atemp>
            <ns3:hr>86</ns3:hr>
          </ns3:TrackPointExtension>
        </extensions>
      </trkpt>
      <trkpt lat="48.47195805050432682037353515625" lon="-2.1467353217303752899169921875">
        <ele>100.59999847412109375</ele>
        <time>2026-05-07T10:04:33.000Z</time>
        <extensions>
          <ns3:TrackPointExtension>
            <ns3:atemp>13.0</ns3:atemp>
            <ns3:hr>87</ns3:hr>
          </ns3:TrackPointExtension>
        </extensions>
      </trkpt>
      <trkpt lat="48.47190524451434612274169921875" lon="-2.14676977135241031646728515625">
        <ele>100.40000152587890625</ele>
        <time>2026-05-07T10:04:39.000Z</time>
        <extensions>
          <ns3:TrackPointExtension>
            <ns3:atemp>13.0</ns3:atemp>
            <ns3:hr>89</ns3:hr>
          </ns3:TrackPointExtension>
        </extensions>
      </trkpt>
      <trkpt lat="48.47186140716075897216796875" lon="-2.14681888930499553680419921875">
        <ele>100.1999969482421875</ele>
        <time>2026-05-07T10:04:46.000Z</time>
        <extensions>
          <ns3:TrackPointExtension>
            <ns3:atemp>13.0</ns3:atemp>
            <ns3:hr>90</ns3:hr>
          </ns3:TrackPointExtension>
        </extensions>
      </trkpt>
      <trkpt lat="48.47185025922954082489013671875" lon="-2.14682609774172306060791015625">
        <ele>100.8000030517578125</ele>
        <time>2026-05-07T10:04:53.000Z</time>
        <extensions>
          <ns3:TrackPointExtension>
            <ns3:atemp>13.0</ns3:atemp>
            <ns3:hr>89</ns3:hr>
          </ns3:TrackPointExtension>
        </extensions>
      </trkpt>
      <trkpt lat="48.47181086428463459014892578125" lon="-2.1468328870832920074462890625">
        <ele>99.8000030517578125</ele>
        <time>2026-05-07T10:05:00.000Z</time>
        <extensions>
          <ns3:TrackPointExtension>
            <ns3:atemp>13.0</ns3:atemp>
            <ns3:hr>87</ns3:hr>
          </ns3:TrackPointExtension>
        </extensions>
      </trkpt>
      <trkpt lat="48.4717633388936519622802734375" lon="-2.146837413311004638671875">
        <ele>100</ele>
        <time>2026-05-07T10:05:09.000Z</time>
        <extensions>
          <ns3:TrackPointExtension>
            <ns3:atemp>13.0</ns3:atemp>
            <ns3:hr>86</ns3:hr>
          </ns3:TrackPointExtension>
        </extensions>
      </trkpt>
      <trkpt lat="48.4717210941016674041748046875" lon="-2.1468151174485683441162109375">
        <ele>100.59999847412109375</ele>
        <time>2026-05-07T10:05:16.000Z</time>
        <extensions>
          <ns3:TrackPointExtension>
            <ns3:atemp>13.0</ns3:atemp>
            <ns3:hr>86</ns3:hr>
          </ns3:TrackPointExtension>
        </extensions>
      </trkpt>
      <trkpt lat="48.47170609049499034881591796875" lon="-2.14680095203220844268798828125">
        <ele>100.59999847412109375</ele>
        <time>2026-05-07T10:05:23.000Z</time>
        <extensions>
          <ns3:TrackPointExtension>
            <ns3:atemp>13.0</ns3:atemp>
            <ns3:hr>85</ns3:hr>
          </ns3:TrackPointExtension>
        </extensions>
      </trkpt>
      <trkpt lat="48.4717046655714511871337890625" lon="-2.14680128730833530426025390625">
        <ele>101</ele>
        <time>2026-05-07T10:05:27.000Z</time>
        <extensions>
          <ns3:TrackPointExtension>
            <ns3:atemp>13.0</ns3:atemp>
            <ns3:hr>85</ns3:hr>
          </ns3:TrackPointExtension>
        </extensions>
      </trkpt>
      <trkpt lat="48.471682369709014892578125" lon="-2.146800868213176727294921875">
        <ele>100.8000030517578125</ele>
        <time>2026-05-07T10:05:34.000Z</time>
        <extensions>
          <ns3:TrackPointExtension>
            <ns3:atemp>13.0</ns3:atemp>
            <ns3:hr>85</ns3:hr>
          </ns3:TrackPointExtension>
        </extensions>
      </trkpt>
      <trkpt lat="48.4716822020709514617919921875" lon="-2.14680849574506282806396484375">
        <ele>100.8000030517578125</ele>
        <time>2026-05-07T10:05:35.000Z</time>
        <extensions>
          <ns3:TrackPointExtension>
            <ns3:atemp>13.0</ns3:atemp>
            <ns3:hr>83</ns3:hr>
          </ns3:TrackPointExtension>
        </extensions>
      </trkpt>
      <trkpt lat="48.4716815315186977386474609375" lon="-2.14682190679013729095458984375">
        <ele>100.8000030517578125</ele>
        <time>2026-05-07T10:05:36.000Z</time>
        <extensions>
          <ns3:TrackPointExtension>
            <ns3:atemp>13.0</ns3:atemp>
            <ns3:hr>80</ns3:hr>
          </ns3:TrackPointExtension>
        </extensions>
      </trkpt>
      <trkpt lat="48.4716808609664440155029296875" lon="-2.14683364145457744598388671875">
        <ele>101</ele>
        <time>2026-05-07T10:05:37.000Z</time>
        <extensions>
          <ns3:TrackPointExtension>
            <ns3:atemp>13.0</ns3:atemp>
            <ns3:hr>80</ns3:hr>
          </ns3:TrackPointExtension>
        </extensions>
      </trkpt>
      <trkpt lat="48.4716805256903171539306640625" lon="-2.1468295343220233917236328125">
        <ele>101.40000152587890625</ele>
        <time>2026-05-07T10:05:42.000Z</time>
        <extensions>
          <ns3:TrackPointExtension>
            <ns3:atemp>13.0</ns3:atemp>
            <ns3:hr>77</ns3:hr>
          </ns3:TrackPointExtension>
        </extensions>
      </trkpt>
      <trkpt lat="48.4716805256903171539306640625" lon="-2.1468295343220233917236328125">
        <ele>100.8000030517578125</ele>
        <time>2026-05-07T10:05:52.000Z</time>
        <extensions>
          <ns3:TrackPointExtension>
            <ns3:atemp>13.0</ns3:atemp>
            <ns3:hr>78</ns3:hr>
          </ns3:TrackPointExtension>
        </extensions>
      </trkpt>
      <trkpt lat="48.47168178297579288482666015625" lon="-2.14680363424122333526611328125">
        <ele>100.59999847412109375</ele>
        <time>2026-05-07T10:05:56.000Z</time>
        <extensions>
          <ns3:TrackPointExtension>
            <ns3:atemp>13.0</ns3:atemp>
            <ns3:hr>81</ns3:hr>
          </ns3:TrackPointExtension>
        </extensions>
      </trkpt>
      <trkpt lat="48.47168161533772945404052734375" lon="-2.146799527108669281005859375">
        <ele>100.59999847412109375</ele>
        <time>2026-05-07T10:05:58.000Z</time>
        <extensions>
          <ns3:TrackPointExtension>
            <ns3:atemp>13.0</ns3:atemp>
            <ns3:hr>80</ns3:hr>
          </ns3:TrackPointExtension>
        </extensions>
      </trkpt>
      <trkpt lat="48.47167608328163623809814453125" lon="-2.14677664451301097869873046875">
        <ele>101.1999969482421875</ele>
        <time>2026-05-07T10:06:04.000Z</time>
        <extensions>
          <ns3:TrackPointExtension>
            <ns3:atemp>13.0</ns3:atemp>
            <ns3:hr>80</ns3:hr>
          </ns3:TrackPointExtension>
        </extensions>
      </trkpt>
      <trkpt lat="48.47168195061385631561279296875" lon="-2.14681587181985378265380859375">
        <ele>101.1999969482421875</ele>
        <time>2026-05-07T10:06:09.000Z</time>
        <extensions>
          <ns3:TrackPointExtension>
            <ns3:atemp>13.0</ns3:atemp>
            <ns3:hr>80</ns3:hr>
          </ns3:TrackPointExtension>
        </extensions>
      </trkpt>
      <trkpt lat="48.47168010659515857696533203125" lon="-2.14682308025658130645751953125">
        <ele>101.1999969482421875</ele>
        <time>2026-05-07T10:06:14.000Z</time>
        <extensions>
          <ns3:TrackPointExtension>
            <ns3:atemp>13.0</ns3:atemp>
            <ns3:hr>80</ns3:hr>
          </ns3:TrackPointExtension>
        </extensions>
      </trkpt>
      <trkpt lat="48.4716798551380634307861328125" lon="-2.14682106859982013702392578125">
        <ele>101</ele>
        <time>2026-05-07T10:06:18.000Z</time>
        <extensions>
          <ns3:TrackPointExtension>
            <ns3:atemp>13.0</ns3:atemp>
            <ns3:hr>84</ns3:hr>
          </ns3:TrackPointExtension>
        </extensions>
      </trkpt>
      <trkpt lat="48.4716798551380634307861328125" lon="-2.14682106859982013702392578125">
        <ele>101</ele>
        <time>2026-05-07T10:06:20.000Z</time>
        <extensions>
          <ns3:TrackPointExtension>
            <ns3:atemp>13.0</ns3:atemp>
            <ns3:hr>88</ns3:hr>
          </ns3:TrackPointExtension>
        </extensions>
      </trkpt>
      <trkpt lat="48.4716798551380634307861328125" lon="-2.14682106859982013702392578125">
        <ele>101</ele>
        <time>2026-05-07T10:06:22.000Z</time>
        <extensions>
          <ns3:TrackPointExtension>
            <ns3:atemp>13.0</ns3:atemp>
            <ns3:hr>88</ns3:hr>
          </ns3:TrackPointExtension>
        </extensions>
      </trkpt>
      <trkpt lat="48.4716798551380634307861328125" lon="-2.14682106859982013702392578125">
        <ele>100.8000030517578125</ele>
        <time>2026-05-07T10:06:23.000Z</time>
        <extensions>
          <ns3:TrackPointExtension>
            <ns3:atemp>13.0</ns3:atemp>
            <ns3:hr>85</ns3:hr>
          </ns3:TrackPointExtension>
        </extensions>
      </trkpt>
      <trkpt lat="48.4716798551380634307861328125" lon="-2.14682106859982013702392578125">
        <ele>100.8000030517578125</ele>
        <time>2026-05-07T10:06:24.000Z</time>
        <extensions>
          <ns3:TrackPointExtension>
            <ns3:atemp>13.0</ns3:atemp>
            <ns3:hr>84</ns3:hr>
          </ns3:TrackPointExtension>
        </extensions>
      </trkpt>
      <trkpt lat="48.4716798551380634307861328125" lon="-2.14682106859982013702392578125">
        <ele>100.8000030517578125</ele>
        <time>2026-05-07T10:06:30.000Z</time>
        <extensions>
          <ns3:TrackPointExtension>
            <ns3:atemp>13.0</ns3:atemp>
            <ns3:hr>84</ns3:hr>
          </ns3:TrackPointExtension>
        </extensions>
      </trkpt>
      <trkpt lat="48.4716798551380634307861328125" lon="-2.14682106859982013702392578125">
        <ele>100.59999847412109375</ele>
        <time>2026-05-07T10:06:37.000Z</time>
        <extensions>
          <ns3:TrackPointExtension>
            <ns3:atemp>13.0</ns3:atemp>
            <ns3:hr>83</ns3:hr>
          </ns3:TrackPointExtension>
        </extensions>
      </trkpt>
      <trkpt lat="48.4716798551380634307861328125" lon="-2.14682106859982013702392578125">
        <ele>100.59999847412109375</ele>
        <time>2026-05-07T10:06:47.000Z</time>
        <extensions>
          <ns3:TrackPointExtension>
            <ns3:atemp>13.0</ns3:atemp>
            <ns3:hr>83</ns3:hr>
          </ns3:TrackPointExtension>
        </extensions>
      </trkpt>
      <trkpt lat="48.4716798551380634307861328125" lon="-2.14682106859982013702392578125">
        <ele>100.8000030517578125</ele>
        <time>2026-05-07T10:06:55.000Z</time>
        <extensions>
          <ns3:TrackPointExtension>
            <ns3:atemp>13.0</ns3:atemp>
            <ns3:hr>79</ns3:hr>
          </ns3:TrackPointExtension>
        </extensions>
      </trkpt>
      <trkpt lat="48.4716798551380634307861328125" lon="-2.14682106859982013702392578125">
        <ele>100.8000030517578125</ele>
        <time>2026-05-07T10:06:56.000Z</time>
        <extensions>
          <ns3:TrackPointExtension>
            <ns3:atemp>13.0</ns3:atemp>
            <ns3:hr>75</ns3:hr>
          </ns3:TrackPointExtension>
        </extensions>
      </trkpt>
      <trkpt lat="48.4716798551380634307861328125" lon="-2.14682106859982013702392578125">
        <ele>101</ele>
        <time>2026-05-07T10:06:58.000Z</time>
        <extensions>
          <ns3:TrackPointExtension>
            <ns3:atemp>13.0</ns3:atemp>
            <ns3:hr>72</ns3:hr>
          </ns3:TrackPointExtension>
        </extensions>
      </trkpt>
      <trkpt lat="48.4716798551380634307861328125" lon="-2.14682106859982013702392578125">
        <ele>101</ele>
        <time>2026-05-07T10:07:00.000Z</time>
        <extensions>
          <ns3:TrackPointExtension>
            <ns3:atemp>13.0</ns3:atemp>
            <ns3:hr>72</ns3:hr>
          </ns3:TrackPointExtension>
        </extensions>
      </trkpt>
      <trkpt lat="48.47163618542253971099853515625" lon="-2.1468387544155120849609375">
        <ele>100.59999847412109375</ele>
        <time>2026-05-07T10:07:08.000Z</time>
        <extensions>
          <ns3:TrackPointExtension>
            <ns3:atemp>13.0</ns3:atemp>
            <ns3:hr>73</ns3:hr>
          </ns3:TrackPointExtension>
        </extensions>
      </trkpt>
      <trkpt lat="48.47161321900784969329833984375" lon="-2.14686515741050243377685546875">
        <ele>100.8000030517578125</ele>
        <time>2026-05-07T10:07:13.000Z</time>
        <extensions>
          <ns3:TrackPointExtension>
            <ns3:atemp>13.0</ns3:atemp>
            <ns3:hr>74</ns3:hr>
          </ns3:TrackPointExtension>
        </extensions>
      </trkpt>
      <trkpt lat="48.471604920923709869384765625" lon="-2.14695610105991363525390625">
        <ele>101</ele>
        <time>2026-05-07T10:07:19.000Z</time>
        <extensions>
          <ns3:TrackPointExtension>
            <ns3:atemp>13.0</ns3:atemp>
            <ns3:hr>75</ns3:hr>
          </ns3:TrackPointExtension>
        </extensions>
      </trkpt>
      <trkpt lat="48.47160768695175647735595703125" lon="-2.1469767205417156219482421875">
        <ele>100.8000030517578125</ele>
        <time>2026-05-07T10:07:21.000Z</time>
        <extensions>
          <ns3:TrackPointExtension>
            <ns3:atemp>13.0</ns3:atemp>
            <ns3:hr>78</ns3:hr>
          </ns3:TrackPointExtension>
        </extensions>
      </trkpt>
      <trkpt lat="48.47161590121686458587646484375" lon="-2.1470347233116626739501953125">
        <ele>101.1999969482421875</ele>
        <time>2026-05-07T10:07:26.000Z</time>
        <extensions>
          <ns3:TrackPointExtension>
            <ns3:atemp>13.0</ns3:atemp>
            <ns3:hr>81</ns3:hr>
          </ns3:TrackPointExtension>
        </extensions>
      </trkpt>
      <trkpt lat="48.4716174937784671783447265625" lon="-2.14705626480281352996826171875">
        <ele>101.59999847412109375</ele>
        <time>2026-05-07T10:07:28.000Z</time>
        <extensions>
          <ns3:TrackPointExtension>
            <ns3:atemp>13.0</ns3:atemp>
            <ns3:hr>82</ns3:hr>
          </ns3:TrackPointExtension>
        </extensions>
      </trkpt>
      <trkpt lat="48.47163635306060314178466796875" lon="-2.147119045257568359375">
        <ele>101.59999847412109375</ele>
        <time>2026-05-07T10:07:34.000Z</time>
        <extensions>
          <ns3:TrackPointExtension>
            <ns3:atemp>13.0</ns3:atemp>
            <ns3:hr>85</ns3:hr>
          </ns3:TrackPointExtension>
        </extensions>
      </trkpt>
      <trkpt lat="48.47163786180317401885986328125" lon="-2.14712105691432952880859375">
        <ele>101.40000152587890625</ele>
        <time>2026-05-07T10:07:35.000Z</time>
        <extensions>
          <ns3:TrackPointExtension>
            <ns3:atemp>13.0</ns3:atemp>
            <ns3:hr>85</ns3:hr>
          </ns3:TrackPointExtension>
        </extensions>
      </trkpt>
      <trkpt lat="48.47164356149733066558837890625" lon="-2.14711477048695087432861328125">
        <ele>101.1999969482421875</ele>
        <time>2026-05-07T10:07:50.000Z</time>
        <extensions>
          <ns3:TrackPointExtension>
            <ns3:atemp>13.0</ns3:atemp>
            <ns3:hr>86</ns3:hr>
          </ns3:TrackPointExtension>
        </extensions>
      </trkpt>
      <trkpt lat="48.47164171747863292694091796875" lon="-2.14711979962885379791259765625">
        <ele>101.1999969482421875</ele>
        <time>2026-05-07T10:07:54.000Z</time>
        <extensions>
          <ns3:TrackPointExtension>
            <ns3:atemp>13.0</ns3:atemp>
            <ns3:hr>83</ns3:hr>
          </ns3:TrackPointExtension>
        </extensions>
      </trkpt>
      <trkpt lat="48.4716687910258769989013671875" lon="-2.14712901972234249114990234375">
        <ele>101.8000030517578125</ele>
        <time>2026-05-07T10:08:00.000Z</time>
        <extensions>
          <ns3:TrackPointExtension>
            <ns3:atemp>13.0</ns3:atemp>
            <ns3:hr>81</ns3:hr>
          </ns3:TrackPointExtension>
        </extensions>
      </trkpt>
      <trkpt lat="48.47168010659515857696533203125" lon="-2.1471297740936279296875">
        <ele>101.8000030517578125</ele>
        <time>2026-05-07T10:08:06.000Z</time>
        <extensions>
          <ns3:TrackPointExtension>
            <ns3:atemp>13.0</ns3:atemp>
            <ns3:hr>81</ns3:hr>
          </ns3:TrackPointExtension>
        </extensions>
      </trkpt>
      <trkpt lat="48.4716624207794666290283203125" lon="-2.14712105691432952880859375">
        <ele>101.59999847412109375</ele>
        <time>2026-05-07T10:08:12.000Z</time>
        <extensions>
          <ns3:TrackPointExtension>
            <ns3:atemp>13.0</ns3:atemp>
            <ns3:hr>81</ns3:hr>
          </ns3:TrackPointExtension>
        </extensions>
      </trkpt>
      <trkpt lat="48.4716060943901538848876953125" lon="-2.1471195481717586517333984375">
        <ele>101.8000030517578125</ele>
        <time>2026-05-07T10:08:19.000Z</time>
        <extensions>
          <ns3:TrackPointExtension>
            <ns3:atemp>13.0</ns3:atemp>
            <ns3:hr>81</ns3:hr>
          </ns3:TrackPointExtension>
        </extensions>
      </trkpt>
      <trkpt lat="48.4715943597257137298583984375" lon="-2.1471182070672512054443359375">
        <ele>102</ele>
        <time>2026-05-07T10:08:20.000Z</time>
        <extensions>
          <ns3:TrackPointExtension>
            <ns3:atemp>13.0</ns3:atemp>
            <ns3:hr>81</ns3:hr>
          </ns3:TrackPointExtension>
        </extensions>
      </trkpt>
      <trkpt lat="48.4715350158512592315673828125" lon="-2.14712918736040592193603515625">
        <ele>101.8000030517578125</ele>
        <time>2026-05-07T10:08:27.000Z</time>
        <extensions>
          <ns3:TrackPointExtension>
            <ns3:atemp>13.0</ns3:atemp>
            <ns3:hr>82</ns3:hr>
          </ns3:TrackPointExtension>
        </extensions>
      </trkpt>
      <trkpt lat="48.47150710411369800567626953125" lon="-2.14719188399612903594970703125">
        <ele>101.59999847412109375</ele>
        <time>2026-05-07T10:08:34.000Z</time>
        <extensions>
          <ns3:TrackPointExtension>
            <ns3:atemp>13.0</ns3:atemp>
            <ns3:hr>80</ns3:hr>
          </ns3:TrackPointExtension>
        </extensions>
      </trkpt>
      <trkpt lat="48.4715155698359012603759765625" lon="-2.14725407771766185760498046875">
        <ele>101.8000030517578125</ele>
        <time>2026-05-07T10:08:41.000Z</time>
        <extensions>
          <ns3:TrackPointExtension>
            <ns3:atemp>13.0</ns3:atemp>
            <ns3:hr>79</ns3:hr>
          </ns3:TrackPointExtension>
        </extensions>
      </trkpt>
      <trkpt lat="48.4715242870151996612548828125" lon="-2.147274948656558990478515625">
        <ele>102</ele>
        <time>2026-05-07T10:08:50.000Z</time>
        <extensions>
          <ns3:TrackPointExtension>
            <ns3:atemp>13.0</ns3:atemp>
            <ns3:hr>77</ns3:hr>
          </ns3:TrackPointExtension>
        </extensions>
      </trkpt>
      <trkpt lat="48.47153459675610065460205078125" lon="-2.14729364030063152313232421875">
        <ele>102.1999969482421875</ele>
        <time>2026-05-07T10:08:56.000Z</time>
        <extensions>
          <ns3:TrackPointExtension>
            <ns3:atemp>13.0</ns3:atemp>
            <ns3:hr>80</ns3:hr>
          </ns3:TrackPointExtension>
        </extensions>
      </trkpt>
      <trkpt lat="48.47154716961085796356201171875" lon="-2.14731710962951183319091796875">
        <ele>102</ele>
        <time>2026-05-07T10:09:01.000Z</time>
        <extensions>
          <ns3:TrackPointExtension>
            <ns3:atemp>13.0</ns3:atemp>
            <ns3:hr>83</ns3:hr>
          </ns3:TrackPointExtension>
        </extensions>
      </trkpt>
      <trkpt lat="48.4715547971427440643310546875" lon="-2.1473384834825992584228515625">
        <ele>102</ele>
        <time>2026-05-07T10:09:04.000Z</time>
        <extensions>
          <ns3:TrackPointExtension>
            <ns3:atemp>13.0</ns3:atemp>
            <ns3:hr>85</ns3:hr>
          </ns3:TrackPointExtension>
        </extensions>
      </trkpt>
      <trkpt lat="48.47159930504858493804931640625" lon="-2.1474149264395236968994140625">
        <ele>102</ele>
        <time>2026-05-07T10:09:13.000Z</time>
        <extensions>
          <ns3:TrackPointExtension>
            <ns3:atemp>13.0</ns3:atemp>
            <ns3:hr>84</ns3:hr>
          </ns3:TrackPointExtension>
        </extensions>
      </trkpt>
      <trkpt lat="48.4716439805924892425537109375" lon="-2.1475374698638916015625">
        <ele>102.1999969482421875</ele>
        <time>2026-05-07T10:09:22.000Z</time>
        <extensions>
          <ns3:TrackPointExtension>
            <ns3:atemp>12.0</ns3:atemp>
            <ns3:hr>87</ns3:hr>
          </ns3:TrackPointExtension>
        </extensions>
      </trkpt>
      <trkpt lat="48.4716895781457424163818359375" lon="-2.14763310737907886505126953125">
        <ele>102</ele>
        <time>2026-05-07T10:09:31.000Z</time>
        <extensions>
          <ns3:TrackPointExtension>
            <ns3:atemp>12.0</ns3:atemp>
            <ns3:hr>87</ns3:hr>
          </ns3:TrackPointExtension>
        </extensions>
      </trkpt>
      <trkpt lat="48.4717261232435703277587890625" lon="-2.14774274267256259918212890625">
        <ele>102.40000152587890625</ele>
        <time>2026-05-07T10:09:40.000Z</time>
        <extensions>
          <ns3:TrackPointExtension>
            <ns3:atemp>12.0</ns3:atemp>
            <ns3:hr>88</ns3:hr>
          </ns3:TrackPointExtension>
        </extensions>
      </trkpt>
      <trkpt lat="48.4717333316802978515625" lon="-2.14781113900244235992431640625">
        <ele>102.40000152587890625</ele>
        <time>2026-05-07T10:09:46.000Z</time>
        <extensions>
          <ns3:TrackPointExtension>
            <ns3:atemp>12.0</ns3:atemp>
            <ns3:hr>85</ns3:hr>
          </ns3:TrackPointExtension>
        </extensions>
      </trkpt>
      <trkpt lat="48.4717341698706150054931640625" lon="-2.1478219516575336456298828125">
        <ele>102.40000152587890625</ele>
        <time>2026-05-07T10:09:47.000Z</time>
        <extensions>
          <ns3:TrackPointExtension>
            <ns3:atemp>12.0</ns3:atemp>
            <ns3:hr>82</ns3:hr>
          </ns3:TrackPointExtension>
        </extensions>
      </trkpt>
      <trkpt lat="48.47173509187996387481689453125" lon="-2.14783544652163982391357421875">
        <ele>102.40000152587890625</ele>
        <time>2026-05-07T10:09:48.000Z</time>
        <extensions>
          <ns3:TrackPointExtension>
            <ns3:atemp>12.0</ns3:atemp>
            <ns3:hr>82</ns3:hr>
          </ns3:TrackPointExtension>
        </extensions>
      </trkpt>
      <trkpt lat="48.4717492572963237762451171875" lon="-2.147940136492252349853515625">
        <ele>102.8000030517578125</ele>
        <time>2026-05-07T10:09:55.000Z</time>
        <extensions>
          <ns3:TrackPointExtension>
            <ns3:atemp>12.0</ns3:atemp>
            <ns3:hr>81</ns3:hr>
          </ns3:TrackPointExtension>
        </extensions>
      </trkpt>
      <trkpt lat="48.47176761366426944732666015625" lon="-2.14804113842546939849853515625">
        <ele>102.40000152587890625</ele>
        <time>2026-05-07T10:10:02.000Z</time>
        <extensions>
          <ns3:TrackPointExtension>
            <ns3:atemp>12.0</ns3:atemp>
            <ns3:hr>79</ns3:hr>
          </ns3:TrackPointExtension>
        </extensions>
      </trkpt>
      <trkpt lat="48.47177264280617237091064453125" lon="-2.14813568629324436187744140625">
        <ele>102.8000030517578125</ele>
        <time>2026-05-07T10:10:10.000Z</time>
        <extensions>
          <ns3:TrackPointExtension>
            <ns3:atemp>12.0</ns3:atemp>
            <ns3:hr>80</ns3:hr>
          </ns3:TrackPointExtension>
        </extensions>
      </trkpt>
      <trkpt lat="48.47177021205425262451171875" lon="-2.14816988445818424224853515625">
        <ele>102.59999847412109375</ele>
        <time>2026-05-07T10:10:17.000Z</time>
        <extensions>
          <ns3:TrackPointExtension>
            <ns3:atemp>12.0</ns3:atemp>
            <ns3:hr>79</ns3:hr>
          </ns3:TrackPointExtension>
        </extensions>
      </trkpt>
      <trkpt lat="48.471770547330379486083984375" lon="-2.1481998078525066375732421875">
        <ele>102.40000152587890625</ele>
        <time>2026-05-07T10:10:25.000Z</time>
        <extensions>
          <ns3:TrackPointExtension>
            <ns3:atemp>12.0</ns3:atemp>
            <ns3:hr>81</ns3:hr>
          </ns3:TrackPointExtension>
        </extensions>
      </trkpt>
      <trkpt lat="48.47177582792937755584716796875" lon="-2.1482397057116031646728515625">
        <ele>102.40000152587890625</ele>
        <time>2026-05-07T10:10:32.000Z</time>
        <extensions>
          <ns3:TrackPointExtension>
            <ns3:atemp>12.0</ns3:atemp>
            <ns3:hr>82</ns3:hr>
          </ns3:TrackPointExtension>
        </extensions>
      </trkpt>
      <trkpt lat="48.47178588621318340301513671875" lon="-2.148369960486888885498046875">
        <ele>102.59999847412109375</ele>
        <time>2026-05-07T10:10:40.000Z</time>
        <extensions>
          <ns3:TrackPointExtension>
            <ns3:atemp>12.0</ns3:atemp>
            <ns3:hr>81</ns3:hr>
          </ns3:TrackPointExtension>
        </extensions>
      </trkpt>
      <trkpt lat="48.4717626683413982391357421875" lon="-2.14843726716935634613037109375">
        <ele>103</ele>
        <time>2026-05-07T10:10:46.000Z</time>
        <extensions>
          <ns3:TrackPointExtension>
            <ns3:atemp>12.0</ns3:atemp>
            <ns3:hr>81</ns3:hr>
          </ns3:TrackPointExtension>
        </extensions>
      </trkpt>
      <trkpt lat="48.471766524016857147216796875" lon="-2.148433662950992584228515625">
        <ele>103</ele>
        <time>2026-05-07T10:10:47.000Z</time>
        <extensions>
          <ns3:TrackPointExtension>
            <ns3:atemp>12.0</ns3:atemp>
            <ns3:hr>81</ns3:hr>
          </ns3:TrackPointExtension>
        </extensions>
      </trkpt>
      <trkpt lat="48.47176509909331798553466796875" lon="-2.14843089692294597625732421875">
        <ele>103.1999969482421875</ele>
        <time>2026-05-07T10:10:52.000Z</time>
        <extensions>
          <ns3:TrackPointExtension>
            <ns3:atemp>12.0</ns3:atemp>
            <ns3:hr>81</ns3:hr>
          </ns3:TrackPointExtension>
        </extensions>
      </trkpt>
      <trkpt lat="48.47176509909331798553466796875" lon="-2.14843089692294597625732421875">
        <ele>103</ele>
        <time>2026-05-07T10:10:56.000Z</time>
        <extensions>
          <ns3:TrackPointExtension>
            <ns3:atemp>12.0</ns3:atemp>
            <ns3:hr>89</ns3:hr>
          </ns3:TrackPointExtension>
        </extensions>
      </trkpt>
      <trkpt lat="48.47176509909331798553466796875" lon="-2.14843089692294597625732421875">
        <ele>103</ele>
        <time>2026-05-07T10:10:57.000Z</time>
        <extensions>
          <ns3:TrackPointExtension>
            <ns3:atemp>12.0</ns3:atemp>
            <ns3:hr>95</ns3:hr>
          </ns3:TrackPointExtension>
        </extensions>
      </trkpt>
      <trkpt lat="48.47176509909331798553466796875" lon="-2.14843089692294597625732421875">
        <ele>103</ele>
        <time>2026-05-07T10:10:58.000Z</time>
        <extensions>
          <ns3:TrackPointExtension>
            <ns3:atemp>12.0</ns3:atemp>
            <ns3:hr>94</ns3:hr>
          </ns3:TrackPointExtension>
        </extensions>
      </trkpt>
      <trkpt lat="48.47176509909331798553466796875" lon="-2.14843089692294597625732421875">
        <ele>103.1999969482421875</ele>
        <time>2026-05-07T10:11:04.000Z</time>
        <extensions>
          <ns3:TrackPointExtension>
            <ns3:atemp>12.0</ns3:atemp>
            <ns3:hr>91</ns3:hr>
          </ns3:TrackPointExtension>
        </extensions>
      </trkpt>
      <trkpt lat="48.47176509909331798553466796875" lon="-2.14843089692294597625732421875">
        <ele>103.1999969482421875</ele>
        <time>2026-05-07T10:11:05.000Z</time>
        <extensions>
          <ns3:TrackPointExtension>
            <ns3:atemp>12.0</ns3:atemp>
            <ns3:hr>86</ns3:hr>
          </ns3:TrackPointExtension>
        </extensions>
      </trkpt>
      <trkpt lat="48.47176509909331798553466796875" lon="-2.14843089692294597625732421875">
        <ele>103</ele>
        <time>2026-05-07T10:11:06.000Z</time>
        <extensions>
          <ns3:TrackPointExtension>
            <ns3:atemp>12.0</ns3:atemp>
            <ns3:hr>82</ns3:hr>
          </ns3:TrackPointExtension>
        </extensions>
      </trkpt>
      <trkpt lat="48.47176509909331798553466796875" lon="-2.14843089692294597625732421875">
        <ele>103</ele>
        <time>2026-05-07T10:11:08.000Z</time>
        <extensions>
          <ns3:TrackPointExtension>
            <ns3:atemp>12.0</ns3:atemp>
            <ns3:hr>79</ns3:hr>
          </ns3:TrackPointExtension>
        </extensions>
      </trkpt>
      <trkpt lat="48.47176509909331798553466796875" lon="-2.14843089692294597625732421875">
        <ele>103</ele>
        <time>2026-05-07T10:11:18.000Z</time>
        <extensions>
          <ns3:TrackPointExtension>
            <ns3:atemp>12.0</ns3:atemp>
            <ns3:hr>79</ns3:hr>
          </ns3:TrackPointExtension>
        </extensions>
      </trkpt>
      <trkpt lat="48.4717566333711147308349609375" lon="-2.1484519354999065399169921875">
        <ele>102.8000030517578125</ele>
        <time>2026-05-07T10:11:28.000Z</time>
        <extensions>
          <ns3:TrackPointExtension>
            <ns3:atemp>13.0</ns3:atemp>
            <ns3:hr>81</ns3:hr>
          </ns3:TrackPointExtension>
        </extensions>
      </trkpt>
      <trkpt lat="48.471773564815521240234375" lon="-2.148456461727619171142578125">
        <ele>102.59999847412109375</ele>
        <time>2026-05-07T10:11:36.000Z</time>
        <extensions>
          <ns3:TrackPointExtension>
            <ns3:atemp>13.0</ns3:atemp>
            <ns3:hr>82</ns3:hr>
          </ns3:TrackPointExtension>
        </extensions>
      </trkpt>
      <trkpt lat="48.47178739495575428009033203125" lon="-2.14851622469723224639892578125">
        <ele>103</ele>
        <time>2026-05-07T10:11:43.000Z</time>
        <extensions>
          <ns3:TrackPointExtension>
            <ns3:atemp>13.0</ns3:atemp>
            <ns3:hr>81</ns3:hr>
          </ns3:TrackPointExtension>
        </extensions>
      </trkpt>
      <trkpt lat="48.4717856347560882568359375" lon="-2.148534916341304779052734375">
        <ele>102.8000030517578125</ele>
        <time>2026-05-07T10:11:49.000Z</time>
        <extensions>
          <ns3:TrackPointExtension>
            <ns3:atemp>13.0</ns3:atemp>
            <ns3:hr>82</ns3:hr>
          </ns3:TrackPointExtension>
        </extensions>
      </trkpt>
      <trkpt lat="48.471781946718692779541015625" lon="-2.1485595591366291046142578125">
        <ele>103</ele>
        <time>2026-05-07T10:11:56.000Z</time>
        <extensions>
          <ns3:TrackPointExtension>
            <ns3:atemp>13.0</ns3:atemp>
            <ns3:hr>82</ns3:hr>
          </ns3:TrackPointExtension>
        </extensions>
      </trkpt>
      <trkpt lat="48.47178630530834197998046875" lon="-2.1485665999352931976318359375">
        <ele>102.8000030517578125</ele>
        <time>2026-05-07T10:12:04.000Z</time>
        <extensions>
          <ns3:TrackPointExtension>
            <ns3:atemp>13.0</ns3:atemp>
            <ns3:hr>84</ns3:hr>
          </ns3:TrackPointExtension>
        </extensions>
      </trkpt>
      <trkpt lat="48.47178488038480281829833984375" lon="-2.14859250001609325408935546875">
        <ele>103.1999969482421875</ele>
        <time>2026-05-07T10:12:09.000Z</time>
        <extensions>
          <ns3:TrackPointExtension>
            <ns3:atemp>13.0</ns3:atemp>
            <ns3:hr>84</ns3:hr>
          </ns3:TrackPointExtension>
        </extensions>
      </trkpt>
      <trkpt lat="48.47178387455642223358154296875" lon="-2.148591578006744384765625">
        <ele>102.8000030517578125</ele>
        <time>2026-05-07T10:12:15.000Z</time>
        <extensions>
          <ns3:TrackPointExtension>
            <ns3:atemp>13.0</ns3:atemp>
            <ns3:hr>85</ns3:hr>
          </ns3:TrackPointExtension>
        </extensions>
      </trkpt>
      <trkpt lat="48.47179091535508632659912109375" lon="-2.14858512394130229949951171875">
        <ele>102.59999847412109375</ele>
        <time>2026-05-07T10:12:22.000Z</time>
        <extensions>
          <ns3:TrackPointExtension>
            <ns3:atemp>13.0</ns3:atemp>
            <ns3:hr>86</ns3:hr>
          </ns3:TrackPointExtension>
        </extensions>
      </trkpt>
      <trkpt lat="48.47179963253438472747802734375" lon="-2.14864295907318592071533203125">
        <ele>103</ele>
        <time>2026-05-07T10:12:30.000Z</time>
        <extensions>
          <ns3:TrackPointExtension>
            <ns3:atemp>13.0</ns3:atemp>
            <ns3:hr>86</ns3:hr>
          </ns3:TrackPointExtension>
        </extensions>
      </trkpt>
      <trkpt lat="48.4717963635921478271484375" lon="-2.1487010456621646881103515625">
        <ele>103</ele>
        <time>2026-05-07T10:12:35.000Z</time>
        <extensions>
          <ns3:TrackPointExtension>
            <ns3:atemp>13.0</ns3:atemp>
            <ns3:hr>86</ns3:hr>
          </ns3:TrackPointExtension>
        </extensions>
      </trkpt>
      <trkpt lat="48.4718005545437335968017578125" lon="-2.1487798355519771575927734375">
        <ele>103</ele>
        <time>2026-05-07T10:12:41.000Z</time>
        <extensions>
          <ns3:TrackPointExtension>
            <ns3:atemp>13.0</ns3:atemp>
            <ns3:hr>88</ns3:hr>
          </ns3:TrackPointExtension>
        </extensions>
      </trkpt>
      <trkpt lat="48.47180415876209735870361328125" lon="-2.14886658824980258941650390625">
        <ele>102.8000030517578125</ele>
        <time>2026-05-07T10:12:48.000Z</time>
        <extensions>
          <ns3:TrackPointExtension>
            <ns3:atemp>13.0</ns3:atemp>
            <ns3:hr>85</ns3:hr>
          </ns3:TrackPointExtension>
        </extensions>
      </trkpt>
      <trkpt lat="48.4718072600662708282470703125" lon="-2.14888997375965118408203125">
        <ele>103</ele>
        <time>2026-05-07T10:12:50.000Z</time>
        <extensions>
          <ns3:TrackPointExtension>
            <ns3:atemp>13.0</ns3:atemp>
            <ns3:hr>84</ns3:hr>
          </ns3:TrackPointExtension>
        </extensions>
      </trkpt>
      <trkpt lat="48.47180667333304882049560546875" lon="-2.14891419745981693267822265625">
        <ele>103.1999969482421875</ele>
        <time>2026-05-07T10:12:53.000Z</time>
        <extensions>
          <ns3:TrackPointExtension>
            <ns3:atemp>13.0</ns3:atemp>
            <ns3:hr>81</ns3:hr>
          </ns3:TrackPointExtension>
        </extensions>
      </trkpt>
      <trkpt lat="48.47180834971368312835693359375" lon="-2.14894738979637622833251953125">
        <ele>103.1999969482421875</ele>
        <time>2026-05-07T10:12:56.000Z</time>
        <extensions>
          <ns3:TrackPointExtension>
            <ns3:atemp>13.0</ns3:atemp>
            <ns3:hr>81</ns3:hr>
          </ns3:TrackPointExtension>
        </extensions>
      </trkpt>
      <trkpt lat="48.47180834971368312835693359375" lon="-2.14894738979637622833251953125">
        <ele>103.1999969482421875</ele>
        <time>2026-05-07T10:13:06.000Z</time>
        <extensions>
          <ns3:TrackPointExtension>
            <ns3:atemp>13.0</ns3:atemp>
            <ns3:hr>81</ns3:hr>
          </ns3:TrackPointExtension>
        </extensions>
      </trkpt>
      <trkpt lat="48.47180834971368312835693359375" lon="-2.14894738979637622833251953125">
        <ele>103.1999969482421875</ele>
        <time>2026-05-07T10:13:09.000Z</time>
        <extensions>
          <ns3:TrackPointExtension>
            <ns3:atemp>13.0</ns3:atemp>
            <ns3:hr>78</ns3:hr>
          </ns3:TrackPointExtension>
        </extensions>
      </trkpt>
      <trkpt lat="48.4718082658946514129638671875" lon="-2.14899801649153232574462890625">
        <ele>103.1999969482421875</ele>
        <time>2026-05-07T10:13:13.000Z</time>
        <extensions>
          <ns3:TrackPointExtension>
            <ns3:atemp>13.0</ns3:atemp>
            <ns3:hr>77</ns3:hr>
          </ns3:TrackPointExtension>
        </extensions>
      </trkpt>
      <trkpt lat="48.47181941382586956024169921875" lon="-2.14903573505580425262451171875">
        <ele>103.1999969482421875</ele>
        <time>2026-05-07T10:13:17.000Z</time>
        <extensions>
          <ns3:TrackPointExtension>
            <ns3:atemp>13.0</ns3:atemp>
            <ns3:hr>76</ns3:hr>
          </ns3:TrackPointExtension>
        </extensions>
      </trkpt>
      <trkpt lat="48.47182947210967540740966796875" lon="-2.14907077141106128692626953125">
        <ele>103.1999969482421875</ele>
        <time>2026-05-07T10:13:20.000Z</time>
        <extensions>
          <ns3:TrackPointExtension>
            <ns3:atemp>13.0</ns3:atemp>
            <ns3:hr>75</ns3:hr>
          </ns3:TrackPointExtension>
        </extensions>
      </trkpt>
      <trkpt lat="48.4718327410519123077392578125" lon="-2.1491224877536296844482421875">
        <ele>103.1999969482421875</ele>
        <time>2026-05-07T10:13:23.000Z</time>
        <extensions>
          <ns3:TrackPointExtension>
            <ns3:atemp>13.0</ns3:atemp>
            <ns3:hr>75</ns3:hr>
          </ns3:TrackPointExtension>
        </extensions>
      </trkpt>
      <trkpt lat="48.4718340821564197540283203125" lon="-2.1491747908294200897216796875">
        <ele>103.1999969482421875</ele>
        <time>2026-05-07T10:13:29.000Z</time>
        <extensions>
          <ns3:TrackPointExtension>
            <ns3:atemp>13.0</ns3:atemp>
            <ns3:hr>77</ns3:hr>
          </ns3:TrackPointExtension>
        </extensions>
      </trkpt>
      <trkpt lat="48.47183651290833950042724609375" lon="-2.14924226514995098114013671875">
        <ele>103.1999969482421875</ele>
        <time>2026-05-07T10:13:33.000Z</time>
        <extensions>
          <ns3:TrackPointExtension>
            <ns3:atemp>13.0</ns3:atemp>
            <ns3:hr>80</ns3:hr>
          </ns3:TrackPointExtension>
        </extensions>
      </trkpt>
      <trkpt lat="48.47183818928897380828857421875" lon="-2.149295993149280548095703125">
        <ele>103.1999969482421875</ele>
        <time>2026-05-07T10:13:36.000Z</time>
        <extensions>
          <ns3:TrackPointExtension>
            <ns3:atemp>13.0</ns3:atemp>
            <ns3:hr>82</ns3:hr>
          </ns3:TrackPointExtension>
        </extensions>
      </trkpt>
      <trkpt lat="48.47185143269598484039306640625" lon="-2.1494386531412601470947265625">
        <ele>102.1999969482421875</ele>
        <time>2026-05-07T10:13:45.000Z</time>
        <extensions>
          <ns3:TrackPointExtension>
            <ns3:atemp>13.0</ns3:atemp>
            <ns3:hr>83</ns3:hr>
          </ns3:TrackPointExtension>
        </extensions>
      </trkpt>
      <trkpt lat="48.47185813821852207183837890625" lon="-2.149488441646099090576171875">
        <ele>102</ele>
        <time>2026-05-07T10:13:48.000Z</time>
        <extensions>
          <ns3:TrackPointExtension>
            <ns3:atemp>13.0</ns3:atemp>
            <ns3:hr>83</ns3:hr>
          </ns3:TrackPointExtension>
        </extensions>
      </trkpt>
      <trkpt lat="48.4718659333884716033935546875" lon="-2.14956765063107013702392578125">
        <ele>101.1999969482421875</ele>
        <time>2026-05-07T10:13:53.000Z</time>
        <extensions>
          <ns3:TrackPointExtension>
            <ns3:atemp>13.0</ns3:atemp>
            <ns3:hr>83</ns3:hr>
          </ns3:TrackPointExtension>
        </extensions>
      </trkpt>
      <trkpt lat="48.471872471272945404052734375" lon="-2.14963370002806186676025390625">
        <ele>101</ele>
        <time>2026-05-07T10:13:58.000Z</time>
        <extensions>
          <ns3:TrackPointExtension>
            <ns3:atemp>13.0</ns3:atemp>
            <ns3:hr>80</ns3:hr>
          </ns3:TrackPointExtension>
        </extensions>
      </trkpt>
      <trkpt lat="48.47188227809965610504150390625" lon="-2.14971299283206462860107421875">
        <ele>101</ele>
        <time>2026-05-07T10:14:02.000Z</time>
        <extensions>
          <ns3:TrackPointExtension>
            <ns3:atemp>13.0</ns3:atemp>
            <ns3:hr>78</ns3:hr>
          </ns3:TrackPointExtension>
        </extensions>
      </trkpt>
      <trkpt lat="48.47188596613705158233642578125" lon="-2.1497313492000102996826171875">
        <ele>101</ele>
        <time>2026-05-07T10:14:03.000Z</time>
        <extensions>
          <ns3:TrackPointExtension>
            <ns3:atemp>13.0</ns3:atemp>
            <ns3:hr>77</ns3:hr>
          </ns3:TrackPointExtension>
        </extensions>
      </trkpt>
      <trkpt lat="48.47190725617110729217529296875" lon="-2.14985498227179050445556640625">
        <ele>100.8000030517578125</ele>
        <time>2026-05-07T10:14:10.000Z</time>
        <extensions>
          <ns3:TrackPointExtension>
            <ns3:atemp>13.0</ns3:atemp>
            <ns3:hr>77</ns3:hr>
          </ns3:TrackPointExtension>
        </extensions>
      </trkpt>
      <trkpt lat="48.47190910018980503082275390625" lon="-2.1499321796000003814697265625">
        <ele>100.1999969482421875</ele>
        <time>2026-05-07T10:14:16.000Z</time>
        <extensions>
          <ns3:TrackPointExtension>
            <ns3:atemp>13.0</ns3:atemp>
            <ns3:hr>78</ns3:hr>
          </ns3:TrackPointExtension>
        </extensions>
      </trkpt>
      <trkpt lat="48.4719143807888031005859375" lon="-2.149949111044406890869140625">
        <ele>99.8000030517578125</ele>
        <time>2026-05-07T10:14:19.000Z</time>
        <extensions>
          <ns3:TrackPointExtension>
            <ns3:atemp>13.0</ns3:atemp>
            <ns3:hr>78</ns3:hr>
          </ns3:TrackPointExtension>
        </extensions>
      </trkpt>
      <trkpt lat="48.4719229303300380706787109375" lon="-2.149976603686809539794921875">
        <ele>99.59999847412109375</ele>
        <time>2026-05-07T10:14:22.000Z</time>
        <extensions>
          <ns3:TrackPointExtension>
            <ns3:atemp>13.0</ns3:atemp>
            <ns3:hr>78</ns3:hr>
          </ns3:TrackPointExtension>
        </extensions>
      </trkpt>
      <trkpt lat="48.4719507582485675811767578125" lon="-2.150061763823032379150390625">
        <ele>98.8000030517578125</ele>
        <time>2026-05-07T10:14:29.000Z</time>
        <extensions>
          <ns3:TrackPointExtension>
            <ns3:atemp>13.0</ns3:atemp>
            <ns3:hr>76</ns3:hr>
          </ns3:TrackPointExtension>
        </extensions>
      </trkpt>
      <trkpt lat="48.47196576185524463653564453125" lon="-2.15010509826242923736572265625">
        <ele>98.40000152587890625</ele>
        <time>2026-05-07T10:14:33.000Z</time>
        <extensions>
          <ns3:TrackPointExtension>
            <ns3:atemp>13.0</ns3:atemp>
            <ns3:hr>76</ns3:hr>
          </ns3:TrackPointExtension>
        </extensions>
      </trkpt>
      <trkpt lat="48.47199392504990100860595703125" lon="-2.15018640272319316864013671875">
        <ele>97.8000030517578125</ele>
        <time>2026-05-07T10:14:40.000Z</time>
        <extensions>
          <ns3:TrackPointExtension>
            <ns3:atemp>13.0</ns3:atemp>
            <ns3:hr>76</ns3:hr>
          </ns3:TrackPointExtension>
        </extensions>
      </trkpt>
      <trkpt lat="48.47200649790465831756591796875" lon="-2.1502201817929744720458984375">
        <ele>97.40000152587890625</ele>
        <time>2026-05-07T10:14:43.000Z</time>
        <extensions>
          <ns3:TrackPointExtension>
            <ns3:atemp>13.0</ns3:atemp>
            <ns3:hr>79</ns3:hr>
          </ns3:TrackPointExtension>
        </extensions>
      </trkpt>
      <trkpt lat="48.4720147959887981414794921875" lon="-2.1502459980547428131103515625">
        <ele>97.1999969482421875</ele>
        <time>2026-05-07T10:14:45.000Z</time>
        <extensions>
          <ns3:TrackPointExtension>
            <ns3:atemp>13.0</ns3:atemp>
            <ns3:hr>81</ns3:hr>
          </ns3:TrackPointExtension>
        </extensions>
      </trkpt>
      <trkpt lat="48.472029380500316619873046875" lon="-2.15029050596058368682861328125">
        <ele>96.59999847412109375</ele>
        <time>2026-05-07T10:14:48.000Z</time>
        <extensions>
          <ns3:TrackPointExtension>
            <ns3:atemp>13.0</ns3:atemp>
            <ns3:hr>81</ns3:hr>
          </ns3:TrackPointExtension>
        </extensions>
      </trkpt>
      <trkpt lat="48.47206818871200084686279296875" lon="-2.15040667913854122161865234375">
        <ele>95.8000030517578125</ele>
        <time>2026-05-07T10:14:58.000Z</time>
        <extensions>
          <ns3:TrackPointExtension>
            <ns3:atemp>13.0</ns3:atemp>
            <ns3:hr>80</ns3:hr>
          </ns3:TrackPointExtension>
        </extensions>
      </trkpt>
      <trkpt lat="48.47207858227193355560302734375" lon="-2.15042361058294773101806640625">
        <ele>95.59999847412109375</ele>
        <time>2026-05-07T10:15:01.000Z</time>
        <extensions>
          <ns3:TrackPointExtension>
            <ns3:atemp>13.0</ns3:atemp>
            <ns3:hr>81</ns3:hr>
          </ns3:TrackPointExtension>
        </extensions>
      </trkpt>
      <trkpt lat="48.4720778279006481170654296875" lon="-2.15042394585907459259033203125">
        <ele>95.59999847412109375</ele>
        <time>2026-05-07T10:15:04.000Z</time>
        <extensions>
          <ns3:TrackPointExtension>
            <ns3:atemp>13.0</ns3:atemp>
            <ns3:hr>82</ns3:hr>
          </ns3:TrackPointExtension>
        </extensions>
      </trkpt>
      <trkpt lat="48.4720858745276927947998046875" lon="-2.15045261196792125701904296875">
        <ele>95.40000152587890625</ele>
        <time>2026-05-07T10:15:10.000Z</time>
        <extensions>
          <ns3:TrackPointExtension>
            <ns3:atemp>13.0</ns3:atemp>
            <ns3:hr>85</ns3:hr>
          </ns3:TrackPointExtension>
        </extensions>
      </trkpt>
      <trkpt lat="48.47209601663053035736083984375" lon="-2.15047759003937244415283203125">
        <ele>95</ele>
        <time>2026-05-07T10:15:12.000Z</time>
        <extensions>
          <ns3:TrackPointExtension>
            <ns3:atemp>13.0</ns3:atemp>
            <ns3:hr>85</ns3:hr>
          </ns3:TrackPointExtension>
        </extensions>
      </trkpt>
      <trkpt lat="48.47211353480815887451171875" lon="-2.15053014457225799560546875">
        <ele>94.59999847412109375</ele>
        <time>2026-05-07T10:15:16.000Z</time>
        <extensions>
          <ns3:TrackPointExtension>
            <ns3:atemp>13.0</ns3:atemp>
            <ns3:hr>85</ns3:hr>
          </ns3:TrackPointExtension>
        </extensions>
      </trkpt>
      <trkpt lat="48.47213742323219776153564453125" lon="-2.15061002410948276519775390625">
        <ele>94</ele>
        <time>2026-05-07T10:15:21.000Z</time>
        <extensions>
          <ns3:TrackPointExtension>
            <ns3:atemp>13.0</ns3:atemp>
            <ns3:hr>83</ns3:hr>
          </ns3:TrackPointExtension>
        </extensions>
      </trkpt>
      <trkpt lat="48.4721546061336994171142578125" lon="-2.1506553702056407928466796875">
        <ele>93.40000152587890625</ele>
        <time>2026-05-07T10:15:24.000Z</time>
        <extensions>
          <ns3:TrackPointExtension>
            <ns3:atemp>14.0</ns3:atemp>
            <ns3:hr>82</ns3:hr>
          </ns3:TrackPointExtension>
        </extensions>
      </trkpt>
      <trkpt lat="48.47216374240815639495849609375" lon="-2.15068613179028034210205078125">
        <ele>93.1999969482421875</ele>
        <time>2026-05-07T10:15:26.000Z</time>
        <extensions>
          <ns3:TrackPointExtension>
            <ns3:atemp>14.0</ns3:atemp>
            <ns3:hr>81</ns3:hr>
          </ns3:TrackPointExtension>
        </extensions>
      </trkpt>
      <trkpt lat="48.4721861220896244049072265625" lon="-2.1507562883198261260986328125">
        <ele>92.40000152587890625</ele>
        <time>2026-05-07T10:15:31.000Z</time>
        <extensions>
          <ns3:TrackPointExtension>
            <ns3:atemp>14.0</ns3:atemp>
            <ns3:hr>81</ns3:hr>
          </ns3:TrackPointExtension>
        </extensions>
      </trkpt>
      <trkpt lat="48.47218972630798816680908203125" lon="-2.150769196450710296630859375">
        <ele>92.1999969482421875</ele>
        <time>2026-05-07T10:15:32.000Z</time>
        <extensions>
          <ns3:TrackPointExtension>
            <ns3:atemp>14.0</ns3:atemp>
            <ns3:hr>80</ns3:hr>
          </ns3:TrackPointExtension>
        </extensions>
      </trkpt>
      <trkpt lat="48.4722146205604076385498046875" lon="-2.15084119699895381927490234375">
        <ele>91.40000152587890625</ele>
        <time>2026-05-07T10:15:37.000Z</time>
        <extensions>
          <ns3:TrackPointExtension>
            <ns3:atemp>14.0</ns3:atemp>
            <ns3:hr>78</ns3:hr>
          </ns3:TrackPointExtension>
        </extensions>
      </trkpt>
      <trkpt lat="48.47221948206424713134765625" lon="-2.15085066854953765869140625">
        <ele>91.40000152587890625</ele>
        <time>2026-05-07T10:15:38.000Z</time>
        <extensions>
          <ns3:TrackPointExtension>
            <ns3:atemp>14.0</ns3:atemp>
            <ns3:hr>78</ns3:hr>
          </ns3:TrackPointExtension>
        </extensions>
      </trkpt>
      <trkpt lat="48.47223331220448017120361328125" lon="-2.15088109485805034637451171875">
        <ele>90.59999847412109375</ele>
        <time>2026-05-07T10:15:43.000Z</time>
        <extensions>
          <ns3:TrackPointExtension>
            <ns3:atemp>14.0</ns3:atemp>
            <ns3:hr>78</ns3:hr>
          </ns3:TrackPointExtension>
        </extensions>
      </trkpt>
      <trkpt lat="48.47225175239145755767822265625" lon="-2.150948904454708099365234375">
        <ele>90.1999969482421875</ele>
        <time>2026-05-07T10:15:47.000Z</time>
        <extensions>
          <ns3:TrackPointExtension>
            <ns3:atemp>14.0</ns3:atemp>
            <ns3:hr>78</ns3:hr>
          </ns3:TrackPointExtension>
        </extensions>
      </trkpt>
      <trkpt lat="48.47225569188594818115234375" lon="-2.15095837600529193878173828125">
        <ele>90.1999969482421875</ele>
        <time>2026-05-07T10:15:48.000Z</time>
        <extensions>
          <ns3:TrackPointExtension>
            <ns3:atemp>14.0</ns3:atemp>
            <ns3:hr>79</ns3:hr>
          </ns3:TrackPointExtension>
        </extensions>
      </trkpt>
      <trkpt lat="48.47228787839412689208984375" lon="-2.15105242095887660980224609375">
        <ele>89.1999969482421875</ele>
        <time>2026-05-07T10:15:54.000Z</time>
        <extensions>
          <ns3:TrackPointExtension>
            <ns3:atemp>14.0</ns3:atemp>
            <ns3:hr>79</ns3:hr>
          </ns3:TrackPointExtension>
        </extensions>
      </trkpt>
      <trkpt lat="48.47231210209429264068603515625" lon="-2.15111629106104373931884765625">
        <ele>88.40000152587890625</ele>
        <time>2026-05-07T10:15:59.000Z</time>
        <extensions>
          <ns3:TrackPointExtension>
            <ns3:atemp>14.0</ns3:atemp>
            <ns3:hr>79</ns3:hr>
          </ns3:TrackPointExtension>
        </extensions>
      </trkpt>
      <trkpt lat="48.47231729887425899505615234375" lon="-2.151136659085750579833984375">
        <ele>88.1999969482421875</ele>
        <time>2026-05-07T10:16:01.000Z</time>
        <extensions>
          <ns3:TrackPointExtension>
            <ns3:atemp>14.0</ns3:atemp>
            <ns3:hr>78</ns3:hr>
          </ns3:TrackPointExtension>
        </extensions>
      </trkpt>
      <trkpt lat="48.47233255393803119659423828125" lon="-2.1511864475905895233154296875">
        <ele>87.59999847412109375</ele>
        <time>2026-05-07T10:16:04.000Z</time>
        <extensions>
          <ns3:TrackPointExtension>
            <ns3:atemp>14.0</ns3:atemp>
            <ns3:hr>76</ns3:hr>
          </ns3:TrackPointExtension>
        </extensions>
      </trkpt>
      <trkpt lat="48.4723524190485477447509765625" lon="-2.151247970759868621826171875">
        <ele>87</ele>
        <time>2026-05-07T10:16:08.000Z</time>
        <extensions>
          <ns3:TrackPointExtension>
            <ns3:atemp>14.0</ns3:atemp>
            <ns3:hr>75</ns3:hr>
          </ns3:TrackPointExtension>
        </extensions>
      </trkpt>
      <trkpt lat="48.47235518507659435272216796875" lon="-2.15125693939626216888427734375">
        <ele>86.8000030517578125</ele>
        <time>2026-05-07T10:16:09.000Z</time>
        <extensions>
          <ns3:TrackPointExtension>
            <ns3:atemp>14.0</ns3:atemp>
            <ns3:hr>75</ns3:hr>
          </ns3:TrackPointExtension>
        </extensions>
      </trkpt>
      <trkpt lat="48.472388796508312225341796875" lon="-2.15135349892079830169677734375">
        <ele>86</ele>
        <time>2026-05-07T10:16:14.000Z</time>
        <extensions>
          <ns3:TrackPointExtension>
            <ns3:atemp>14.0</ns3:atemp>
            <ns3:hr>74</ns3:hr>
          </ns3:TrackPointExtension>
        </extensions>
      </trkpt>
      <trkpt lat="48.472417630255222320556640625" lon="-2.151432372629642486572265625">
        <ele>84.8000030517578125</ele>
        <time>2026-05-07T10:16:19.000Z</time>
        <extensions>
          <ns3:TrackPointExtension>
            <ns3:atemp>14.0</ns3:atemp>
            <ns3:hr>74</ns3:hr>
          </ns3:TrackPointExtension>
        </extensions>
      </trkpt>
      <trkpt lat="48.4724241681396961212158203125" lon="-2.15145424939692020416259765625">
        <ele>84.59999847412109375</ele>
        <time>2026-05-07T10:16:20.000Z</time>
        <extensions>
          <ns3:TrackPointExtension>
            <ns3:atemp>14.0</ns3:atemp>
            <ns3:hr>74</ns3:hr>
          </ns3:TrackPointExtension>
        </extensions>
      </trkpt>
      <trkpt lat="48.472447805106639862060546875" lon="-2.15149750001728534698486328125">
        <ele>84</ele>
        <time>2026-05-07T10:16:24.000Z</time>
        <extensions>
          <ns3:TrackPointExtension>
            <ns3:atemp>14.0</ns3:atemp>
            <ns3:hr>73</ns3:hr>
          </ns3:TrackPointExtension>
        </extensions>
      </trkpt>
      <trkpt lat="48.472454510629177093505859375" lon="-2.1515146829187870025634765625">
        <ele>83.8000030517578125</ele>
        <time>2026-05-07T10:16:25.000Z</time>
        <extensions>
          <ns3:TrackPointExtension>
            <ns3:atemp>14.0</ns3:atemp>
            <ns3:hr>73</ns3:hr>
          </ns3:TrackPointExtension>
        </extensions>
      </trkpt>
      <trkpt lat="48.47248812206089496612548828125" lon="-2.15160126797854900360107421875">
        <ele>83</ele>
        <time>2026-05-07T10:16:30.000Z</time>
        <extensions>
          <ns3:TrackPointExtension>
            <ns3:atemp>14.0</ns3:atemp>
            <ns3:hr>73</ns3:hr>
          </ns3:TrackPointExtension>
        </extensions>
      </trkpt>
      <trkpt lat="48.47249616868793964385986328125" lon="-2.15163177810609340667724609375">
        <ele>82.8000030517578125</ele>
        <time>2026-05-07T10:16:32.000Z</time>
        <extensions>
          <ns3:TrackPointExtension>
            <ns3:atemp>14.0</ns3:atemp>
            <ns3:hr>73</ns3:hr>
          </ns3:TrackPointExtension>
        </extensions>
      </trkpt>
      <trkpt lat="48.47252734936773777008056640625" lon="-2.1517217159271240234375">
        <ele>82</ele>
        <time>2026-05-07T10:16:36.000Z</time>
        <extensions>
          <ns3:TrackPointExtension>
            <ns3:atemp>14.0</ns3:atemp>
            <ns3:hr>74</ns3:hr>
          </ns3:TrackPointExtension>
        </extensions>
      </trkpt>
      <trkpt lat="48.472537659108638763427734375" lon="-2.151754237711429595947265625">
        <ele>81.59999847412109375</ele>
        <time>2026-05-07T10:16:38.000Z</time>
        <extensions>
          <ns3:TrackPointExtension>
            <ns3:atemp>14.0</ns3:atemp>
            <ns3:hr>74</ns3:hr>
          </ns3:TrackPointExtension>
        </extensions>
      </trkpt>
      <trkpt lat="48.47255081869661808013916015625" lon="-2.15180293656885623931884765625">
        <ele>81.1999969482421875</ele>
        <time>2026-05-07T10:16:41.000Z</time>
        <extensions>
          <ns3:TrackPointExtension>
            <ns3:atemp>14.0</ns3:atemp>
            <ns3:hr>74</ns3:hr>
          </ns3:TrackPointExtension>
        </extensions>
      </trkpt>
      <trkpt lat="48.4725790657103061676025390625" lon="-2.15189396403729915618896484375">
        <ele>80.59999847412109375</ele>
        <time>2026-05-07T10:16:45.000Z</time>
        <extensions>
          <ns3:TrackPointExtension>
            <ns3:atemp>14.0</ns3:atemp>
            <ns3:hr>73</ns3:hr>
          </ns3:TrackPointExtension>
        </extensions>
      </trkpt>
      <trkpt lat="48.47258417867124080657958984375" lon="-2.1519106440246105194091796875">
        <ele>80.40000152587890625</ele>
        <time>2026-05-07T10:16:46.000Z</time>
        <extensions>
          <ns3:TrackPointExtension>
            <ns3:atemp>14.0</ns3:atemp>
            <ns3:hr>73</ns3:hr>
          </ns3:TrackPointExtension>
        </extensions>
      </trkpt>
      <trkpt lat="48.47261619754135608673095703125" lon="-2.152017764747142791748046875">
        <ele>79.8000030517578125</ele>
        <time>2026-05-07T10:16:52.000Z</time>
        <extensions>
          <ns3:TrackPointExtension>
            <ns3:atemp>14.0</ns3:atemp>
            <ns3:hr>72</ns3:hr>
          </ns3:TrackPointExtension>
        </extensions>
      </trkpt>
      <trkpt lat="48.47263011150062084197998046875" lon="-2.152051292359828948974609375">
        <ele>79.40000152587890625</ele>
        <time>2026-05-07T10:16:54.000Z</time>
        <extensions>
          <ns3:TrackPointExtension>
            <ns3:atemp>14.0</ns3:atemp>
            <ns3:hr>72</ns3:hr>
          </ns3:TrackPointExtension>
        </extensions>
      </trkpt>
      <trkpt lat="48.47265668213367462158203125" lon="-2.15210770256817340850830078125">
        <ele>79</ele>
        <time>2026-05-07T10:16:58.000Z</time>
        <extensions>
          <ns3:TrackPointExtension>
            <ns3:atemp>14.0</ns3:atemp>
            <ns3:hr>73</ns3:hr>
          </ns3:TrackPointExtension>
        </extensions>
      </trkpt>
      <trkpt lat="48.47269750200212001800537109375" lon="-2.15216117911040782928466796875">
        <ele>78.40000152587890625</ele>
        <time>2026-05-07T10:17:02.000Z</time>
        <extensions>
          <ns3:TrackPointExtension>
            <ns3:atemp>14.0</ns3:atemp>
            <ns3:hr>73</ns3:hr>
          </ns3:TrackPointExtension>
        </extensions>
      </trkpt>
      <trkpt lat="48.47271795384585857391357421875" lon="-2.1521942876279354095458984375">
        <ele>78.1999969482421875</ele>
        <time>2026-05-07T10:17:05.000Z</time>
        <extensions>
          <ns3:TrackPointExtension>
            <ns3:atemp>14.0</ns3:atemp>
            <ns3:hr>74</ns3:hr>
          </ns3:TrackPointExtension>
        </extensions>
      </trkpt>
      <trkpt lat="48.472728766500949859619140625" lon="-2.15220744721591472625732421875">
        <ele>77.8000030517578125</ele>
        <time>2026-05-07T10:17:10.000Z</time>
        <extensions>
          <ns3:TrackPointExtension>
            <ns3:atemp>14.0</ns3:atemp>
            <ns3:hr>74</ns3:hr>
          </ns3:TrackPointExtension>
        </extensions>
      </trkpt>
      <trkpt lat="48.47276221029460430145263671875" lon="-2.15226042084395885467529296875">
        <ele>77.59999847412109375</ele>
        <time>2026-05-07T10:17:16.000Z</time>
        <extensions>
          <ns3:TrackPointExtension>
            <ns3:atemp>14.0</ns3:atemp>
            <ns3:hr>74</ns3:hr>
          </ns3:TrackPointExtension>
        </extensions>
      </trkpt>
      <trkpt lat="48.4727969951927661895751953125" lon="-2.1523283980786800384521484375">
        <ele>77.40000152587890625</ele>
        <time>2026-05-07T10:17:20.000Z</time>
        <extensions>
          <ns3:TrackPointExtension>
            <ns3:atemp>14.0</ns3:atemp>
            <ns3:hr>74</ns3:hr>
          </ns3:TrackPointExtension>
        </extensions>
      </trkpt>
      <trkpt lat="48.472809903323650360107421875" lon="-2.15235077776014804840087890625">
        <ele>77.1999969482421875</ele>
        <time>2026-05-07T10:17:22.000Z</time>
        <extensions>
          <ns3:TrackPointExtension>
            <ns3:atemp>14.0</ns3:atemp>
            <ns3:hr>75</ns3:hr>
          </ns3:TrackPointExtension>
        </extensions>
      </trkpt>
      <trkpt lat="48.47286480478942394256591796875" lon="-2.1524410508573055267333984375">
        <ele>76.59999847412109375</ele>
        <time>2026-05-07T10:17:29.000Z</time>
        <extensions>
          <ns3:TrackPointExtension>
            <ns3:atemp>14.0</ns3:atemp>
            <ns3:hr>76</ns3:hr>
          </ns3:TrackPointExtension>
        </extensions>
      </trkpt>
      <trkpt lat="48.47288961522281169891357421875" lon="-2.15248337946832180023193359375">
        <ele>76.40000152587890625</ele>
        <time>2026-05-07T10:17:33.000Z</time>
        <extensions>
          <ns3:TrackPointExtension>
            <ns3:atemp>14.0</ns3:atemp>
            <ns3:hr>79</ns3:hr>
          </ns3:TrackPointExtension>
        </extensions>
      </trkpt>
      <trkpt lat="48.47290285862982273101806640625" lon="-2.15249679051339626312255859375">
        <ele>76</ele>
        <time>2026-05-07T10:17:35.000Z</time>
        <extensions>
          <ns3:TrackPointExtension>
            <ns3:atemp>14.0</ns3:atemp>
            <ns3:hr>80</ns3:hr>
          </ns3:TrackPointExtension>
        </extensions>
      </trkpt>
      <trkpt lat="48.47295281477272510528564453125" lon="-2.15259972028434276580810546875">
        <ele>75.59999847412109375</ele>
        <time>2026-05-07T10:17:42.000Z</time>
        <extensions>
          <ns3:TrackPointExtension>
            <ns3:atemp>14.0</ns3:atemp>
            <ns3:hr>79</ns3:hr>
          </ns3:TrackPointExtension>
        </extensions>
      </trkpt>
      <trkpt lat="48.4729642979800701141357421875" lon="-2.1526244468986988067626953125">
        <ele>75.40000152587890625</ele>
        <time>2026-05-07T10:17:44.000Z</time>
        <extensions>
          <ns3:TrackPointExtension>
            <ns3:atemp>14.0</ns3:atemp>
            <ns3:hr>79</ns3:hr>
          </ns3:TrackPointExtension>
        </extensions>
      </trkpt>
      <trkpt lat="48.4730011783540248870849609375" lon="-2.1526925079524517059326171875">
        <ele>74.8000030517578125</ele>
        <time>2026-05-07T10:17:49.000Z</time>
        <extensions>
          <ns3:TrackPointExtension>
            <ns3:atemp>14.0</ns3:atemp>
            <ns3:hr>79</ns3:hr>
          </ns3:TrackPointExtension>
        </extensions>
      </trkpt>
      <trkpt lat="48.4730440936982631683349609375" lon="-2.15277113020420074462890625">
        <ele>74.40000152587890625</ele>
        <time>2026-05-07T10:17:55.000Z</time>
        <extensions>
          <ns3:TrackPointExtension>
            <ns3:atemp>14.0</ns3:atemp>
            <ns3:hr>79</ns3:hr>
          </ns3:TrackPointExtension>
        </extensions>
      </trkpt>
      <trkpt lat="48.47305825911462306976318359375" lon="-2.15279853902757167816162109375">
        <ele>74.1999969482421875</ele>
        <time>2026-05-07T10:17:57.000Z</time>
        <extensions>
          <ns3:TrackPointExtension>
            <ns3:atemp>14.0</ns3:atemp>
            <ns3:hr>79</ns3:hr>
          </ns3:TrackPointExtension>
        </extensions>
      </trkpt>
      <trkpt lat="48.47310318611562252044677734375" lon="-2.15289585292339324951171875">
        <ele>73.59999847412109375</ele>
        <time>2026-05-07T10:18:04.000Z</time>
        <extensions>
          <ns3:TrackPointExtension>
            <ns3:atemp>14.0</ns3:atemp>
            <ns3:hr>78</ns3:hr>
          </ns3:TrackPointExtension>
        </extensions>
      </trkpt>
      <trkpt lat="48.4731265716254711151123046875" lon="-2.152936421334743499755859375">
        <ele>73.40000152587890625</ele>
        <time>2026-05-07T10:18:07.000Z</time>
        <extensions>
          <ns3:TrackPointExtension>
            <ns3:atemp>14.0</ns3:atemp>
            <ns3:hr>78</ns3:hr>
          </ns3:TrackPointExtension>
        </extensions>
      </trkpt>
      <trkpt lat="48.4731701575219631195068359375" lon="-2.1530160494148731231689453125">
        <ele>72.59999847412109375</ele>
        <time>2026-05-07T10:18:13.000Z</time>
        <extensions>
          <ns3:TrackPointExtension>
            <ns3:atemp>14.0</ns3:atemp>
            <ns3:hr>78</ns3:hr>
          </ns3:TrackPointExtension>
        </extensions>
      </trkpt>
      <trkpt lat="48.4732100553810596466064453125" lon="-2.15309073217213153839111328125">
        <ele>72.1999969482421875</ele>
        <time>2026-05-07T10:18:18.000Z</time>
        <extensions>
          <ns3:TrackPointExtension>
            <ns3:atemp>14.0</ns3:atemp>
            <ns3:hr>77</ns3:hr>
          </ns3:TrackPointExtension>
        </extensions>
      </trkpt>
      <trkpt lat="48.473232686519622802734375" lon="-2.1531387604773044586181640625">
        <ele>72</ele>
        <time>2026-05-07T10:18:21.000Z</time>
        <extensions>
          <ns3:TrackPointExtension>
            <ns3:atemp>14.0</ns3:atemp>
            <ns3:hr>76</ns3:hr>
          </ns3:TrackPointExtension>
        </extensions>
      </trkpt>
      <trkpt lat="48.47325992770493030548095703125" lon="-2.153184525668621063232421875">
        <ele>71.8000030517578125</ele>
        <time>2026-05-07T10:18:24.000Z</time>
        <extensions>
          <ns3:TrackPointExtension>
            <ns3:atemp>14.0</ns3:atemp>
            <ns3:hr>76</ns3:hr>
          </ns3:TrackPointExtension>
        </extensions>
      </trkpt>
      <trkpt lat="48.4733046032488346099853515625" lon="-2.15327479876577854156494140625">
        <ele>71.40000152587890625</ele>
        <time>2026-05-07T10:18:30.000Z</time>
        <extensions>
          <ns3:TrackPointExtension>
            <ns3:atemp>14.0</ns3:atemp>
            <ns3:hr>76</ns3:hr>
          </ns3:TrackPointExtension>
        </extensions>
      </trkpt>
      <trkpt lat="48.47331918776035308837890625" lon="-2.1533040516078472137451171875">
        <ele>71.1999969482421875</ele>
        <time>2026-05-07T10:18:32.000Z</time>
        <extensions>
          <ns3:TrackPointExtension>
            <ns3:atemp>14.0</ns3:atemp>
            <ns3:hr>75</ns3:hr>
          </ns3:TrackPointExtension>
        </extensions>
      </trkpt>
      <trkpt lat="48.47335011698305606842041015625" lon="-2.1533592045307159423828125">
        <ele>70.59999847412109375</ele>
        <time>2026-05-07T10:18:37.000Z</time>
        <extensions>
          <ns3:TrackPointExtension>
            <ns3:atemp>14.0</ns3:atemp>
            <ns3:hr>76</ns3:hr>
          </ns3:TrackPointExtension>
        </extensions>
      </trkpt>
      <trkpt lat="48.47334492020308971405029296875" lon="-2.15335727669298648834228515625">
        <ele>70.40000152587890625</ele>
        <time>2026-05-07T10:18:49.000Z</time>
        <extensions>
          <ns3:TrackPointExtension>
            <ns3:atemp>14.0</ns3:atemp>
            <ns3:hr>78</ns3:hr>
          </ns3:TrackPointExtension>
        </extensions>
      </trkpt>
      <trkpt lat="48.47334492020308971405029296875" lon="-2.15335727669298648834228515625">
        <ele>70.59999847412109375</ele>
        <time>2026-05-07T10:18:57.000Z</time>
        <extensions>
          <ns3:TrackPointExtension>
            <ns3:atemp>14.0</ns3:atemp>
            <ns3:hr>74</ns3:hr>
          </ns3:TrackPointExtension>
        </extensions>
      </trkpt>
      <trkpt lat="48.47336386330425739288330078125" lon="-2.15339616872370243072509765625">
        <ele>70.40000152587890625</ele>
        <time>2026-05-07T10:19:02.000Z</time>
        <extensions>
          <ns3:TrackPointExtension>
            <ns3:atemp>14.0</ns3:atemp>
            <ns3:hr>73</ns3:hr>
          </ns3:TrackPointExtension>
        </extensions>
      </trkpt>
      <trkpt lat="48.473380543291568756103515625" lon="-2.153425253927707672119140625">
        <ele>70.1999969482421875</ele>
        <time>2026-05-07T10:19:04.000Z</time>
        <extensions>
          <ns3:TrackPointExtension>
            <ns3:atemp>14.0</ns3:atemp>
            <ns3:hr>69</ns3:hr>
          </ns3:TrackPointExtension>
        </extensions>
      </trkpt>
      <trkpt lat="48.473391272127628326416015625" lon="-2.15344511903822422027587890625">
        <ele>70.1999969482421875</ele>
        <time>2026-05-07T10:19:06.000Z</time>
        <extensions>
          <ns3:TrackPointExtension>
            <ns3:atemp>14.0</ns3:atemp>
            <ns3:hr>66</ns3:hr>
          </ns3:TrackPointExtension>
        </extensions>
      </trkpt>
      <trkpt lat="48.47340962849557399749755859375" lon="-2.15348132885992527008056640625">
        <ele>70.1999969482421875</ele>
        <time>2026-05-07T10:19:09.000Z</time>
        <extensions>
          <ns3:TrackPointExtension>
            <ns3:atemp>14.0</ns3:atemp>
            <ns3:hr>66</ns3:hr>
          </ns3:TrackPointExtension>
        </extensions>
      </trkpt>
      <trkpt lat="48.4734514541923999786376953125" lon="-2.15357118286192417144775390625">
        <ele>70</ele>
        <time>2026-05-07T10:19:15.000Z</time>
        <extensions>
          <ns3:TrackPointExtension>
            <ns3:atemp>14.0</ns3:atemp>
            <ns3:hr>71</ns3:hr>
          </ns3:TrackPointExtension>
        </extensions>
      </trkpt>
      <trkpt lat="48.47345707006752490997314453125" lon="-2.15358274988830089569091796875">
        <ele>69.8000030517578125</ele>
        <time>2026-05-07T10:19:16.000Z</time>
        <extensions>
          <ns3:TrackPointExtension>
            <ns3:atemp>14.0</ns3:atemp>
            <ns3:hr>75</ns3:hr>
          </ns3:TrackPointExtension>
        </extensions>
      </trkpt>
      <trkpt lat="48.47346444614231586456298828125" lon="-2.153600268065929412841796875">
        <ele>69.8000030517578125</ele>
        <time>2026-05-07T10:19:18.000Z</time>
        <extensions>
          <ns3:TrackPointExtension>
            <ns3:atemp>14.0</ns3:atemp>
            <ns3:hr>76</ns3:hr>
          </ns3:TrackPointExtension>
        </extensions>
      </trkpt>
      <trkpt lat="48.47351356409490108489990234375" lon="-2.15371216647326946258544921875">
        <ele>69.1999969482421875</ele>
        <time>2026-05-07T10:19:28.000Z</time>
        <extensions>
          <ns3:TrackPointExtension>
            <ns3:atemp>15.0</ns3:atemp>
            <ns3:hr>75</ns3:hr>
          </ns3:TrackPointExtension>
        </extensions>
      </trkpt>
      <trkpt lat="48.4735359437763690948486328125" lon="-2.153764553368091583251953125">
        <ele>69.1999969482421875</ele>
        <time>2026-05-07T10:19:32.000Z</time>
        <extensions>
          <ns3:TrackPointExtension>
            <ns3:atemp>15.0</ns3:atemp>
            <ns3:hr>73</ns3:hr>
          </ns3:TrackPointExtension>
        </extensions>
      </trkpt>
      <trkpt lat="48.47357894293963909149169921875" lon="-2.153864800930023193359375">
        <ele>69.1999969482421875</ele>
        <time>2026-05-07T10:19:39.000Z</time>
        <extensions>
          <ns3:TrackPointExtension>
            <ns3:atemp>15.0</ns3:atemp>
            <ns3:hr>74</ns3:hr>
          </ns3:TrackPointExtension>
        </extensions>
      </trkpt>
      <trkpt lat="48.47362495958805084228515625" lon="-2.15396429412066936492919921875">
        <ele>69</ele>
        <time>2026-05-07T10:19:45.000Z</time>
        <extensions>
          <ns3:TrackPointExtension>
            <ns3:atemp>15.0</ns3:atemp>
            <ns3:hr>74</ns3:hr>
          </ns3:TrackPointExtension>
        </extensions>
      </trkpt>
      <trkpt lat="48.473678268492221832275390625" lon="-2.15408516116440296173095703125">
        <ele>68.40000152587890625</ele>
        <time>2026-05-07T10:19:52.000Z</time>
        <extensions>
          <ns3:TrackPointExtension>
            <ns3:atemp>15.0</ns3:atemp>
            <ns3:hr>73</ns3:hr>
          </ns3:TrackPointExtension>
        </extensions>
      </trkpt>
      <trkpt lat="48.4737049229443073272705078125" lon="-2.154127992689609527587890625">
        <ele>68</ele>
        <time>2026-05-07T10:19:55.000Z</time>
        <extensions>
          <ns3:TrackPointExtension>
            <ns3:atemp>15.0</ns3:atemp>
            <ns3:hr>73</ns3:hr>
          </ns3:TrackPointExtension>
        </extensions>
      </trkpt>
      <trkpt lat="48.47374188713729381561279296875" lon="-2.1541938744485378265380859375">
        <ele>67.8000030517578125</ele>
        <time>2026-05-07T10:20:00.000Z</time>
        <extensions>
          <ns3:TrackPointExtension>
            <ns3:atemp>15.0</ns3:atemp>
            <ns3:hr>74</ns3:hr>
          </ns3:TrackPointExtension>
        </extensions>
      </trkpt>
      <trkpt lat="48.47376636229455471038818359375" lon="-2.15423670597374439239501953125">
        <ele>67.59999847412109375</ele>
        <time>2026-05-07T10:20:04.000Z</time>
        <extensions>
          <ns3:TrackPointExtension>
            <ns3:atemp>15.0</ns3:atemp>
            <ns3:hr>74</ns3:hr>
          </ns3:TrackPointExtension>
        </extensions>
      </trkpt>
      <trkpt lat="48.47378195263445377349853515625" lon="-2.1542537212371826171875">
        <ele>67.59999847412109375</ele>
        <time>2026-05-07T10:20:08.000Z</time>
        <extensions>
          <ns3:TrackPointExtension>
            <ns3:atemp>15.0</ns3:atemp>
            <ns3:hr>73</ns3:hr>
          </ns3:TrackPointExtension>
        </extensions>
      </trkpt>
      <trkpt lat="48.47381807863712310791015625" lon="-2.15429822914302349090576171875">
        <ele>67.1999969482421875</ele>
        <time>2026-05-07T10:20:17.000Z</time>
        <extensions>
          <ns3:TrackPointExtension>
            <ns3:atemp>15.0</ns3:atemp>
            <ns3:hr>74</ns3:hr>
          </ns3:TrackPointExtension>
        </extensions>
      </trkpt>
      <trkpt lat="48.4738494269549846649169921875" lon="-2.15437802486121654510498046875">
        <ele>67.40000152587890625</ele>
        <time>2026-05-07T10:20:23.000Z</time>
        <extensions>
          <ns3:TrackPointExtension>
            <ns3:atemp>15.0</ns3:atemp>
            <ns3:hr>74</ns3:hr>
          </ns3:TrackPointExtension>
        </extensions>
      </trkpt>
      <trkpt lat="48.47388873808085918426513671875" lon="-2.15446100570261478424072265625">
        <ele>67.1999969482421875</ele>
        <time>2026-05-07T10:20:29.000Z</time>
        <extensions>
          <ns3:TrackPointExtension>
            <ns3:atemp>15.0</ns3:atemp>
            <ns3:hr>73</ns3:hr>
          </ns3:TrackPointExtension>
        </extensions>
      </trkpt>
      <trkpt lat="48.4739047475159168243408203125" lon="-2.154491432011127471923828125">
        <ele>67</ele>
        <time>2026-05-07T10:20:32.000Z</time>
        <extensions>
          <ns3:TrackPointExtension>
            <ns3:atemp>15.0</ns3:atemp>
            <ns3:hr>73</ns3:hr>
          </ns3:TrackPointExtension>
        </extensions>
      </trkpt>
      <trkpt lat="48.4739302285015583038330078125" lon="-2.15455186553299427032470703125">
        <ele>66.8000030517578125</ele>
        <time>2026-05-07T10:20:35.000Z</time>
        <extensions>
          <ns3:TrackPointExtension>
            <ns3:atemp>15.0</ns3:atemp>
            <ns3:hr>73</ns3:hr>
          </ns3:TrackPointExtension>
        </extensions>
      </trkpt>
      <trkpt lat="48.4739664383232593536376953125" lon="-2.15463836677372455596923828125">
        <ele>66.59999847412109375</ele>
        <time>2026-05-07T10:20:41.000Z</time>
        <extensions>
          <ns3:TrackPointExtension>
            <ns3:atemp>15.0</ns3:atemp>
            <ns3:hr>72</ns3:hr>
          </ns3:TrackPointExtension>
        </extensions>
      </trkpt>
      <trkpt lat="48.4739976190030574798583984375" lon="-2.15469955466687679290771484375">
        <ele>66.1999969482421875</ele>
        <time>2026-05-07T10:20:47.000Z</time>
        <extensions>
          <ns3:TrackPointExtension>
            <ns3:atemp>15.0</ns3:atemp>
            <ns3:hr>72</ns3:hr>
          </ns3:TrackPointExtension>
        </extensions>
      </trkpt>
      <trkpt lat="48.4740130417048931121826171875" lon="-2.154732160270214080810546875">
        <ele>66</ele>
        <time>2026-05-07T10:20:49.000Z</time>
        <extensions>
          <ns3:TrackPointExtension>
            <ns3:atemp>15.0</ns3:atemp>
            <ns3:hr>72</ns3:hr>
          </ns3:TrackPointExtension>
        </extensions>
      </trkpt>
      <trkpt lat="48.474053107202053070068359375" lon="-2.1547584794461727142333984375">
        <ele>65.59999847412109375</ele>
        <time>2026-05-07T10:20:54.000Z</time>
        <extensions>
          <ns3:TrackPointExtension>
            <ns3:atemp>15.0</ns3:atemp>
            <ns3:hr>71</ns3:hr>
          </ns3:TrackPointExtension>
        </extensions>
      </trkpt>
      <trkpt lat="48.4741142950952053070068359375" lon="-2.154809273779392242431640625">
        <ele>65</ele>
        <time>2026-05-07T10:21:01.000Z</time>
        <extensions>
          <ns3:TrackPointExtension>
            <ns3:atemp>15.0</ns3:atemp>
            <ns3:hr>72</ns3:hr>
          </ns3:TrackPointExtension>
        </extensions>
      </trkpt>
      <trkpt lat="48.47413315437734127044677734375" lon="-2.15482545085251331329345703125">
        <ele>65</ele>
        <time>2026-05-07T10:21:04.000Z</time>
        <extensions>
          <ns3:TrackPointExtension>
            <ns3:atemp>15.0</ns3:atemp>
            <ns3:hr>72</ns3:hr>
          </ns3:TrackPointExtension>
        </extensions>
      </trkpt>
      <trkpt lat="48.474148325622081756591796875" lon="-2.15484858490526676177978515625">
        <ele>64.8000030517578125</ele>
        <time>2026-05-07T10:21:10.000Z</time>
        <extensions>
          <ns3:TrackPointExtension>
            <ns3:atemp>15.0</ns3:atemp>
            <ns3:hr>71</ns3:hr>
          </ns3:TrackPointExtension>
        </extensions>
      </trkpt>
      <trkpt lat="48.4741781651973724365234375" lon="-2.15488202869892120361328125">
        <ele>64.8000030517578125</ele>
        <time>2026-05-07T10:21:18.000Z</time>
        <extensions>
          <ns3:TrackPointExtension>
            <ns3:atemp>15.0</ns3:atemp>
            <ns3:hr>67</ns3:hr>
          </ns3:TrackPointExtension>
        </extensions>
      </trkpt>
      <trkpt lat="48.4741773270070552825927734375" lon="-2.15487800538539886474609375">
        <ele>64.59999847412109375</ele>
        <time>2026-05-07T10:21:19.000Z</time>
        <extensions>
          <ns3:TrackPointExtension>
            <ns3:atemp>15.0</ns3:atemp>
            <ns3:hr>65</ns3:hr>
          </ns3:TrackPointExtension>
        </extensions>
      </trkpt>
      <trkpt lat="48.47417875193059444427490234375" lon="-2.154874987900257110595703125">
        <ele>64.59999847412109375</ele>
        <time>2026-05-07T10:21:20.000Z</time>
        <extensions>
          <ns3:TrackPointExtension>
            <ns3:atemp>15.0</ns3:atemp>
            <ns3:hr>62</ns3:hr>
          </ns3:TrackPointExtension>
        </extensions>
      </trkpt>
      <trkpt lat="48.4741728007793426513671875" lon="-2.1548637561500072479248046875">
        <ele>64.59999847412109375</ele>
        <time>2026-05-07T10:21:22.000Z</time>
        <extensions>
          <ns3:TrackPointExtension>
            <ns3:atemp>14.0</ns3:atemp>
            <ns3:hr>59</ns3:hr>
          </ns3:TrackPointExtension>
        </extensions>
      </trkpt>
      <trkpt lat="48.474153690040111541748046875" lon="-2.15484254993498325347900390625">
        <ele>64.40000152587890625</ele>
        <time>2026-05-07T10:21:25.000Z</time>
        <extensions>
          <ns3:TrackPointExtension>
            <ns3:atemp>14.0</ns3:atemp>
            <ns3:hr>59</ns3:hr>
          </ns3:TrackPointExtension>
        </extensions>
      </trkpt>
      <trkpt lat="48.47406559623777866363525390625" lon="-2.1547511033713817596435546875">
        <ele>65</ele>
        <time>2026-05-07T10:21:35.000Z</time>
        <extensions>
          <ns3:TrackPointExtension>
            <ns3:atemp>14.0</ns3:atemp>
            <ns3:hr>60</ns3:hr>
          </ns3:TrackPointExtension>
        </extensions>
      </trkpt>
      <trkpt lat="48.47397155128419399261474609375" lon="-2.15472553856670856475830078125">
        <ele>65.40000152587890625</ele>
        <time>2026-05-07T10:21:43.000Z</time>
        <extensions>
          <ns3:TrackPointExtension>
            <ns3:atemp>14.0</ns3:atemp>
            <ns3:hr>61</ns3:hr>
          </ns3:TrackPointExtension>
        </extensions>
      </trkpt>
      <trkpt lat="48.47391891293227672576904296875" lon="-2.15472956188023090362548828125">
        <ele>65.8000030517578125</ele>
        <time>2026-05-07T10:21:48.000Z</time>
        <extensions>
          <ns3:TrackPointExtension>
            <ns3:atemp>14.0</ns3:atemp>
            <ns3:hr>64</ns3:hr>
          </ns3:TrackPointExtension>
        </extensions>
      </trkpt>
      <trkpt lat="48.47386728040874004364013671875" lon="-2.1547393687069416046142578125">
        <ele>65.1999969482421875</ele>
        <time>2026-05-07T10:21:53.000Z</time>
        <extensions>
          <ns3:TrackPointExtension>
            <ns3:atemp>14.0</ns3:atemp>
            <ns3:hr>66</ns3:hr>
          </ns3:TrackPointExtension>
        </extensions>
      </trkpt>
      <trkpt lat="48.47374993376433849334716796875" lon="-2.15478454716503620147705078125">
        <ele>65</ele>
        <time>2026-05-07T10:22:03.000Z</time>
        <extensions>
          <ns3:TrackPointExtension>
            <ns3:atemp>14.0</ns3:atemp>
            <ns3:hr>67</ns3:hr>
          </ns3:TrackPointExtension>
        </extensions>
      </trkpt>
      <trkpt lat="48.473667204380035400390625" lon="-2.154822684824466705322265625">
        <ele>64.8000030517578125</ele>
        <time>2026-05-07T10:22:11.000Z</time>
        <extensions>
          <ns3:TrackPointExtension>
            <ns3:atemp>14.0</ns3:atemp>
            <ns3:hr>70</ns3:hr>
          </ns3:TrackPointExtension>
        </extensions>
      </trkpt>
      <trkpt lat="48.4736452437937259674072265625" lon="-2.15483601205050945281982421875">
        <ele>64.59999847412109375</ele>
        <time>2026-05-07T10:22:13.000Z</time>
        <extensions>
          <ns3:TrackPointExtension>
            <ns3:atemp>14.0</ns3:atemp>
            <ns3:hr>71</ns3:hr>
          </ns3:TrackPointExtension>
        </extensions>
      </trkpt>
      <trkpt lat="48.4735473431646823883056640625" lon="-2.15485478751361370086669921875">
        <ele>64.59999847412109375</ele>
        <time>2026-05-07T10:22:21.000Z</time>
        <extensions>
          <ns3:TrackPointExtension>
            <ns3:atemp>14.0</ns3:atemp>
            <ns3:hr>71</ns3:hr>
          </ns3:TrackPointExtension>
        </extensions>
      </trkpt>
      <trkpt lat="48.47353284247219562530517578125" lon="-2.15485864318907260894775390625">
        <ele>64.59999847412109375</ele>
        <time>2026-05-07T10:22:22.000Z</time>
        <extensions>
          <ns3:TrackPointExtension>
            <ns3:atemp>14.0</ns3:atemp>
            <ns3:hr>71</ns3:hr>
          </ns3:TrackPointExtension>
        </extensions>
      </trkpt>
      <trkpt lat="48.47346939146518707275390625" lon="-2.1548724733293056488037109375">
        <ele>64.1999969482421875</ele>
        <time>2026-05-07T10:22:27.000Z</time>
        <extensions>
          <ns3:TrackPointExtension>
            <ns3:atemp>14.0</ns3:atemp>
            <ns3:hr>70</ns3:hr>
          </ns3:TrackPointExtension>
        </extensions>
      </trkpt>
      <trkpt lat="48.47331491298973560333251953125" lon="-2.1549003012478351593017578125">
        <ele>64.8000030517578125</ele>
        <time>2026-05-07T10:22:39.000Z</time>
        <extensions>
          <ns3:TrackPointExtension>
            <ns3:atemp>14.0</ns3:atemp>
            <ns3:hr>70</ns3:hr>
          </ns3:TrackPointExtension>
        </extensions>
      </trkpt>
      <trkpt lat="48.47322120331227779388427734375" lon="-2.15495302341878414154052734375">
        <ele>64</ele>
        <time>2026-05-07T10:22:48.000Z</time>
        <extensions>
          <ns3:TrackPointExtension>
            <ns3:atemp>14.0</ns3:atemp>
            <ns3:hr>71</ns3:hr>
          </ns3:TrackPointExtension>
        </extensions>
      </trkpt>
      <trkpt lat="48.473188094794750213623046875" lon="-2.155023179948329925537109375">
        <ele>64</ele>
        <time>2026-05-07T10:22:53.000Z</time>
        <extensions>
          <ns3:TrackPointExtension>
            <ns3:atemp>14.0</ns3:atemp>
            <ns3:hr>72</ns3:hr>
          </ns3:TrackPointExtension>
        </extensions>
      </trkpt>
      <trkpt lat="48.47319002263247966766357421875" lon="-2.15505846776068210601806640625">
        <ele>63.799999237060546875</ele>
        <time>2026-05-07T10:22:55.000Z</time>
        <extensions>
          <ns3:TrackPointExtension>
            <ns3:atemp>14.0</ns3:atemp>
            <ns3:hr>71</ns3:hr>
          </ns3:TrackPointExtension>
        </extensions>
      </trkpt>
      <trkpt lat="48.4732301719486713409423828125" lon="-2.15522040612995624542236328125">
        <ele>63.59999847412109375</ele>
        <time>2026-05-07T10:23:04.000Z</time>
        <extensions>
          <ns3:TrackPointExtension>
            <ns3:atemp>14.0</ns3:atemp>
            <ns3:hr>71</ns3:hr>
          </ns3:TrackPointExtension>
        </extensions>
      </trkpt>
      <trkpt lat="48.47326629795134067535400390625" lon="-2.15537094511091709136962890625">
        <ele>63.200000762939453125</ele>
        <time>2026-05-07T10:23:12.000Z</time>
        <extensions>
          <ns3:TrackPointExtension>
            <ns3:atemp>14.0</ns3:atemp>
            <ns3:hr>69</ns3:hr>
          </ns3:TrackPointExtension>
        </extensions>
      </trkpt>
      <trkpt lat="48.473289012908935546875" lon="-2.15547136031091213226318359375">
        <ele>62.799999237060546875</ele>
        <time>2026-05-07T10:23:17.000Z</time>
        <extensions>
          <ns3:TrackPointExtension>
            <ns3:atemp>14.0</ns3:atemp>
            <ns3:hr>69</ns3:hr>
          </ns3:TrackPointExtension>
        </extensions>
      </trkpt>
      <trkpt lat="48.47330736927688121795654296875" lon="-2.1555242501199245452880859375">
        <ele>62.40000152587890625</ele>
        <time>2026-05-07T10:23:23.000Z</time>
        <extensions>
          <ns3:TrackPointExtension>
            <ns3:atemp>14.0</ns3:atemp>
            <ns3:hr>67</ns3:hr>
          </ns3:TrackPointExtension>
        </extensions>
      </trkpt>
      <trkpt lat="48.473307453095912933349609375" lon="-2.15552709996700286865234375">
        <ele>62.40000152587890625</ele>
        <time>2026-05-07T10:23:25.000Z</time>
        <extensions>
          <ns3:TrackPointExtension>
            <ns3:atemp>14.0</ns3:atemp>
            <ns3:hr>67</ns3:hr>
          </ns3:TrackPointExtension>
        </extensions>
      </trkpt>
      <trkpt lat="48.473309464752674102783203125" lon="-2.15555350296199321746826171875">
        <ele>62.200000762939453125</ele>
        <time>2026-05-07T10:23:28.000Z</time>
        <extensions>
          <ns3:TrackPointExtension>
            <ns3:atemp>14.0</ns3:atemp>
            <ns3:hr>66</ns3:hr>
          </ns3:TrackPointExtension>
        </extensions>
      </trkpt>
      <trkpt lat="48.47331038676202297210693359375" lon="-2.1555812470614910125732421875">
        <ele>62.200000762939453125</ele>
        <time>2026-05-07T10:23:30.000Z</time>
        <extensions>
          <ns3:TrackPointExtension>
            <ns3:atemp>14.0</ns3:atemp>
            <ns3:hr>66</ns3:hr>
          </ns3:TrackPointExtension>
        </extensions>
      </trkpt>
      <trkpt lat="48.4733092971146106719970703125" lon="-2.1556913852691650390625">
        <ele>62.40000152587890625</ele>
        <time>2026-05-07T10:23:37.000Z</time>
        <extensions>
          <ns3:TrackPointExtension>
            <ns3:atemp>14.0</ns3:atemp>
            <ns3:hr>68</ns3:hr>
          </ns3:TrackPointExtension>
        </extensions>
      </trkpt>
      <trkpt lat="48.473328910768032073974609375" lon="-2.15580873191356658935546875">
        <ele>62</ele>
        <time>2026-05-07T10:23:45.000Z</time>
        <extensions>
          <ns3:TrackPointExtension>
            <ns3:atemp>14.0</ns3:atemp>
            <ns3:hr>66</ns3:hr>
          </ns3:TrackPointExtension>
        </extensions>
      </trkpt>
      <trkpt lat="48.4733367897570133209228515625" lon="-2.15588760562241077423095703125">
        <ele>62</ele>
        <time>2026-05-07T10:23:51.000Z</time>
        <extensions>
          <ns3:TrackPointExtension>
            <ns3:atemp>14.0</ns3:atemp>
            <ns3:hr>66</ns3:hr>
          </ns3:TrackPointExtension>
        </extensions>
      </trkpt>
      <trkpt lat="48.47334600985050201416015625" lon="-2.1559609472751617431640625">
        <ele>61.799999237060546875</ele>
        <time>2026-05-07T10:23:57.000Z</time>
        <extensions>
          <ns3:TrackPointExtension>
            <ns3:atemp>14.0</ns3:atemp>
            <ns3:hr>66</ns3:hr>
          </ns3:TrackPointExtension>
        </extensions>
      </trkpt>
      <trkpt lat="48.473347686231136322021484375" lon="-2.155973017215728759765625">
        <ele>61.799999237060546875</ele>
        <time>2026-05-07T10:23:58.000Z</time>
        <extensions>
          <ns3:TrackPointExtension>
            <ns3:atemp>14.0</ns3:atemp>
            <ns3:hr>66</ns3:hr>
          </ns3:TrackPointExtension>
        </extensions>
      </trkpt>
      <trkpt lat="48.47335816361010074615478515625" lon="-2.15603931806981563568115234375">
        <ele>61.59999847412109375</ele>
        <time>2026-05-07T10:24:06.000Z</time>
        <extensions>
          <ns3:TrackPointExtension>
            <ns3:atemp>14.0</ns3:atemp>
            <ns3:hr>65</ns3:hr>
          </ns3:TrackPointExtension>
        </extensions>
      </trkpt>
      <trkpt lat="48.4733485244214534759521484375" lon="-2.1560063771903514862060546875">
        <ele>61.40000152587890625</ele>
        <time>2026-05-07T10:24:11.000Z</time>
        <extensions>
          <ns3:TrackPointExtension>
            <ns3:atemp>14.0</ns3:atemp>
            <ns3:hr>65</ns3:hr>
          </ns3:TrackPointExtension>
        </extensions>
      </trkpt>
      <trkpt lat="48.47334927879273891448974609375" lon="-2.155954577028751373291015625">
        <ele>61.799999237060546875</ele>
        <time>2026-05-07T10:24:18.000Z</time>
        <extensions>
          <ns3:TrackPointExtension>
            <ns3:atemp>14.0</ns3:atemp>
            <ns3:hr>67</ns3:hr>
          </ns3:TrackPointExtension>
        </extensions>
      </trkpt>
      <trkpt lat="48.47334927879273891448974609375" lon="-2.155954577028751373291015625">
        <ele>62</ele>
        <time>2026-05-07T10:24:22.000Z</time>
        <extensions>
          <ns3:TrackPointExtension>
            <ns3:atemp>15.0</ns3:atemp>
            <ns3:hr>68</ns3:hr>
          </ns3:TrackPointExtension>
        </extensions>
      </trkpt>
      <trkpt lat="48.47334927879273891448974609375" lon="-2.155954577028751373291015625">
        <ele>62.200000762939453125</ele>
        <time>2026-05-07T10:24:30.000Z</time>
        <extensions>
          <ns3:TrackPointExtension>
            <ns3:atemp>15.0</ns3:atemp>
            <ns3:hr>73</ns3:hr>
          </ns3:TrackPointExtension>
        </extensions>
      </trkpt>
      <trkpt lat="48.47334927879273891448974609375" lon="-2.155954577028751373291015625">
        <ele>62</ele>
        <time>2026-05-07T10:24:31.000Z</time>
        <extensions>
          <ns3:TrackPointExtension>
            <ns3:atemp>15.0</ns3:atemp>
            <ns3:hr>78</ns3:hr>
          </ns3:TrackPointExtension>
        </extensions>
      </trkpt>
      <trkpt lat="48.47334927879273891448974609375" lon="-2.155954577028751373291015625">
        <ele>62</ele>
        <time>2026-05-07T10:24:32.000Z</time>
        <extensions>
          <ns3:TrackPointExtension>
            <ns3:atemp>15.0</ns3:atemp>
            <ns3:hr>82</ns3:hr>
          </ns3:TrackPointExtension>
        </extensions>
      </trkpt>
      <trkpt lat="48.47335162572562694549560546875" lon="-2.155969999730587005615234375">
        <ele>61.799999237060546875</ele>
        <time>2026-05-07T10:24:35.000Z</time>
        <extensions>
          <ns3:TrackPointExtension>
            <ns3:atemp>15.0</ns3:atemp>
            <ns3:hr>85</ns3:hr>
          </ns3:TrackPointExtension>
        </extensions>
      </trkpt>
      <trkpt lat="48.47335145808756351470947265625" lon="-2.15597595088183879852294921875">
        <ele>61.59999847412109375</ele>
        <time>2026-05-07T10:24:36.000Z</time>
        <extensions>
          <ns3:TrackPointExtension>
            <ns3:atemp>15.0</ns3:atemp>
            <ns3:hr>85</ns3:hr>
          </ns3:TrackPointExtension>
        </extensions>
      </trkpt>
      <trkpt lat="48.47335514612495899200439453125" lon="-2.15600025840103626251220703125">
        <ele>61.59999847412109375</ele>
        <time>2026-05-07T10:24:44.000Z</time>
        <extensions>
          <ns3:TrackPointExtension>
            <ns3:atemp>15.0</ns3:atemp>
            <ns3:hr>86</ns3:hr>
          </ns3:TrackPointExtension>
        </extensions>
      </trkpt>
      <trkpt lat="48.47335548140108585357666015625" lon="-2.156035713851451873779296875">
        <ele>62.200000762939453125</ele>
        <time>2026-05-07T10:24:57.000Z</time>
        <extensions>
          <ns3:TrackPointExtension>
            <ns3:atemp>15.0</ns3:atemp>
            <ns3:hr>84</ns3:hr>
          </ns3:TrackPointExtension>
        </extensions>
      </trkpt>
      <trkpt lat="48.47334777005016803741455078125" lon="-2.15612615458667278289794921875">
        <ele>61.799999237060546875</ele>
        <time>2026-05-07T10:25:03.000Z</time>
        <extensions>
          <ns3:TrackPointExtension>
            <ns3:atemp>15.0</ns3:atemp>
            <ns3:hr>83</ns3:hr>
          </ns3:TrackPointExtension>
        </extensions>
      </trkpt>
      <trkpt lat="48.4732928685843944549560546875" lon="-2.15620544739067554473876953125">
        <ele>61.799999237060546875</ele>
        <time>2026-05-07T10:25:11.000Z</time>
        <extensions>
          <ns3:TrackPointExtension>
            <ns3:atemp>15.0</ns3:atemp>
            <ns3:hr>83</ns3:hr>
          </ns3:TrackPointExtension>
        </extensions>
      </trkpt>
      <trkpt lat="48.47323629073798656463623046875" lon="-2.15622841380536556243896484375">
        <ele>62.799999237060546875</ele>
        <time>2026-05-07T10:25:16.000Z</time>
        <extensions>
          <ns3:TrackPointExtension>
            <ns3:atemp>15.0</ns3:atemp>
            <ns3:hr>84</ns3:hr>
          </ns3:TrackPointExtension>
        </extensions>
      </trkpt>
      <trkpt lat="48.47321248613297939300537109375" lon="-2.1562353707849979400634765625">
        <ele>62.59999847412109375</ele>
        <time>2026-05-07T10:25:18.000Z</time>
        <extensions>
          <ns3:TrackPointExtension>
            <ns3:atemp>15.0</ns3:atemp>
            <ns3:hr>84</ns3:hr>
          </ns3:TrackPointExtension>
        </extensions>
      </trkpt>
      <trkpt lat="48.47315330989658832550048828125" lon="-2.15624853037297725677490234375">
        <ele>63.59999847412109375</ele>
        <time>2026-05-07T10:25:24.000Z</time>
        <extensions>
          <ns3:TrackPointExtension>
            <ns3:atemp>15.0</ns3:atemp>
            <ns3:hr>86</ns3:hr>
          </ns3:TrackPointExtension>
        </extensions>
      </trkpt>
      <trkpt lat="48.47313453443348407745361328125" lon="-2.1562568284571170806884765625">
        <ele>63.799999237060546875</ele>
        <time>2026-05-07T10:25:26.000Z</time>
        <extensions>
          <ns3:TrackPointExtension>
            <ns3:atemp>15.0</ns3:atemp>
            <ns3:hr>89</ns3:hr>
          </ns3:TrackPointExtension>
        </extensions>
      </trkpt>
      <trkpt lat="48.473104946315288543701171875" lon="-2.15627015568315982818603515625">
        <ele>64.1999969482421875</ele>
        <time>2026-05-07T10:25:29.000Z</time>
        <extensions>
          <ns3:TrackPointExtension>
            <ns3:atemp>15.0</ns3:atemp>
            <ns3:hr>92</ns3:hr>
          </ns3:TrackPointExtension>
        </extensions>
      </trkpt>
      <trkpt lat="48.47306060604751110076904296875" lon="-2.15628105215728282928466796875">
        <ele>64.40000152587890625</ele>
        <time>2026-05-07T10:25:32.000Z</time>
        <extensions>
          <ns3:TrackPointExtension>
            <ns3:atemp>15.0</ns3:atemp>
            <ns3:hr>95</ns3:hr>
          </ns3:TrackPointExtension>
        </extensions>
      </trkpt>
      <trkpt lat="48.47304099239408969879150390625" lon="-2.15628884732723236083984375">
        <ele>64.59999847412109375</ele>
        <time>2026-05-07T10:25:34.000Z</time>
        <extensions>
          <ns3:TrackPointExtension>
            <ns3:atemp>15.0</ns3:atemp>
            <ns3:hr>96</ns3:hr>
          </ns3:TrackPointExtension>
        </extensions>
      </trkpt>
      <trkpt lat="48.473010398447513580322265625" lon="-2.15630049817264080047607421875">
        <ele>64.8000030517578125</ele>
        <time>2026-05-07T10:25:37.000Z</time>
        <extensions>
          <ns3:TrackPointExtension>
            <ns3:atemp>15.0</ns3:atemp>
            <ns3:hr>96</ns3:hr>
          </ns3:TrackPointExtension>
        </extensions>
      </trkpt>
      <trkpt lat="48.47297360189259052276611328125" lon="-2.15631139464676380157470703125">
        <ele>65.1999969482421875</ele>
        <time>2026-05-07T10:25:41.000Z</time>
        <extensions>
          <ns3:TrackPointExtension>
            <ns3:atemp>15.0</ns3:atemp>
            <ns3:hr>99</ns3:hr>
          </ns3:TrackPointExtension>
        </extensions>
      </trkpt>
      <trkpt lat="48.472926579415798187255859375" lon="-2.15634006075561046600341796875">
        <ele>65.1999969482421875</ele>
        <time>2026-05-07T10:25:47.000Z</time>
        <extensions>
          <ns3:TrackPointExtension>
            <ns3:atemp>15.0</ns3:atemp>
            <ns3:hr>102</ns3:hr>
          </ns3:TrackPointExtension>
        </extensions>
      </trkpt>
      <trkpt lat="48.47286899574100971221923828125" lon="-2.15636922977864742279052734375">
        <ele>65.59999847412109375</ele>
        <time>2026-05-07T10:25:53.000Z</time>
        <extensions>
          <ns3:TrackPointExtension>
            <ns3:atemp>15.0</ns3:atemp>
            <ns3:hr>102</ns3:hr>
          </ns3:TrackPointExtension>
        </extensions>
      </trkpt>
      <trkpt lat="48.4728030301630496978759765625" lon="-2.1564100496470928192138671875">
        <ele>65.8000030517578125</ele>
        <time>2026-05-07T10:25:59.000Z</time>
        <extensions>
          <ns3:TrackPointExtension>
            <ns3:atemp>15.0</ns3:atemp>
            <ns3:hr>104</ns3:hr>
          </ns3:TrackPointExtension>
        </extensions>
      </trkpt>
      <trkpt lat="48.47278366796672344207763671875" lon="-2.1564217843115329742431640625">
        <ele>66</ele>
        <time>2026-05-07T10:26:01.000Z</time>
        <extensions>
          <ns3:TrackPointExtension>
            <ns3:atemp>15.0</ns3:atemp>
            <ns3:hr>105</ns3:hr>
          </ns3:TrackPointExtension>
        </extensions>
      </trkpt>
      <trkpt lat="48.4727192111313343048095703125" lon="-2.15645849704742431640625">
        <ele>66</ele>
        <time>2026-05-07T10:26:07.000Z</time>
        <extensions>
          <ns3:TrackPointExtension>
            <ns3:atemp>15.0</ns3:atemp>
            <ns3:hr>106</ns3:hr>
          </ns3:TrackPointExtension>
        </extensions>
      </trkpt>
      <trkpt lat="48.4726266749203205108642578125" lon="-2.1564828045666217803955078125">
        <ele>67</ele>
        <time>2026-05-07T10:26:15.000Z</time>
        <extensions>
          <ns3:TrackPointExtension>
            <ns3:atemp>15.0</ns3:atemp>
            <ns3:hr>108</ns3:hr>
          </ns3:TrackPointExtension>
        </extensions>
      </trkpt>
      <trkpt lat="48.47252349369227886199951171875" lon="-2.15649026446044445037841796875">
        <ele>67.8000030517578125</ele>
        <time>2026-05-07T10:26:24.000Z</time>
        <extensions>
          <ns3:TrackPointExtension>
            <ns3:atemp>15.0</ns3:atemp>
            <ns3:hr>110</ns3:hr>
          </ns3:TrackPointExtension>
        </extensions>
      </trkpt>
      <trkpt lat="48.47251075319945812225341796875" lon="-2.1564918570220470428466796875">
        <ele>68</ele>
        <time>2026-05-07T10:26:25.000Z</time>
        <extensions>
          <ns3:TrackPointExtension>
            <ns3:atemp>15.0</ns3:atemp>
            <ns3:hr>110</ns3:hr>
          </ns3:TrackPointExtension>
        </extensions>
      </trkpt>
      <trkpt lat="48.47241670824587345123291015625" lon="-2.15649646706879138946533203125">
        <ele>68.40000152587890625</ele>
        <time>2026-05-07T10:26:33.000Z</time>
        <extensions>
          <ns3:TrackPointExtension>
            <ns3:atemp>15.0</ns3:atemp>
            <ns3:hr>109</ns3:hr>
          </ns3:TrackPointExtension>
        </extensions>
      </trkpt>
      <trkpt lat="48.4723480604588985443115234375" lon="-2.1564992330968379974365234375">
        <ele>69</ele>
        <time>2026-05-07T10:26:39.000Z</time>
        <extensions>
          <ns3:TrackPointExtension>
            <ns3:atemp>15.0</ns3:atemp>
            <ns3:hr>110</ns3:hr>
          </ns3:TrackPointExtension>
        </extensions>
      </trkpt>
      <trkpt lat="48.4723245911300182342529296875" lon="-2.156503088772296905517578125">
        <ele>69.1999969482421875</ele>
        <time>2026-05-07T10:26:41.000Z</time>
        <extensions>
          <ns3:TrackPointExtension>
            <ns3:atemp>15.0</ns3:atemp>
            <ns3:hr>110</ns3:hr>
          </ns3:TrackPointExtension>
        </extensions>
      </trkpt>
      <trkpt lat="48.47220204770565032958984375" lon="-2.15650937519967555999755859375">
        <ele>70</ele>
        <time>2026-05-07T10:26:51.000Z</time>
        <extensions>
          <ns3:TrackPointExtension>
            <ns3:atemp>15.0</ns3:atemp>
            <ns3:hr>111</ns3:hr>
          </ns3:TrackPointExtension>
        </extensions>
      </trkpt>
      <trkpt lat="48.47210674546658992767333984375" lon="-2.1565099619328975677490234375">
        <ele>70.40000152587890625</ele>
        <time>2026-05-07T10:26:59.000Z</time>
        <extensions>
          <ns3:TrackPointExtension>
            <ns3:atemp>15.0</ns3:atemp>
            <ns3:hr>112</ns3:hr>
          </ns3:TrackPointExtension>
        </extensions>
      </trkpt>
      <trkpt lat="48.47202091477811336517333984375" lon="-2.15652362443506717681884765625">
        <ele>71</ele>
        <time>2026-05-07T10:27:06.000Z</time>
        <extensions>
          <ns3:TrackPointExtension>
            <ns3:atemp>15.0</ns3:atemp>
            <ns3:hr>111</ns3:hr>
          </ns3:TrackPointExtension>
        </extensions>
      </trkpt>
      <trkpt lat="48.4719976969063282012939453125" lon="-2.15652245096862316131591796875">
        <ele>71.1999969482421875</ele>
        <time>2026-05-07T10:27:08.000Z</time>
        <extensions>
          <ns3:TrackPointExtension>
            <ns3:atemp>15.0</ns3:atemp>
            <ns3:hr>110</ns3:hr>
          </ns3:TrackPointExtension>
        </extensions>
      </trkpt>
      <trkpt lat="48.4719004668295383453369140625" lon="-2.1565260551869869232177734375">
        <ele>71.8000030517578125</ele>
        <time>2026-05-07T10:27:16.000Z</time>
        <extensions>
          <ns3:TrackPointExtension>
            <ns3:atemp>15.0</ns3:atemp>
            <ns3:hr>111</ns3:hr>
          </ns3:TrackPointExtension>
        </extensions>
      </trkpt>
      <trkpt lat="48.4719071723520755767822265625" lon="-2.1565270610153675079345703125">
        <ele>72</ele>
        <time>2026-05-07T10:27:18.000Z</time>
        <extensions>
          <ns3:TrackPointExtension>
            <ns3:atemp>15.0</ns3:atemp>
            <ns3:hr>111</ns3:hr>
          </ns3:TrackPointExtension>
        </extensions>
      </trkpt>
      <trkpt lat="48.47190926782786846160888671875" lon="-2.156529240310192108154296875">
        <ele>72</ele>
        <time>2026-05-07T10:27:19.000Z</time>
        <extensions>
          <ns3:TrackPointExtension>
            <ns3:atemp>15.0</ns3:atemp>
            <ns3:hr>111</ns3:hr>
          </ns3:TrackPointExtension>
        </extensions>
      </trkpt>
      <trkpt lat="48.47190834581851959228515625" lon="-2.15653032995760440826416015625">
        <ele>72.1999969482421875</ele>
        <time>2026-05-07T10:27:20.000Z</time>
        <extensions>
          <ns3:TrackPointExtension>
            <ns3:atemp>15.0</ns3:atemp>
            <ns3:hr>111</ns3:hr>
          </ns3:TrackPointExtension>
        </extensions>
      </trkpt>
      <trkpt lat="48.47186970524489879608154296875" lon="-2.1565280668437480926513671875">
        <ele>72.1999969482421875</ele>
        <time>2026-05-07T10:27:29.000Z</time>
        <extensions>
          <ns3:TrackPointExtension>
            <ns3:atemp>15.0</ns3:atemp>
            <ns3:hr>111</ns3:hr>
          </ns3:TrackPointExtension>
        </extensions>
      </trkpt>
      <trkpt lat="48.47180533222854137420654296875" lon="-2.15654072351753711700439453125">
        <ele>72</ele>
        <time>2026-05-07T10:27:37.000Z</time>
        <extensions>
          <ns3:TrackPointExtension>
            <ns3:atemp>15.0</ns3:atemp>
            <ns3:hr>109</ns3:hr>
          </ns3:TrackPointExtension>
        </extensions>
      </trkpt>
      <trkpt lat="48.47173609770834445953369140625" lon="-2.156549356877803802490234375">
        <ele>72.8000030517578125</ele>
        <time>2026-05-07T10:27:44.000Z</time>
        <extensions>
          <ns3:TrackPointExtension>
            <ns3:atemp>15.0</ns3:atemp>
            <ns3:hr>108</ns3:hr>
          </ns3:TrackPointExtension>
        </extensions>
      </trkpt>
      <trkpt lat="48.4716674499213695526123046875" lon="-2.156554721295833587646484375">
        <ele>73.1999969482421875</ele>
        <time>2026-05-07T10:27:50.000Z</time>
        <extensions>
          <ns3:TrackPointExtension>
            <ns3:atemp>15.0</ns3:atemp>
            <ns3:hr>110</ns3:hr>
          </ns3:TrackPointExtension>
        </extensions>
      </trkpt>
      <trkpt lat="48.47162193618714809417724609375" lon="-2.1565659530460834503173828125">
        <ele>73.40000152587890625</ele>
        <time>2026-05-07T10:27:54.000Z</time>
        <extensions>
          <ns3:TrackPointExtension>
            <ns3:atemp>15.0</ns3:atemp>
            <ns3:hr>110</ns3:hr>
          </ns3:TrackPointExtension>
        </extensions>
      </trkpt>
      <trkpt lat="48.4715105406939983367919921875" lon="-2.15658866800367832183837890625">
        <ele>74</ele>
        <time>2026-05-07T10:28:04.000Z</time>
        <extensions>
          <ns3:TrackPointExtension>
            <ns3:atemp>15.0</ns3:atemp>
            <ns3:hr>110</ns3:hr>
          </ns3:TrackPointExtension>
        </extensions>
      </trkpt>
      <trkpt lat="48.47141691483557224273681640625" lon="-2.15661666356027126312255859375">
        <ele>73.8000030517578125</ele>
        <time>2026-05-07T10:28:12.000Z</time>
        <extensions>
          <ns3:TrackPointExtension>
            <ns3:atemp>15.0</ns3:atemp>
            <ns3:hr>110</ns3:hr>
          </ns3:TrackPointExtension>
        </extensions>
      </trkpt>
      <trkpt lat="48.4713372029364109039306640625" lon="-2.15664247982203960418701171875">
        <ele>74.40000152587890625</ele>
        <time>2026-05-07T10:28:19.000Z</time>
        <extensions>
          <ns3:TrackPointExtension>
            <ns3:atemp>15.0</ns3:atemp>
            <ns3:hr>110</ns3:hr>
          </ns3:TrackPointExtension>
        </extensions>
      </trkpt>
      <trkpt lat="48.47132471390068531036376953125" lon="-2.1566470898687839508056640625">
        <ele>74.59999847412109375</ele>
        <time>2026-05-07T10:28:20.000Z</time>
        <extensions>
          <ns3:TrackPointExtension>
            <ns3:atemp>15.0</ns3:atemp>
            <ns3:hr>110</ns3:hr>
          </ns3:TrackPointExtension>
        </extensions>
      </trkpt>
      <trkpt lat="48.47125598229467868804931640625" lon="-2.1566849760711193084716796875">
        <ele>74.59999847412109375</ele>
        <time>2026-05-07T10:28:29.000Z</time>
        <extensions>
          <ns3:TrackPointExtension>
            <ns3:atemp>15.0</ns3:atemp>
            <ns3:hr>110</ns3:hr>
          </ns3:TrackPointExtension>
        </extensions>
      </trkpt>
      <trkpt lat="48.471209295094013214111328125" lon="-2.156698219478130340576171875">
        <ele>75</ele>
        <time>2026-05-07T10:28:33.000Z</time>
        <extensions>
          <ns3:TrackPointExtension>
            <ns3:atemp>15.0</ns3:atemp>
            <ns3:hr>106</ns3:hr>
          </ns3:TrackPointExtension>
        </extensions>
      </trkpt>
      <trkpt lat="48.4711709059774875640869140625" lon="-2.15672110207378864288330078125">
        <ele>74.59999847412109375</ele>
        <time>2026-05-07T10:28:37.000Z</time>
        <extensions>
          <ns3:TrackPointExtension>
            <ns3:atemp>15.0</ns3:atemp>
            <ns3:hr>106</ns3:hr>
          </ns3:TrackPointExtension>
        </extensions>
      </trkpt>
      <trkpt lat="48.47108566202223300933837890625" lon="-2.15676032938063144683837890625">
        <ele>74.8000030517578125</ele>
        <time>2026-05-07T10:28:46.000Z</time>
        <extensions>
          <ns3:TrackPointExtension>
            <ns3:atemp>15.0</ns3:atemp>
            <ns3:hr>104</ns3:hr>
          </ns3:TrackPointExtension>
        </extensions>
      </trkpt>
      <trkpt lat="48.47101382911205291748046875" lon="-2.15679167769849300384521484375">
        <ele>75.40000152587890625</ele>
        <time>2026-05-07T10:28:53.000Z</time>
        <extensions>
          <ns3:TrackPointExtension>
            <ns3:atemp>15.0</ns3:atemp>
            <ns3:hr>105</ns3:hr>
          </ns3:TrackPointExtension>
        </extensions>
      </trkpt>
      <trkpt lat="48.4709836542606353759765625" lon="-2.15680810622870922088623046875">
        <ele>75.8000030517578125</ele>
        <time>2026-05-07T10:28:56.000Z</time>
        <extensions>
          <ns3:TrackPointExtension>
            <ns3:atemp>15.0</ns3:atemp>
            <ns3:hr>105</ns3:hr>
          </ns3:TrackPointExtension>
        </extensions>
      </trkpt>
      <trkpt lat="48.4709150902926921844482421875" lon="-2.15683509595692157745361328125">
        <ele>76</ele>
        <time>2026-05-07T10:29:02.000Z</time>
        <extensions>
          <ns3:TrackPointExtension>
            <ns3:atemp>15.0</ns3:atemp>
            <ns3:hr>105</ns3:hr>
          </ns3:TrackPointExtension>
        </extensions>
      </trkpt>
      <trkpt lat="48.4708316065371036529541015625" lon="-2.156870551407337188720703125">
        <ele>76.1999969482421875</ele>
        <time>2026-05-07T10:29:09.000Z</time>
        <extensions>
          <ns3:TrackPointExtension>
            <ns3:atemp>15.0</ns3:atemp>
            <ns3:hr>105</ns3:hr>
          </ns3:TrackPointExtension>
        </extensions>
      </trkpt>
      <trkpt lat="48.470786511898040771484375" lon="-2.1569139696657657623291015625">
        <ele>76.59999847412109375</ele>
        <time>2026-05-07T10:29:15.000Z</time>
        <extensions>
          <ns3:TrackPointExtension>
            <ns3:atemp>15.0</ns3:atemp>
            <ns3:hr>106</ns3:hr>
          </ns3:TrackPointExtension>
        </extensions>
      </trkpt>
      <trkpt lat="48.470778129994869232177734375" lon="-2.15692847035825252532958984375">
        <ele>76.59999847412109375</ele>
        <time>2026-05-07T10:29:17.000Z</time>
        <extensions>
          <ns3:TrackPointExtension>
            <ns3:atemp>15.0</ns3:atemp>
            <ns3:hr>106</ns3:hr>
          </ns3:TrackPointExtension>
        </extensions>
      </trkpt>
      <trkpt lat="48.47076111473143100738525390625" lon="-2.15693056583404541015625">
        <ele>76.8000030517578125</ele>
        <time>2026-05-07T10:29:19.000Z</time>
        <extensions>
          <ns3:TrackPointExtension>
            <ns3:atemp>15.0</ns3:atemp>
            <ns3:hr>105</ns3:hr>
          </ns3:TrackPointExtension>
        </extensions>
      </trkpt>
      <trkpt lat="48.470721133053302764892578125" lon="-2.15694473125040531158447265625">
        <ele>77.1999969482421875</ele>
        <time>2026-05-07T10:29:23.000Z</time>
        <extensions>
          <ns3:TrackPointExtension>
            <ns3:atemp>15.0</ns3:atemp>
            <ns3:hr>104</ns3:hr>
          </ns3:TrackPointExtension>
        </extensions>
      </trkpt>
      <trkpt lat="48.4707068838179111480712890625" lon="-2.156950347125530242919921875">
        <ele>77.1999969482421875</ele>
        <time>2026-05-07T10:29:24.000Z</time>
        <extensions>
          <ns3:TrackPointExtension>
            <ns3:atemp>14.0</ns3:atemp>
            <ns3:hr>104</ns3:hr>
          </ns3:TrackPointExtension>
        </extensions>
      </trkpt>
      <trkpt lat="48.4706549160182476043701171875" lon="-2.15698261745274066925048828125">
        <ele>77.40000152587890625</ele>
        <time>2026-05-07T10:29:29.000Z</time>
        <extensions>
          <ns3:TrackPointExtension>
            <ns3:atemp>14.0</ns3:atemp>
            <ns3:hr>104</ns3:hr>
          </ns3:TrackPointExtension>
        </extensions>
      </trkpt>
      <trkpt lat="48.47058660350739955902099609375" lon="-2.15701983310282230377197265625">
        <ele>77.40000152587890625</ele>
        <time>2026-05-07T10:29:35.000Z</time>
        <extensions>
          <ns3:TrackPointExtension>
            <ns3:atemp>14.0</ns3:atemp>
            <ns3:hr>105</ns3:hr>
          </ns3:TrackPointExtension>
        </extensions>
      </trkpt>
      <trkpt lat="48.470544107258319854736328125" lon="-2.1570343337953090667724609375">
        <ele>77.59999847412109375</ele>
        <time>2026-05-07T10:29:39.000Z</time>
        <extensions>
          <ns3:TrackPointExtension>
            <ns3:atemp>14.0</ns3:atemp>
            <ns3:hr>105</ns3:hr>
          </ns3:TrackPointExtension>
        </extensions>
      </trkpt>
      <trkpt lat="48.470500521361827850341796875" lon="-2.15705595910549163818359375">
        <ele>78</ele>
        <time>2026-05-07T10:29:43.000Z</time>
        <extensions>
          <ns3:TrackPointExtension>
            <ns3:atemp>14.0</ns3:atemp>
            <ns3:hr>105</ns3:hr>
          </ns3:TrackPointExtension>
        </extensions>
      </trkpt>
      <trkpt lat="48.470434807240962982177734375" lon="-2.1570856310427188873291015625">
        <ele>78.1999969482421875</ele>
        <time>2026-05-07T10:29:49.000Z</time>
        <extensions>
          <ns3:TrackPointExtension>
            <ns3:atemp>14.0</ns3:atemp>
            <ns3:hr>105</ns3:hr>
          </ns3:TrackPointExtension>
        </extensions>
      </trkpt>
      <trkpt lat="48.47036733292043209075927734375" lon="-2.15712075121700763702392578125">
        <ele>78.1999969482421875</ele>
        <time>2026-05-07T10:29:55.000Z</time>
        <extensions>
          <ns3:TrackPointExtension>
            <ns3:atemp>14.0</ns3:atemp>
            <ns3:hr>105</ns3:hr>
          </ns3:TrackPointExtension>
        </extensions>
      </trkpt>
      <trkpt lat="48.47029843367636203765869140625" lon="-2.15712393634021282196044921875">
        <ele>78.59999847412109375</ele>
        <time>2026-05-07T10:30:01.000Z</time>
        <extensions>
          <ns3:TrackPointExtension>
            <ns3:atemp>14.0</ns3:atemp>
            <ns3:hr>106</ns3:hr>
          </ns3:TrackPointExtension>
        </extensions>
      </trkpt>
      <trkpt lat="48.470287956297397613525390625" lon="-2.1571245230734348297119140625">
        <ele>78.59999847412109375</ele>
        <time>2026-05-07T10:30:02.000Z</time>
        <extensions>
          <ns3:TrackPointExtension>
            <ns3:atemp>14.0</ns3:atemp>
            <ns3:hr>106</ns3:hr>
          </ns3:TrackPointExtension>
        </extensions>
      </trkpt>
      <trkpt lat="48.47020572982728481292724609375" lon="-2.157111279666423797607421875">
        <ele>78.40000152587890625</ele>
        <time>2026-05-07T10:30:10.000Z</time>
        <extensions>
          <ns3:TrackPointExtension>
            <ns3:atemp>14.0</ns3:atemp>
            <ns3:hr>106</ns3:hr>
          </ns3:TrackPointExtension>
        </extensions>
      </trkpt>
      <trkpt lat="48.47017756663262844085693359375" lon="-2.15709258802235126495361328125">
        <ele>78.8000030517578125</ele>
        <time>2026-05-07T10:30:17.000Z</time>
        <extensions>
          <ns3:TrackPointExtension>
            <ns3:atemp>14.0</ns3:atemp>
            <ns3:hr>107</ns3:hr>
          </ns3:TrackPointExtension>
        </extensions>
      </trkpt>
      <trkpt lat="48.47014772705733776092529296875" lon="-2.1570675261318683624267578125">
        <ele>78.59999847412109375</ele>
        <time>2026-05-07T10:30:24.000Z</time>
        <extensions>
          <ns3:TrackPointExtension>
            <ns3:atemp>15.0</ns3:atemp>
            <ns3:hr>108</ns3:hr>
          </ns3:TrackPointExtension>
        </extensions>
      </trkpt>
      <trkpt lat="48.470143117010593414306640625" lon="-2.15705906040966510772705078125">
        <ele>79</ele>
        <time>2026-05-07T10:30:30.000Z</time>
        <extensions>
          <ns3:TrackPointExtension>
            <ns3:atemp>15.0</ns3:atemp>
            <ns3:hr>105</ns3:hr>
          </ns3:TrackPointExtension>
        </extensions>
      </trkpt>
      <trkpt lat="48.4701426140964031219482421875" lon="-2.1570521034300327301025390625">
        <ele>78.8000030517578125</ele>
        <time>2026-05-07T10:30:31.000Z</time>
        <extensions>
          <ns3:TrackPointExtension>
            <ns3:atemp>15.0</ns3:atemp>
            <ns3:hr>104</ns3:hr>
          </ns3:TrackPointExtension>
        </extensions>
      </trkpt>
      <trkpt lat="48.470106236636638641357421875" lon="-2.157008349895477294921875">
        <ele>79</ele>
        <time>2026-05-07T10:30:37.000Z</time>
        <extensions>
          <ns3:TrackPointExtension>
            <ns3:atemp>15.0</ns3:atemp>
            <ns3:hr>104</ns3:hr>
          </ns3:TrackPointExtension>
        </extensions>
      </trkpt>
      <trkpt lat="48.47005493938922882080078125" lon="-2.15694137848913669586181640625">
        <ele>79.40000152587890625</ele>
        <time>2026-05-07T10:30:45.000Z</time>
        <extensions>
          <ns3:TrackPointExtension>
            <ns3:atemp>15.0</ns3:atemp>
            <ns3:hr>103</ns3:hr>
          </ns3:TrackPointExtension>
        </extensions>
      </trkpt>
      <trkpt lat="48.4699966013431549072265625" lon="-2.156843058764934539794921875">
        <ele>79.59999847412109375</ele>
        <time>2026-05-07T10:30:55.000Z</time>
        <extensions>
          <ns3:TrackPointExtension>
            <ns3:atemp>15.0</ns3:atemp>
            <ns3:hr>100</ns3:hr>
          </ns3:TrackPointExtension>
        </extensions>
      </trkpt>
      <trkpt lat="48.46999333240091800689697265625" lon="-2.1568341739475727081298828125">
        <ele>79.8000030517578125</ele>
        <time>2026-05-07T10:30:56.000Z</time>
        <extensions>
          <ns3:TrackPointExtension>
            <ns3:atemp>15.0</ns3:atemp>
            <ns3:hr>99</ns3:hr>
          </ns3:TrackPointExtension>
        </extensions>
      </trkpt>
      <trkpt lat="48.46997841261327266693115234375" lon="-2.15680894441902637481689453125">
        <ele>81</ele>
        <time>2026-05-07T10:30:59.000Z</time>
        <extensions>
          <ns3:TrackPointExtension>
            <ns3:atemp>15.0</ns3:atemp>
            <ns3:hr>97</ns3:hr>
          </ns3:TrackPointExtension>
        </extensions>
      </trkpt>
      <trkpt lat="48.4699585475027561187744140625" lon="-2.15677432715892791748046875">
        <ele>80.59999847412109375</ele>
        <time>2026-05-07T10:31:02.000Z</time>
        <extensions>
          <ns3:TrackPointExtension>
            <ns3:atemp>15.0</ns3:atemp>
            <ns3:hr>96</ns3:hr>
          </ns3:TrackPointExtension>
        </extensions>
      </trkpt>
      <trkpt lat="48.46993449144065380096435546875" lon="-2.15672713704407215118408203125">
        <ele>80.8000030517578125</ele>
        <time>2026-05-07T10:31:07.000Z</time>
        <extensions>
          <ns3:TrackPointExtension>
            <ns3:atemp>15.0</ns3:atemp>
            <ns3:hr>97</ns3:hr>
          </ns3:TrackPointExtension>
        </extensions>
      </trkpt>
      <trkpt lat="48.46989660523831844329833984375" lon="-2.1566578187048435211181640625">
        <ele>81.59999847412109375</ele>
        <time>2026-05-07T10:31:14.000Z</time>
        <extensions>
          <ns3:TrackPointExtension>
            <ns3:atemp>15.0</ns3:atemp>
            <ns3:hr>98</ns3:hr>
          </ns3:TrackPointExtension>
        </extensions>
      </trkpt>
      <trkpt lat="48.469866178929805755615234375" lon="-2.156606018543243408203125">
        <ele>81.59999847412109375</ele>
        <time>2026-05-07T10:31:21.000Z</time>
        <extensions>
          <ns3:TrackPointExtension>
            <ns3:atemp>15.0</ns3:atemp>
            <ns3:hr>98</ns3:hr>
          </ns3:TrackPointExtension>
        </extensions>
      </trkpt>
      <trkpt lat="48.4698356688022613525390625" lon="-2.156556062400341033935546875">
        <ele>82</ele>
        <time>2026-05-07T10:31:25.000Z</time>
        <extensions>
          <ns3:TrackPointExtension>
            <ns3:atemp>15.0</ns3:atemp>
            <ns3:hr>98</ns3:hr>
          </ns3:TrackPointExtension>
        </extensions>
      </trkpt>
      <trkpt lat="48.46979878842830657958984375" lon="-2.1564975567162036895751953125">
        <ele>82</ele>
        <time>2026-05-07T10:31:29.000Z</time>
        <extensions>
          <ns3:TrackPointExtension>
            <ns3:atemp>15.0</ns3:atemp>
            <ns3:hr>98</ns3:hr>
          </ns3:TrackPointExtension>
        </extensions>
      </trkpt>
      <trkpt lat="48.46975143067538738250732421875" lon="-2.15640678070485591888427734375">
        <ele>83.59999847412109375</ele>
        <time>2026-05-07T10:31:35.000Z</time>
        <extensions>
          <ns3:TrackPointExtension>
            <ns3:atemp>15.0</ns3:atemp>
            <ns3:hr>97</ns3:hr>
          </ns3:TrackPointExtension>
        </extensions>
      </trkpt>
      <trkpt lat="48.46973567269742488861083984375" lon="-2.15637928806245326995849609375">
        <ele>83.59999847412109375</ele>
        <time>2026-05-07T10:31:37.000Z</time>
        <extensions>
          <ns3:TrackPointExtension>
            <ns3:atemp>15.0</ns3:atemp>
            <ns3:hr>98</ns3:hr>
          </ns3:TrackPointExtension>
        </extensions>
      </trkpt>
      <trkpt lat="48.469666354358196258544921875" lon="-2.156238891184329986572265625">
        <ele>84</ele>
        <time>2026-05-07T10:31:47.000Z</time>
        <extensions>
          <ns3:TrackPointExtension>
            <ns3:atemp>15.0</ns3:atemp>
            <ns3:hr>101</ns3:hr>
          </ns3:TrackPointExtension>
        </extensions>
      </trkpt>
      <trkpt lat="48.4696279652416706085205078125" lon="-2.1561750210821628570556640625">
        <ele>84.59999847412109375</ele>
        <time>2026-05-07T10:31:52.000Z</time>
        <extensions>
          <ns3:TrackPointExtension>
            <ns3:atemp>15.0</ns3:atemp>
            <ns3:hr>104</ns3:hr>
          </ns3:TrackPointExtension>
        </extensions>
      </trkpt>
      <trkpt lat="48.469618745148181915283203125" lon="-2.15615884400904178619384765625">
        <ele>84.8000030517578125</ele>
        <time>2026-05-07T10:31:53.000Z</time>
        <extensions>
          <ns3:TrackPointExtension>
            <ns3:atemp>15.0</ns3:atemp>
            <ns3:hr>104</ns3:hr>
          </ns3:TrackPointExtension>
        </extensions>
      </trkpt>
      <trkpt lat="48.46960424445569515228271484375" lon="-2.15612950734794139862060546875">
        <ele>84.8000030517578125</ele>
        <time>2026-05-07T10:31:55.000Z</time>
        <extensions>
          <ns3:TrackPointExtension>
            <ns3:atemp>15.0</ns3:atemp>
            <ns3:hr>105</ns3:hr>
          </ns3:TrackPointExtension>
        </extensions>
      </trkpt>
      <trkpt lat="48.469565100967884063720703125" lon="-2.15604132972657680511474609375">
        <ele>85.40000152587890625</ele>
        <time>2026-05-07T10:32:01.000Z</time>
        <extensions>
          <ns3:TrackPointExtension>
            <ns3:atemp>15.0</ns3:atemp>
            <ns3:hr>108</ns3:hr>
          </ns3:TrackPointExtension>
        </extensions>
      </trkpt>
      <trkpt lat="48.46955093555152416229248046875" lon="-2.15601735748350620269775390625">
        <ele>85.59999847412109375</ele>
        <time>2026-05-07T10:32:03.000Z</time>
        <extensions>
          <ns3:TrackPointExtension>
            <ns3:atemp>15.0</ns3:atemp>
            <ns3:hr>109</ns3:hr>
          </ns3:TrackPointExtension>
        </extensions>
      </trkpt>
      <trkpt lat="48.4695327468216419219970703125" lon="-2.155983746051788330078125">
        <ele>85.8000030517578125</ele>
        <time>2026-05-07T10:32:05.000Z</time>
        <extensions>
          <ns3:TrackPointExtension>
            <ns3:atemp>15.0</ns3:atemp>
            <ns3:hr>110</ns3:hr>
          </ns3:TrackPointExtension>
        </extensions>
      </trkpt>
      <trkpt lat="48.469491340219974517822265625" lon="-2.1559188701212406158447265625">
        <ele>85.8000030517578125</ele>
        <time>2026-05-07T10:32:10.000Z</time>
        <extensions>
          <ns3:TrackPointExtension>
            <ns3:atemp>15.0</ns3:atemp>
            <ns3:hr>111</ns3:hr>
          </ns3:TrackPointExtension>
        </extensions>
      </trkpt>
      <trkpt lat="48.469478599727153778076171875" lon="-2.1558960713446140289306640625">
        <ele>85.8000030517578125</ele>
        <time>2026-05-07T10:32:16.000Z</time>
        <extensions>
          <ns3:TrackPointExtension>
            <ns3:atemp>15.0</ns3:atemp>
            <ns3:hr>113</ns3:hr>
          </ns3:TrackPointExtension>
        </extensions>
      </trkpt>
      <trkpt lat="48.4694415517151355743408203125" lon="-2.1558172814548015594482421875">
        <ele>86.40000152587890625</ele>
        <time>2026-05-07T10:32:22.000Z</time>
        <extensions>
          <ns3:TrackPointExtension>
            <ns3:atemp>15.0</ns3:atemp>
            <ns3:hr>110</ns3:hr>
          </ns3:TrackPointExtension>
        </extensions>
      </trkpt>
      <trkpt lat="48.4694207645952701568603515625" lon="-2.1557747013866901397705078125">
        <ele>86.59999847412109375</ele>
        <time>2026-05-07T10:32:25.000Z</time>
        <extensions>
          <ns3:TrackPointExtension>
            <ns3:atemp>15.0</ns3:atemp>
            <ns3:hr>110</ns3:hr>
          </ns3:TrackPointExtension>
        </extensions>
      </trkpt>
      <trkpt lat="48.46939419396221637725830078125" lon="-2.15572013519704341888427734375">
        <ele>86.8000030517578125</ele>
        <time>2026-05-07T10:32:29.000Z</time>
        <extensions>
          <ns3:TrackPointExtension>
            <ns3:atemp>15.0</ns3:atemp>
            <ns3:hr>109</ns3:hr>
          </ns3:TrackPointExtension>
        </extensions>
      </trkpt>
      <trkpt lat="48.46937994472682476043701171875" lon="-2.1556927263736724853515625">
        <ele>87</ele>
        <time>2026-05-07T10:32:31.000Z</time>
        <extensions>
          <ns3:TrackPointExtension>
            <ns3:atemp>15.0</ns3:atemp>
            <ns3:hr>110</ns3:hr>
          </ns3:TrackPointExtension>
        </extensions>
      </trkpt>
      <trkpt lat="48.46930802799761295318603515625" lon="-2.15556641109287738800048828125">
        <ele>87.40000152587890625</ele>
        <time>2026-05-07T10:32:40.000Z</time>
        <extensions>
          <ns3:TrackPointExtension>
            <ns3:atemp>15.0</ns3:atemp>
            <ns3:hr>111</ns3:hr>
          </ns3:TrackPointExtension>
        </extensions>
      </trkpt>
      <trkpt lat="48.4692724049091339111328125" lon="-2.15548996813595294952392578125">
        <ele>87.8000030517578125</ele>
        <time>2026-05-07T10:32:46.000Z</time>
        <extensions>
          <ns3:TrackPointExtension>
            <ns3:atemp>15.0</ns3:atemp>
            <ns3:hr>109</ns3:hr>
          </ns3:TrackPointExtension>
        </extensions>
      </trkpt>
      <trkpt lat="48.4692643582820892333984375" lon="-2.15547773055732250213623046875">
        <ele>88</ele>
        <time>2026-05-07T10:32:47.000Z</time>
        <extensions>
          <ns3:TrackPointExtension>
            <ns3:atemp>15.0</ns3:atemp>
            <ns3:hr>109</ns3:hr>
          </ns3:TrackPointExtension>
        </extensions>
      </trkpt>
      <trkpt lat="48.46919671632349491119384765625" lon="-2.15535300783812999725341796875">
        <ele>88.40000152587890625</ele>
        <time>2026-05-07T10:32:56.000Z</time>
        <extensions>
          <ns3:TrackPointExtension>
            <ns3:atemp>15.0</ns3:atemp>
            <ns3:hr>110</ns3:hr>
          </ns3:TrackPointExtension>
        </extensions>
      </trkpt>
      <trkpt lat="48.4691585786640644073486328125" lon="-2.155270613729953765869140625">
        <ele>89</ele>
        <time>2026-05-07T10:33:02.000Z</time>
        <extensions>
          <ns3:TrackPointExtension>
            <ns3:atemp>15.0</ns3:atemp>
            <ns3:hr>110</ns3:hr>
          </ns3:TrackPointExtension>
        </extensions>
      </trkpt>
      <trkpt lat="48.469141311943531036376953125" lon="-2.15522476471960544586181640625">
        <ele>89.1999969482421875</ele>
        <time>2026-05-07T10:33:05.000Z</time>
        <extensions>
          <ns3:TrackPointExtension>
            <ns3:atemp>15.0</ns3:atemp>
            <ns3:hr>110</ns3:hr>
          </ns3:TrackPointExtension>
        </extensions>
      </trkpt>
      <trkpt lat="48.46911876462399959564208984375" lon="-2.15512384660542011260986328125">
        <ele>89.59999847412109375</ele>
        <time>2026-05-07T10:33:12.000Z</time>
        <extensions>
          <ns3:TrackPointExtension>
            <ns3:atemp>15.0</ns3:atemp>
            <ns3:hr>108</ns3:hr>
          </ns3:TrackPointExtension>
        </extensions>
      </trkpt>
      <trkpt lat="48.4690952114760875701904296875" lon="-2.1550116129219532012939453125">
        <ele>89.8000030517578125</ele>
        <time>2026-05-07T10:33:19.000Z</time>
        <extensions>
          <ns3:TrackPointExtension>
            <ns3:atemp>15.0</ns3:atemp>
            <ns3:hr>107</ns3:hr>
          </ns3:TrackPointExtension>
        </extensions>
      </trkpt>
      <trkpt lat="48.46908506937325000762939453125" lon="-2.15496140532195568084716796875">
        <ele>90</ele>
        <time>2026-05-07T10:33:22.000Z</time>
        <extensions>
          <ns3:TrackPointExtension>
            <ns3:atemp>15.0</ns3:atemp>
            <ns3:hr>106</ns3:hr>
          </ns3:TrackPointExtension>
        </extensions>
      </trkpt>
      <trkpt lat="48.46906512044370174407958984375" lon="-2.1548707969486713409423828125">
        <ele>91</ele>
        <time>2026-05-07T10:33:28.000Z</time>
        <extensions>
          <ns3:TrackPointExtension>
            <ns3:atemp>14.0</ns3:atemp>
            <ns3:hr>108</ns3:hr>
          </ns3:TrackPointExtension>
        </extensions>
      </trkpt>
      <trkpt lat="48.4690623544156551361083984375" lon="-2.15475336648523807525634765625">
        <ele>90.59999847412109375</ele>
        <time>2026-05-07T10:33:36.000Z</time>
        <extensions>
          <ns3:TrackPointExtension>
            <ns3:atemp>14.0</ns3:atemp>
            <ns3:hr>111</ns3:hr>
          </ns3:TrackPointExtension>
        </extensions>
      </trkpt>
      <trkpt lat="48.469061516225337982177734375" lon="-2.15474096126854419708251953125">
        <ele>90.8000030517578125</ele>
        <time>2026-05-07T10:33:37.000Z</time>
        <extensions>
          <ns3:TrackPointExtension>
            <ns3:atemp>14.0</ns3:atemp>
            <ns3:hr>111</ns3:hr>
          </ns3:TrackPointExtension>
        </extensions>
      </trkpt>
      <trkpt lat="48.46906696446239948272705078125" lon="-2.1546304039657115936279296875">
        <ele>91.40000152587890625</ele>
        <time>2026-05-07T10:33:45.000Z</time>
        <extensions>
          <ns3:TrackPointExtension>
            <ns3:atemp>14.0</ns3:atemp>
            <ns3:hr>111</ns3:hr>
          </ns3:TrackPointExtension>
        </extensions>
      </trkpt>
      <trkpt lat="48.469089008867740631103515625" lon="-2.154553122818470001220703125">
        <ele>91.59999847412109375</ele>
        <time>2026-05-07T10:33:51.000Z</time>
        <extensions>
          <ns3:TrackPointExtension>
            <ns3:atemp>14.0</ns3:atemp>
            <ns3:hr>109</ns3:hr>
          </ns3:TrackPointExtension>
        </extensions>
      </trkpt>
      <trkpt lat="48.46911557950079441070556640625" lon="-2.15449470095336437225341796875">
        <ele>91.59999847412109375</ele>
        <time>2026-05-07T10:33:55.000Z</time>
        <extensions>
          <ns3:TrackPointExtension>
            <ns3:atemp>14.0</ns3:atemp>
            <ns3:hr>106</ns3:hr>
          </ns3:TrackPointExtension>
        </extensions>
      </trkpt>
      <trkpt lat="48.46913318149745464324951171875" lon="-2.154475338757038116455078125">
        <ele>91.59999847412109375</ele>
        <time>2026-05-07T10:33:57.000Z</time>
        <extensions>
          <ns3:TrackPointExtension>
            <ns3:atemp>14.0</ns3:atemp>
            <ns3:hr>106</ns3:hr>
          </ns3:TrackPointExtension>
        </extensions>
      </trkpt>
      <trkpt lat="48.4691833890974521636962890625" lon="-2.1543730795383453369140625">
        <ele>91.8000030517578125</ele>
        <time>2026-05-07T10:34:05.000Z</time>
        <extensions>
          <ns3:TrackPointExtension>
            <ns3:atemp>14.0</ns3:atemp>
            <ns3:hr>103</ns3:hr>
          </ns3:TrackPointExtension>
        </extensions>
      </trkpt>
      <trkpt lat="48.46922337077558040618896484375" lon="-2.15428951196372509002685546875">
        <ele>91.8000030517578125</ele>
        <time>2026-05-07T10:34:11.000Z</time>
        <extensions>
          <ns3:TrackPointExtension>
            <ns3:atemp>14.0</ns3:atemp>
            <ns3:hr>102</ns3:hr>
          </ns3:TrackPointExtension>
        </extensions>
      </trkpt>
      <trkpt lat="48.4692360274493694305419921875" lon="-2.15422279201447963714599609375">
        <ele>92</ele>
        <time>2026-05-07T10:34:16.000Z</time>
        <extensions>
          <ns3:TrackPointExtension>
            <ns3:atemp>14.0</ns3:atemp>
            <ns3:hr>101</ns3:hr>
          </ns3:TrackPointExtension>
        </extensions>
      </trkpt>
      <trkpt lat="48.46923242323100566864013671875" lon="-2.15420116670429706573486328125">
        <ele>92.1999969482421875</ele>
        <time>2026-05-07T10:34:17.000Z</time>
        <extensions>
          <ns3:TrackPointExtension>
            <ns3:atemp>14.0</ns3:atemp>
            <ns3:hr>101</ns3:hr>
          </ns3:TrackPointExtension>
        </extensions>
      </trkpt>
      <trkpt lat="48.4692269749939441680908203125" lon="-2.15406127274036407470703125">
        <ele>92.40000152587890625</ele>
        <time>2026-05-07T10:34:25.000Z</time>
        <extensions>
          <ns3:TrackPointExtension>
            <ns3:atemp>15.0</ns3:atemp>
            <ns3:hr>100</ns3:hr>
          </ns3:TrackPointExtension>
        </extensions>
      </trkpt>
      <trkpt lat="48.469212055206298828125" lon="-2.1539144217967987060546875">
        <ele>93</ele>
        <time>2026-05-07T10:34:33.000Z</time>
        <extensions>
          <ns3:TrackPointExtension>
            <ns3:atemp>15.0</ns3:atemp>
            <ns3:hr>100</ns3:hr>
          </ns3:TrackPointExtension>
        </extensions>
      </trkpt>
      <trkpt lat="48.46920828334987163543701171875" lon="-2.15389723889529705047607421875">
        <ele>93</ele>
        <time>2026-05-07T10:34:34.000Z</time>
        <extensions>
          <ns3:TrackPointExtension>
            <ns3:atemp>15.0</ns3:atemp>
            <ns3:hr>100</ns3:hr>
          </ns3:TrackPointExtension>
        </extensions>
      </trkpt>
      <trkpt lat="48.469183556735515594482421875" lon="-2.15375625528395175933837890625">
        <ele>94</ele>
        <time>2026-05-07T10:34:42.000Z</time>
        <extensions>
          <ns3:TrackPointExtension>
            <ns3:atemp>15.0</ns3:atemp>
            <ns3:hr>102</ns3:hr>
          </ns3:TrackPointExtension>
        </extensions>
      </trkpt>
      <trkpt lat="48.46917157061398029327392578125" lon="-2.15369003824889659881591796875">
        <ele>94.1999969482421875</ele>
        <time>2026-05-07T10:34:46.000Z</time>
        <extensions>
          <ns3:TrackPointExtension>
            <ns3:atemp>15.0</ns3:atemp>
            <ns3:hr>104</ns3:hr>
          </ns3:TrackPointExtension>
        </extensions>
      </trkpt>
      <trkpt lat="48.469160087406635284423828125" lon="-2.1536161936819553375244140625">
        <ele>94</ele>
        <time>2026-05-07T10:34:50.000Z</time>
        <extensions>
          <ns3:TrackPointExtension>
            <ns3:atemp>15.0</ns3:atemp>
            <ns3:hr>107</ns3:hr>
          </ns3:TrackPointExtension>
        </extensions>
      </trkpt>
      <trkpt lat="48.4691411443054676055908203125" lon="-2.1534951590001583099365234375">
        <ele>95.1999969482421875</ele>
        <time>2026-05-07T10:34:57.000Z</time>
        <extensions>
          <ns3:TrackPointExtension>
            <ns3:atemp>15.0</ns3:atemp>
            <ns3:hr>109</ns3:hr>
          </ns3:TrackPointExtension>
        </extensions>
      </trkpt>
      <trkpt lat="48.46913888119161128997802734375" lon="-2.15347663499414920806884765625">
        <ele>95.1999969482421875</ele>
        <time>2026-05-07T10:34:58.000Z</time>
        <extensions>
          <ns3:TrackPointExtension>
            <ns3:atemp>15.0</ns3:atemp>
            <ns3:hr>110</ns3:hr>
          </ns3:TrackPointExtension>
        </extensions>
      </trkpt>
      <trkpt lat="48.4691139869391918182373046875" lon="-2.15336197055876255035400390625">
        <ele>96</ele>
        <time>2026-05-07T10:35:05.000Z</time>
        <extensions>
          <ns3:TrackPointExtension>
            <ns3:atemp>15.0</ns3:atemp>
            <ns3:hr>111</ns3:hr>
          </ns3:TrackPointExtension>
        </extensions>
      </trkpt>
      <trkpt lat="48.469107113778591156005859375" lon="-2.15331519953906536102294921875">
        <ele>96.1999969482421875</ele>
        <time>2026-05-07T10:35:08.000Z</time>
        <extensions>
          <ns3:TrackPointExtension>
            <ns3:atemp>15.0</ns3:atemp>
            <ns3:hr>110</ns3:hr>
          </ns3:TrackPointExtension>
        </extensions>
      </trkpt>
      <trkpt lat="48.469097726047039031982421875" lon="-2.15324143879115581512451171875">
        <ele>96.59999847412109375</ele>
        <time>2026-05-07T10:35:13.000Z</time>
        <extensions>
          <ns3:TrackPointExtension>
            <ns3:atemp>15.0</ns3:atemp>
            <ns3:hr>111</ns3:hr>
          </ns3:TrackPointExtension>
        </extensions>
      </trkpt>
      <trkpt lat="48.469080626964569091796875" lon="-2.15314068831503391265869140625">
        <ele>97.1999969482421875</ele>
        <time>2026-05-07T10:35:19.000Z</time>
        <extensions>
          <ns3:TrackPointExtension>
            <ns3:atemp>15.0</ns3:atemp>
            <ns3:hr>112</ns3:hr>
          </ns3:TrackPointExtension>
        </extensions>
      </trkpt>
      <trkpt lat="48.46907417289912700653076171875" lon="-2.15311151929199695587158203125">
        <ele>97.40000152587890625</ele>
        <time>2026-05-07T10:35:21.000Z</time>
        <extensions>
          <ns3:TrackPointExtension>
            <ns3:atemp>15.0</ns3:atemp>
            <ns3:hr>113</ns3:hr>
          </ns3:TrackPointExtension>
        </extensions>
      </trkpt>
      <trkpt lat="48.46907232888042926788330078125" lon="-2.153091318905353546142578125">
        <ele>97.40000152587890625</ele>
        <time>2026-05-07T10:35:22.000Z</time>
        <extensions>
          <ns3:TrackPointExtension>
            <ns3:atemp>15.0</ns3:atemp>
            <ns3:hr>113</ns3:hr>
          </ns3:TrackPointExtension>
        </extensions>
      </trkpt>
      <trkpt lat="48.469069898128509521484375" lon="-2.15305544435977935791015625">
        <ele>97.40000152587890625</ele>
        <time>2026-05-07T10:35:24.000Z</time>
        <extensions>
          <ns3:TrackPointExtension>
            <ns3:atemp>15.0</ns3:atemp>
            <ns3:hr>112</ns3:hr>
          </ns3:TrackPointExtension>
        </extensions>
      </trkpt>
      <trkpt lat="48.46906227059662342071533203125" lon="-2.1529890596866607666015625">
        <ele>98</ele>
        <time>2026-05-07T10:35:28.000Z</time>
        <extensions>
          <ns3:TrackPointExtension>
            <ns3:atemp>15.0</ns3:atemp>
            <ns3:hr>113</ns3:hr>
          </ns3:TrackPointExtension>
        </extensions>
      </trkpt>
      <trkpt lat="48.46906042657792568206787109375" lon="-2.1529724635183811187744140625">
        <ele>98.1999969482421875</ele>
        <time>2026-05-07T10:35:29.000Z</time>
        <extensions>
          <ns3:TrackPointExtension>
            <ns3:atemp>15.0</ns3:atemp>
            <ns3:hr>113</ns3:hr>
          </ns3:TrackPointExtension>
        </extensions>
      </trkpt>
      <trkpt lat="48.4690533019602298736572265625" lon="-2.15285888873040676116943359375">
        <ele>99</ele>
        <time>2026-05-07T10:35:36.000Z</time>
        <extensions>
          <ns3:TrackPointExtension>
            <ns3:atemp>15.0</ns3:atemp>
            <ns3:hr>113</ns3:hr>
          </ns3:TrackPointExtension>
        </extensions>
      </trkpt>
      <trkpt lat="48.46905254758894443511962890625" lon="-2.15278185904026031494140625">
        <ele>99.40000152587890625</ele>
        <time>2026-05-07T10:35:40.000Z</time>
        <extensions>
          <ns3:TrackPointExtension>
            <ns3:atemp>15.0</ns3:atemp>
            <ns3:hr>114</ns3:hr>
          </ns3:TrackPointExtension>
        </extensions>
      </trkpt>
      <trkpt lat="48.4690526314079761505126953125" lon="-2.1527106128633022308349609375">
        <ele>99.8000030517578125</ele>
        <time>2026-05-07T10:35:44.000Z</time>
        <extensions>
          <ns3:TrackPointExtension>
            <ns3:atemp>15.0</ns3:atemp>
            <ns3:hr>114</ns3:hr>
          </ns3:TrackPointExtension>
        </extensions>
      </trkpt>
      <trkpt lat="48.469050116837024688720703125" lon="-2.1526214294135570526123046875">
        <ele>100.40000152587890625</ele>
        <time>2026-05-07T10:35:49.000Z</time>
        <extensions>
          <ns3:TrackPointExtension>
            <ns3:atemp>15.0</ns3:atemp>
            <ns3:hr>115</ns3:hr>
          </ns3:TrackPointExtension>
        </extensions>
      </trkpt>
      <trkpt lat="48.4690509550273418426513671875" lon="-2.15257407166063785552978515625">
        <ele>100.8000030517578125</ele>
        <time>2026-05-07T10:35:52.000Z</time>
        <extensions>
          <ns3:TrackPointExtension>
            <ns3:atemp>15.0</ns3:atemp>
            <ns3:hr>115</ns3:hr>
          </ns3:TrackPointExtension>
        </extensions>
      </trkpt>
      <trkpt lat="48.469054810702800750732421875" lon="-2.15246510691940784454345703125">
        <ele>101.40000152587890625</ele>
        <time>2026-05-07T10:35:59.000Z</time>
        <extensions>
          <ns3:TrackPointExtension>
            <ns3:atemp>15.0</ns3:atemp>
            <ns3:hr>116</ns3:hr>
          </ns3:TrackPointExtension>
        </extensions>
      </trkpt>
      <trkpt lat="48.46906579099595546722412109375" lon="-2.15233719907701015472412109375">
        <ele>102.59999847412109375</ele>
        <time>2026-05-07T10:36:07.000Z</time>
        <extensions>
          <ns3:TrackPointExtension>
            <ns3:atemp>15.0</ns3:atemp>
            <ns3:hr>115</ns3:hr>
          </ns3:TrackPointExtension>
        </extensions>
      </trkpt>
      <trkpt lat="48.4690697304904460906982421875" lon="-2.15232009999454021453857421875">
        <ele>102.8000030517578125</ele>
        <time>2026-05-07T10:36:08.000Z</time>
        <extensions>
          <ns3:TrackPointExtension>
            <ns3:atemp>15.0</ns3:atemp>
            <ns3:hr>116</ns3:hr>
          </ns3:TrackPointExtension>
        </extensions>
      </trkpt>
      <trkpt lat="48.4690754301846027374267578125" lon="-2.15226058848202228546142578125">
        <ele>103.1999969482421875</ele>
        <time>2026-05-07T10:36:15.000Z</time>
        <extensions>
          <ns3:TrackPointExtension>
            <ns3:atemp>15.0</ns3:atemp>
            <ns3:hr>114</ns3:hr>
          </ns3:TrackPointExtension>
        </extensions>
      </trkpt>
      <trkpt lat="48.46906528808176517486572265625" lon="-2.1521946229040622711181640625">
        <ele>103.59999847412109375</ele>
        <time>2026-05-07T10:36:21.000Z</time>
        <extensions>
          <ns3:TrackPointExtension>
            <ns3:atemp>15.0</ns3:atemp>
            <ns3:hr>114</ns3:hr>
          </ns3:TrackPointExtension>
        </extensions>
      </trkpt>
      <trkpt lat="48.4690677188336849212646484375" lon="-2.15217190794646739959716796875">
        <ele>103.8000030517578125</ele>
        <time>2026-05-07T10:36:22.000Z</time>
        <extensions>
          <ns3:TrackPointExtension>
            <ns3:atemp>15.0</ns3:atemp>
            <ns3:hr>114</ns3:hr>
          </ns3:TrackPointExtension>
        </extensions>
      </trkpt>
      <trkpt lat="48.46909294836223125457763671875" lon="-2.1520947106182575225830078125">
        <ele>104.1999969482421875</ele>
        <time>2026-05-07T10:36:27.000Z</time>
        <extensions>
          <ns3:TrackPointExtension>
            <ns3:atemp>15.0</ns3:atemp>
            <ns3:hr>114</ns3:hr>
          </ns3:TrackPointExtension>
        </extensions>
      </trkpt>
      <trkpt lat="48.4690992347896099090576171875" lon="-2.15197124518454074859619140625">
        <ele>104.8000030517578125</ele>
        <time>2026-05-07T10:36:34.000Z</time>
        <extensions>
          <ns3:TrackPointExtension>
            <ns3:atemp>15.0</ns3:atemp>
            <ns3:hr>114</ns3:hr>
          </ns3:TrackPointExtension>
        </extensions>
      </trkpt>
      <trkpt lat="48.46910543739795684814453125" lon="-2.15192061848938465118408203125">
        <ele>105</ele>
        <time>2026-05-07T10:36:37.000Z</time>
        <extensions>
          <ns3:TrackPointExtension>
            <ns3:atemp>15.0</ns3:atemp>
            <ns3:hr>114</ns3:hr>
          </ns3:TrackPointExtension>
        </extensions>
      </trkpt>
      <trkpt lat="48.46911088563501834869384765625" lon="-2.1517815627157688140869140625">
        <ele>105.59999847412109375</ele>
        <time>2026-05-07T10:36:44.000Z</time>
        <extensions>
          <ns3:TrackPointExtension>
            <ns3:atemp>15.0</ns3:atemp>
            <ns3:hr>114</ns3:hr>
          </ns3:TrackPointExtension>
        </extensions>
      </trkpt>
      <trkpt lat="48.46912555396556854248046875" lon="-2.15167854912579059600830078125">
        <ele>105.8000030517578125</ele>
        <time>2026-05-07T10:36:50.000Z</time>
        <extensions>
          <ns3:TrackPointExtension>
            <ns3:atemp>15.0</ns3:atemp>
            <ns3:hr>113</ns3:hr>
          </ns3:TrackPointExtension>
        </extensions>
      </trkpt>
      <trkpt lat="48.4691302478313446044921875" lon="-2.151628173887729644775390625">
        <ele>106</ele>
        <time>2026-05-07T10:36:53.000Z</time>
        <extensions>
          <ns3:TrackPointExtension>
            <ns3:atemp>15.0</ns3:atemp>
            <ns3:hr>113</ns3:hr>
          </ns3:TrackPointExtension>
        </extensions>
      </trkpt>
      <trkpt lat="48.46914768218994140625" lon="-2.151477634906768798828125">
        <ele>106.8000030517578125</ele>
        <time>2026-05-07T10:37:01.000Z</time>
        <extensions>
          <ns3:TrackPointExtension>
            <ns3:atemp>15.0</ns3:atemp>
            <ns3:hr>114</ns3:hr>
          </ns3:TrackPointExtension>
        </extensions>
      </trkpt>
      <trkpt lat="48.46914835274219512939453125" lon="-2.1514566801488399505615234375">
        <ele>106.8000030517578125</ele>
        <time>2026-05-07T10:37:02.000Z</time>
        <extensions>
          <ns3:TrackPointExtension>
            <ns3:atemp>15.0</ns3:atemp>
            <ns3:hr>113</ns3:hr>
          </ns3:TrackPointExtension>
        </extensions>
      </trkpt>
      <trkpt lat="48.4691651165485382080078125" lon="-2.15129281394183635711669921875">
        <ele>107.40000152587890625</ele>
        <time>2026-05-07T10:37:11.000Z</time>
        <extensions>
          <ns3:TrackPointExtension>
            <ns3:atemp>15.0</ns3:atemp>
            <ns3:hr>114</ns3:hr>
          </ns3:TrackPointExtension>
        </extensions>
      </trkpt>
      <trkpt lat="48.4691763482987880706787109375" lon="-2.151183597743511199951171875">
        <ele>107.8000030517578125</ele>
        <time>2026-05-07T10:37:17.000Z</time>
        <extensions>
          <ns3:TrackPointExtension>
            <ns3:atemp>15.0</ns3:atemp>
            <ns3:hr>116</ns3:hr>
          </ns3:TrackPointExtension>
        </extensions>
      </trkpt>
      <trkpt lat="48.4691773541271686553955078125" lon="-2.151152752339839935302734375">
        <ele>108</ele>
        <time>2026-05-07T10:37:19.000Z</time>
        <extensions>
          <ns3:TrackPointExtension>
            <ns3:atemp>15.0</ns3:atemp>
            <ns3:hr>115</ns3:hr>
          </ns3:TrackPointExtension>
        </extensions>
      </trkpt>
      <trkpt lat="48.469184897840023040771484375" lon="-2.151028700172901153564453125">
        <ele>108.8000030517578125</ele>
        <time>2026-05-07T10:37:26.000Z</time>
        <extensions>
          <ns3:TrackPointExtension>
            <ns3:atemp>15.0</ns3:atemp>
            <ns3:hr>115</ns3:hr>
          </ns3:TrackPointExtension>
        </extensions>
      </trkpt>
      <trkpt lat="48.469189591705799102783203125" lon="-2.15099257417023181915283203125">
        <ele>109</ele>
        <time>2026-05-07T10:37:28.000Z</time>
        <extensions>
          <ns3:TrackPointExtension>
            <ns3:atemp>15.0</ns3:atemp>
            <ns3:hr>115</ns3:hr>
          </ns3:TrackPointExtension>
        </extensions>
      </trkpt>
      <trkpt lat="48.4691854007542133331298828125" lon="-2.15090003795921802520751953125">
        <ele>109.40000152587890625</ele>
        <time>2026-05-07T10:37:35.000Z</time>
        <extensions>
          <ns3:TrackPointExtension>
            <ns3:atemp>15.0</ns3:atemp>
            <ns3:hr>114</ns3:hr>
          </ns3:TrackPointExtension>
        </extensions>
      </trkpt>
      <trkpt lat="48.4691911004483699798583984375" lon="-2.1508340723812580108642578125">
        <ele>109.59999847412109375</ele>
        <time>2026-05-07T10:37:40.000Z</time>
        <extensions>
          <ns3:TrackPointExtension>
            <ns3:atemp>15.0</ns3:atemp>
            <ns3:hr>113</ns3:hr>
          </ns3:TrackPointExtension>
        </extensions>
      </trkpt>
      <trkpt lat="48.46919336356222629547119140625" lon="-2.15080481953918933868408203125">
        <ele>110</ele>
        <time>2026-05-07T10:37:42.000Z</time>
        <extensions>
          <ns3:TrackPointExtension>
            <ns3:atemp>15.0</ns3:atemp>
            <ns3:hr>114</ns3:hr>
          </ns3:TrackPointExtension>
        </extensions>
      </trkpt>
      <trkpt lat="48.4692075289785861968994140625" lon="-2.15073390863835811614990234375">
        <ele>110.1999969482421875</ele>
        <time>2026-05-07T10:37:46.000Z</time>
        <extensions>
          <ns3:TrackPointExtension>
            <ns3:atemp>15.0</ns3:atemp>
            <ns3:hr>110</ns3:hr>
          </ns3:TrackPointExtension>
        </extensions>
      </trkpt>
      <trkpt lat="48.4692095406353473663330078125" lon="-2.15068034827709197998046875">
        <ele>110.59999847412109375</ele>
        <time>2026-05-07T10:37:49.000Z</time>
        <extensions>
          <ns3:TrackPointExtension>
            <ns3:atemp>15.0</ns3:atemp>
            <ns3:hr>107</ns3:hr>
          </ns3:TrackPointExtension>
        </extensions>
      </trkpt>
      <trkpt lat="48.4692189283668994903564453125" lon="-2.150574065744876861572265625">
        <ele>111</ele>
        <time>2026-05-07T10:37:55.000Z</time>
        <extensions>
          <ns3:TrackPointExtension>
            <ns3:atemp>15.0</ns3:atemp>
            <ns3:hr>106</ns3:hr>
          </ns3:TrackPointExtension>
        </extensions>
      </trkpt>
      <trkpt lat="48.4692279808223247528076171875" lon="-2.15045160613954067230224609375">
        <ele>112</ele>
        <time>2026-05-07T10:38:02.000Z</time>
        <extensions>
          <ns3:TrackPointExtension>
            <ns3:atemp>15.0</ns3:atemp>
            <ns3:hr>105</ns3:hr>
          </ns3:TrackPointExtension>
        </extensions>
      </trkpt>
      <trkpt lat="48.46922907046973705291748046875" lon="-2.1504355967044830322265625">
        <ele>112</ele>
        <time>2026-05-07T10:38:03.000Z</time>
        <extensions>
          <ns3:TrackPointExtension>
            <ns3:atemp>15.0</ns3:atemp>
            <ns3:hr>105</ns3:hr>
          </ns3:TrackPointExtension>
        </extensions>
      </trkpt>
      <trkpt lat="48.4692348539829254150390625" lon="-2.15035018511116504669189453125">
        <ele>112.1999969482421875</ele>
        <time>2026-05-07T10:38:08.000Z</time>
        <extensions>
          <ns3:TrackPointExtension>
            <ns3:atemp>15.0</ns3:atemp>
            <ns3:hr>108</ns3:hr>
          </ns3:TrackPointExtension>
        </extensions>
      </trkpt>
      <trkpt lat="48.46923150122165679931640625" lon="-2.15023778378963470458984375">
        <ele>112.1999969482421875</ele>
        <time>2026-05-07T10:38:15.000Z</time>
        <extensions>
          <ns3:TrackPointExtension>
            <ns3:atemp>15.0</ns3:atemp>
            <ns3:hr>110</ns3:hr>
          </ns3:TrackPointExtension>
        </extensions>
      </trkpt>
      <trkpt lat="48.469216413795948028564453125" lon="-2.15020350180566310882568359375">
        <ele>112</ele>
        <time>2026-05-07T10:38:22.000Z</time>
        <extensions>
          <ns3:TrackPointExtension>
            <ns3:atemp>15.0</ns3:atemp>
            <ns3:hr>109</ns3:hr>
          </ns3:TrackPointExtension>
        </extensions>
      </trkpt>
      <trkpt lat="48.46922052092850208282470703125" lon="-2.15020350180566310882568359375">
        <ele>112</ele>
        <time>2026-05-07T10:38:27.000Z</time>
        <extensions>
          <ns3:TrackPointExtension>
            <ns3:atemp>15.0</ns3:atemp>
            <ns3:hr>106</ns3:hr>
          </ns3:TrackPointExtension>
        </extensions>
      </trkpt>
      <trkpt lat="48.46923979930579662322998046875" lon="-2.1501754224300384521484375">
        <ele>112.1999969482421875</ele>
        <time>2026-05-07T10:38:30.000Z</time>
        <extensions>
          <ns3:TrackPointExtension>
            <ns3:atemp>15.0</ns3:atemp>
            <ns3:hr>105</ns3:hr>
          </ns3:TrackPointExtension>
        </extensions>
      </trkpt>
      <trkpt lat="48.46926963888108730316162109375" lon="-2.15009503997862339019775390625">
        <ele>111.8000030517578125</ele>
        <time>2026-05-07T10:38:36.000Z</time>
        <extensions>
          <ns3:TrackPointExtension>
            <ns3:atemp>15.0</ns3:atemp>
            <ns3:hr>102</ns3:hr>
          </ns3:TrackPointExtension>
        </extensions>
      </trkpt>
      <trkpt lat="48.46929059363901615142822265625" lon="-2.14999638497829437255859375">
        <ele>111.59999847412109375</ele>
        <time>2026-05-07T10:38:43.000Z</time>
        <extensions>
          <ns3:TrackPointExtension>
            <ns3:atemp>15.0</ns3:atemp>
            <ns3:hr>101</ns3:hr>
          </ns3:TrackPointExtension>
        </extensions>
      </trkpt>
      <trkpt lat="48.4692943654954433441162109375" lon="-2.14987442828714847564697265625">
        <ele>111.40000152587890625</ele>
        <time>2026-05-07T10:38:51.000Z</time>
        <extensions>
          <ns3:TrackPointExtension>
            <ns3:atemp>15.0</ns3:atemp>
            <ns3:hr>100</ns3:hr>
          </ns3:TrackPointExtension>
        </extensions>
      </trkpt>
      <trkpt lat="48.4693077765405178070068359375" lon="-2.1497863344848155975341796875">
        <ele>111.40000152587890625</ele>
        <time>2026-05-07T10:38:57.000Z</time>
        <extensions>
          <ns3:TrackPointExtension>
            <ns3:atemp>15.0</ns3:atemp>
            <ns3:hr>101</ns3:hr>
          </ns3:TrackPointExtension>
        </extensions>
      </trkpt>
      <trkpt lat="48.4693124704062938690185546875" lon="-2.1496629528701305389404296875">
        <ele>111</ele>
        <time>2026-05-07T10:39:04.000Z</time>
        <extensions>
          <ns3:TrackPointExtension>
            <ns3:atemp>15.0</ns3:atemp>
            <ns3:hr>102</ns3:hr>
          </ns3:TrackPointExtension>
        </extensions>
      </trkpt>
      <trkpt lat="48.46931397914886474609375" lon="-2.149648033082485198974609375">
        <ele>111</ele>
        <time>2026-05-07T10:39:05.000Z</time>
        <extensions>
          <ns3:TrackPointExtension>
            <ns3:atemp>15.0</ns3:atemp>
            <ns3:hr>102</ns3:hr>
          </ns3:TrackPointExtension>
        </extensions>
      </trkpt>
      <trkpt lat="48.46931540407240390777587890625" lon="-2.14954367838799953460693359375">
        <ele>110.59999847412109375</ele>
        <time>2026-05-07T10:39:11.000Z</time>
        <extensions>
          <ns3:TrackPointExtension>
            <ns3:atemp>15.0</ns3:atemp>
            <ns3:hr>101</ns3:hr>
          </ns3:TrackPointExtension>
        </extensions>
      </trkpt>
      <trkpt lat="48.46932135522365570068359375" lon="-2.1494329534471035003662109375">
        <ele>110.1999969482421875</ele>
        <time>2026-05-07T10:39:17.000Z</time>
        <extensions>
          <ns3:TrackPointExtension>
            <ns3:atemp>15.0</ns3:atemp>
            <ns3:hr>99</ns3:hr>
          </ns3:TrackPointExtension>
        </extensions>
      </trkpt>
      <trkpt lat="48.469324372708797454833984375" lon="-2.1493565104901790618896484375">
        <ele>110</ele>
        <time>2026-05-07T10:39:21.000Z</time>
        <extensions>
          <ns3:TrackPointExtension>
            <ns3:atemp>15.0</ns3:atemp>
            <ns3:hr>100</ns3:hr>
          </ns3:TrackPointExtension>
        </extensions>
      </trkpt>
      <trkpt lat="48.46933183260262012481689453125" lon="-2.14932122267782688140869140625">
        <ele>110</ele>
        <time>2026-05-07T10:39:23.000Z</time>
        <extensions>
          <ns3:TrackPointExtension>
            <ns3:atemp>15.0</ns3:atemp>
            <ns3:hr>100</ns3:hr>
          </ns3:TrackPointExtension>
        </extensions>
      </trkpt>
      <trkpt lat="48.46934071741998195648193359375" lon="-2.14919507503509521484375">
        <ele>109.8000030517578125</ele>
        <time>2026-05-07T10:39:30.000Z</time>
        <extensions>
          <ns3:TrackPointExtension>
            <ns3:atemp>15.0</ns3:atemp>
            <ns3:hr>97</ns3:hr>
          </ns3:TrackPointExtension>
        </extensions>
      </trkpt>
      <trkpt lat="48.46935085952281951904296875" lon="-2.14908451773226261138916015625">
        <ele>109.40000152587890625</ele>
        <time>2026-05-07T10:39:36.000Z</time>
        <extensions>
          <ns3:TrackPointExtension>
            <ns3:atemp>15.0</ns3:atemp>
            <ns3:hr>96</ns3:hr>
          </ns3:TrackPointExtension>
        </extensions>
      </trkpt>
      <trkpt lat="48.469347171485424041748046875" lon="-2.148960717022418975830078125">
        <ele>109.1999969482421875</ele>
        <time>2026-05-07T10:39:43.000Z</time>
        <extensions>
          <ns3:TrackPointExtension>
            <ns3:atemp>15.0</ns3:atemp>
            <ns3:hr>95</ns3:hr>
          </ns3:TrackPointExtension>
        </extensions>
      </trkpt>
      <trkpt lat="48.46935354173183441162109375" lon="-2.14888268150389194488525390625">
        <ele>109.1999969482421875</ele>
        <time>2026-05-07T10:39:48.000Z</time>
        <extensions>
          <ns3:TrackPointExtension>
            <ns3:atemp>15.0</ns3:atemp>
            <ns3:hr>94</ns3:hr>
          </ns3:TrackPointExtension>
        </extensions>
      </trkpt>
      <trkpt lat="48.4693587385118007659912109375" lon="-2.14883364737033843994140625">
        <ele>109</ele>
        <time>2026-05-07T10:39:51.000Z</time>
        <extensions>
          <ns3:TrackPointExtension>
            <ns3:atemp>15.0</ns3:atemp>
            <ns3:hr>94</ns3:hr>
          </ns3:TrackPointExtension>
        </extensions>
      </trkpt>
      <trkpt lat="48.46935756504535675048828125" lon="-2.14878343977034091949462890625">
        <ele>108.8000030517578125</ele>
        <time>2026-05-07T10:39:54.000Z</time>
        <extensions>
          <ns3:TrackPointExtension>
            <ns3:atemp>15.0</ns3:atemp>
            <ns3:hr>93</ns3:hr>
          </ns3:TrackPointExtension>
        </extensions>
      </trkpt>
      <trkpt lat="48.469352535903453826904296875" lon="-2.14864999987185001373291015625">
        <ele>108.8000030517578125</ele>
        <time>2026-05-07T10:40:02.000Z</time>
        <extensions>
          <ns3:TrackPointExtension>
            <ns3:atemp>15.0</ns3:atemp>
            <ns3:hr>91</ns3:hr>
          </ns3:TrackPointExtension>
        </extensions>
      </trkpt>
      <trkpt lat="48.46933216787874698638916015625" lon="-2.14853994548320770263671875">
        <ele>108.59999847412109375</ele>
        <time>2026-05-07T10:40:08.000Z</time>
        <extensions>
          <ns3:TrackPointExtension>
            <ns3:atemp>15.0</ns3:atemp>
            <ns3:hr>90</ns3:hr>
          </ns3:TrackPointExtension>
        </extensions>
      </trkpt>
      <trkpt lat="48.4693099558353424072265625" lon="-2.1484422124922275543212890625">
        <ele>108.1999969482421875</ele>
        <time>2026-05-07T10:40:14.000Z</time>
        <extensions>
          <ns3:TrackPointExtension>
            <ns3:atemp>15.0</ns3:atemp>
            <ns3:hr>89</ns3:hr>
          </ns3:TrackPointExtension>
        </extensions>
      </trkpt>
      <trkpt lat="48.4692750871181488037109375" lon="-2.148328721523284912109375">
        <ele>108</ele>
        <time>2026-05-07T10:40:21.000Z</time>
        <extensions>
          <ns3:TrackPointExtension>
            <ns3:atemp>15.0</ns3:atemp>
            <ns3:hr>88</ns3:hr>
          </ns3:TrackPointExtension>
        </extensions>
      </trkpt>
      <trkpt lat="48.46925698220729827880859375" lon="-2.14827717281877994537353515625">
        <ele>108</ele>
        <time>2026-05-07T10:40:24.000Z</time>
        <extensions>
          <ns3:TrackPointExtension>
            <ns3:atemp>15.0</ns3:atemp>
            <ns3:hr>89</ns3:hr>
          </ns3:TrackPointExtension>
        </extensions>
      </trkpt>
      <trkpt lat="48.46924315206706523895263671875" lon="-2.14823459275066852569580078125">
        <ele>107.8000030517578125</ele>
        <time>2026-05-07T10:40:27.000Z</time>
        <extensions>
          <ns3:TrackPointExtension>
            <ns3:atemp>15.0</ns3:atemp>
            <ns3:hr>89</ns3:hr>
          </ns3:TrackPointExtension>
        </extensions>
      </trkpt>
      <trkpt lat="48.469204008579254150390625" lon="-2.14814758859574794769287109375">
        <ele>107.59999847412109375</ele>
        <time>2026-05-07T10:40:32.000Z</time>
        <extensions>
          <ns3:TrackPointExtension>
            <ns3:atemp>15.0</ns3:atemp>
            <ns3:hr>89</ns3:hr>
          </ns3:TrackPointExtension>
        </extensions>
      </trkpt>
      <trkpt lat="48.469189591705799102783203125" lon="-2.1481082774698734283447265625">
        <ele>107.40000152587890625</ele>
        <time>2026-05-07T10:40:37.000Z</time>
        <extensions>
          <ns3:TrackPointExtension>
            <ns3:atemp>15.0</ns3:atemp>
            <ns3:hr>88</ns3:hr>
          </ns3:TrackPointExtension>
        </extensions>
      </trkpt>
      <trkpt lat="48.46913670189678668975830078125" lon="-2.14797324500977993011474609375">
        <ele>107.40000152587890625</ele>
        <time>2026-05-07T10:40:46.000Z</time>
        <extensions>
          <ns3:TrackPointExtension>
            <ns3:atemp>15.0</ns3:atemp>
            <ns3:hr>89</ns3:hr>
          </ns3:TrackPointExtension>
        </extensions>
      </trkpt>
      <trkpt lat="48.46913334913551807403564453125" lon="-2.14783729054033756256103515625">
        <ele>107.59999847412109375</ele>
        <time>2026-05-07T10:40:53.000Z</time>
        <extensions>
          <ns3:TrackPointExtension>
            <ns3:atemp>15.0</ns3:atemp>
            <ns3:hr>89</ns3:hr>
          </ns3:TrackPointExtension>
        </extensions>
      </trkpt>
      <trkpt lat="48.46913653425872325897216796875" lon="-2.147765457630157470703125">
        <ele>107.59999847412109375</ele>
        <time>2026-05-07T10:40:58.000Z</time>
        <extensions>
          <ns3:TrackPointExtension>
            <ns3:atemp>15.0</ns3:atemp>
            <ns3:hr>88</ns3:hr>
          </ns3:TrackPointExtension>
        </extensions>
      </trkpt>
      <trkpt lat="48.46915631555020809173583984375" lon="-2.1476935409009456634521484375">
        <ele>107.40000152587890625</ele>
        <time>2026-05-07T10:41:03.000Z</time>
        <extensions>
          <ns3:TrackPointExtension>
            <ns3:atemp>15.0</ns3:atemp>
            <ns3:hr>89</ns3:hr>
          </ns3:TrackPointExtension>
        </extensions>
      </trkpt>
      <trkpt lat="48.4691807068884372711181640625" lon="-2.14760628528892993927001953125">
        <ele>107</ele>
        <time>2026-05-07T10:41:08.000Z</time>
        <extensions>
          <ns3:TrackPointExtension>
            <ns3:atemp>15.0</ns3:atemp>
            <ns3:hr>90</ns3:hr>
          </ns3:TrackPointExtension>
        </extensions>
      </trkpt>
      <trkpt lat="48.46918531693518161773681640625" lon="-2.14758650399744510650634765625">
        <ele>107</ele>
        <time>2026-05-07T10:41:09.000Z</time>
        <extensions>
          <ns3:TrackPointExtension>
            <ns3:atemp>15.0</ns3:atemp>
            <ns3:hr>91</ns3:hr>
          </ns3:TrackPointExtension>
        </extensions>
      </trkpt>
      <trkpt lat="48.46921096555888652801513671875" lon="-2.1475305967032909393310546875">
        <ele>106.8000030517578125</ele>
        <time>2026-05-07T10:41:14.000Z</time>
        <extensions>
          <ns3:TrackPointExtension>
            <ns3:atemp>15.0</ns3:atemp>
            <ns3:hr>91</ns3:hr>
          </ns3:TrackPointExtension>
        </extensions>
      </trkpt>
      <trkpt lat="48.46923527307808399200439453125" lon="-2.14745096862316131591796875">
        <ele>106.40000152587890625</ele>
        <time>2026-05-07T10:41:19.000Z</time>
        <extensions>
          <ns3:TrackPointExtension>
            <ns3:atemp>15.0</ns3:atemp>
            <ns3:hr>90</ns3:hr>
          </ns3:TrackPointExtension>
        </extensions>
      </trkpt>
      <trkpt lat="48.46926310099661350250244140625" lon="-2.14736237190663814544677734375">
        <ele>106</ele>
        <time>2026-05-07T10:41:26.000Z</time>
        <extensions>
          <ns3:TrackPointExtension>
            <ns3:atemp>15.0</ns3:atemp>
            <ns3:hr>89</ns3:hr>
          </ns3:TrackPointExtension>
        </extensions>
      </trkpt>
      <trkpt lat="48.46929411403834819793701171875" lon="-2.14725307188928127288818359375">
        <ele>105.40000152587890625</ele>
        <time>2026-05-07T10:41:32.000Z</time>
        <extensions>
          <ns3:TrackPointExtension>
            <ns3:atemp>15.0</ns3:atemp>
            <ns3:hr>89</ns3:hr>
          </ns3:TrackPointExtension>
        </extensions>
      </trkpt>
      <trkpt lat="48.46934013068675994873046875" lon="-2.14715064503252506256103515625">
        <ele>105</ele>
        <time>2026-05-07T10:41:39.000Z</time>
        <extensions>
          <ns3:TrackPointExtension>
            <ns3:atemp>15.0</ns3:atemp>
            <ns3:hr>89</ns3:hr>
          </ns3:TrackPointExtension>
        </extensions>
      </trkpt>
      <trkpt lat="48.46935194917023181915283203125" lon="-2.14712633751332759857177734375">
        <ele>104.8000030517578125</ele>
        <time>2026-05-07T10:41:41.000Z</time>
        <extensions>
          <ns3:TrackPointExtension>
            <ns3:atemp>15.0</ns3:atemp>
            <ns3:hr>88</ns3:hr>
          </ns3:TrackPointExtension>
        </extensions>
      </trkpt>
      <trkpt lat="48.4693716466426849365234375" lon="-2.14705224148929119110107421875">
        <ele>104.59999847412109375</ele>
        <time>2026-05-07T10:41:45.000Z</time>
        <extensions>
          <ns3:TrackPointExtension>
            <ns3:atemp>15.0</ns3:atemp>
            <ns3:hr>86</ns3:hr>
          </ns3:TrackPointExtension>
        </extensions>
      </trkpt>
      <trkpt lat="48.4693989716470241546630859375" lon="-2.14694998227059841156005859375">
        <ele>104.40000152587890625</ele>
        <time>2026-05-07T10:41:51.000Z</time>
        <extensions>
          <ns3:TrackPointExtension>
            <ns3:atemp>15.0</ns3:atemp>
            <ns3:hr>85</ns3:hr>
          </ns3:TrackPointExtension>
        </extensions>
      </trkpt>
      <trkpt lat="48.4694381989538669586181640625" lon="-2.1468494832515716552734375">
        <ele>104.1999969482421875</ele>
        <time>2026-05-07T10:41:57.000Z</time>
        <extensions>
          <ns3:TrackPointExtension>
            <ns3:atemp>15.0</ns3:atemp>
            <ns3:hr>86</ns3:hr>
          </ns3:TrackPointExtension>
        </extensions>
      </trkpt>
      <trkpt lat="48.46945018507540225982666015625" lon="-2.14681721292436122894287109375">
        <ele>103.8000030517578125</ele>
        <time>2026-05-07T10:42:00.000Z</time>
        <extensions>
          <ns3:TrackPointExtension>
            <ns3:atemp>15.0</ns3:atemp>
            <ns3:hr>87</ns3:hr>
          </ns3:TrackPointExtension>
        </extensions>
      </trkpt>
      <trkpt lat="48.46946007572114467620849609375" lon="-2.14678854681551456451416015625">
        <ele>103.59999847412109375</ele>
        <time>2026-05-07T10:42:02.000Z</time>
        <extensions>
          <ns3:TrackPointExtension>
            <ns3:atemp>15.0</ns3:atemp>
            <ns3:hr>87</ns3:hr>
          </ns3:TrackPointExtension>
        </extensions>
      </trkpt>
      <trkpt lat="48.4694915078580379486083984375" lon="-2.14667337946593761444091796875">
        <ele>103</ele>
        <time>2026-05-07T10:42:09.000Z</time>
        <extensions>
          <ns3:TrackPointExtension>
            <ns3:atemp>15.0</ns3:atemp>
            <ns3:hr>86</ns3:hr>
          </ns3:TrackPointExtension>
        </extensions>
      </trkpt>
      <trkpt lat="48.46952059306204319000244140625" lon="-2.146602384746074676513671875">
        <ele>102.8000030517578125</ele>
        <time>2026-05-07T10:42:13.000Z</time>
        <extensions>
          <ns3:TrackPointExtension>
            <ns3:atemp>15.0</ns3:atemp>
            <ns3:hr>86</ns3:hr>
          </ns3:TrackPointExtension>
        </extensions>
      </trkpt>
      <trkpt lat="48.46954154781997203826904296875" lon="-2.14653641916811466217041015625">
        <ele>102.59999847412109375</ele>
        <time>2026-05-07T10:42:17.000Z</time>
        <extensions>
          <ns3:TrackPointExtension>
            <ns3:atemp>15.0</ns3:atemp>
            <ns3:hr>86</ns3:hr>
          </ns3:TrackPointExtension>
        </extensions>
      </trkpt>
      <trkpt lat="48.46956535242497920989990234375" lon="-2.14645880274474620819091796875">
        <ele>102.1999969482421875</ele>
        <time>2026-05-07T10:42:22.000Z</time>
        <extensions>
          <ns3:TrackPointExtension>
            <ns3:atemp>14.0</ns3:atemp>
            <ns3:hr>85</ns3:hr>
          </ns3:TrackPointExtension>
        </extensions>
      </trkpt>
      <trkpt lat="48.46956803463399410247802734375" lon="-2.146440781652927398681640625">
        <ele>102</ele>
        <time>2026-05-07T10:42:23.000Z</time>
        <extensions>
          <ns3:TrackPointExtension>
            <ns3:atemp>14.0</ns3:atemp>
            <ns3:hr>84</ns3:hr>
          </ns3:TrackPointExtension>
        </extensions>
      </trkpt>
      <trkpt lat="48.4695605747401714324951171875" lon="-2.14643533341586589813232421875">
        <ele>101.8000030517578125</ele>
        <time>2026-05-07T10:42:28.000Z</time>
        <extensions>
          <ns3:TrackPointExtension>
            <ns3:atemp>14.0</ns3:atemp>
            <ns3:hr>83</ns3:hr>
          </ns3:TrackPointExtension>
        </extensions>
      </trkpt>
      <trkpt lat="48.46956417895853519439697265625" lon="-2.146424353122711181640625">
        <ele>101.8000030517578125</ele>
        <time>2026-05-07T10:42:30.000Z</time>
        <extensions>
          <ns3:TrackPointExtension>
            <ns3:atemp>14.0</ns3:atemp>
            <ns3:hr>83</ns3:hr>
          </ns3:TrackPointExtension>
        </extensions>
      </trkpt>
      <trkpt lat="48.46956937573850154876708984375" lon="-2.14640490710735321044921875">
        <ele>101.8000030517578125</ele>
        <time>2026-05-07T10:42:33.000Z</time>
        <extensions>
          <ns3:TrackPointExtension>
            <ns3:atemp>14.0</ns3:atemp>
            <ns3:hr>83</ns3:hr>
          </ns3:TrackPointExtension>
        </extensions>
      </trkpt>
      <trkpt lat="48.46956635825335979461669921875" lon="-2.14639551937580108642578125">
        <ele>101.59999847412109375</ele>
        <time>2026-05-07T10:42:37.000Z</time>
        <extensions>
          <ns3:TrackPointExtension>
            <ns3:atemp>14.0</ns3:atemp>
            <ns3:hr>83</ns3:hr>
          </ns3:TrackPointExtension>
        </extensions>
      </trkpt>
      <trkpt lat="48.46958178095519542694091796875" lon="-2.14633860625326633453369140625">
        <ele>101.40000152587890625</ele>
        <time>2026-05-07T10:42:43.000Z</time>
        <extensions>
          <ns3:TrackPointExtension>
            <ns3:atemp>14.0</ns3:atemp>
            <ns3:hr>82</ns3:hr>
          </ns3:TrackPointExtension>
        </extensions>
      </trkpt>
      <trkpt lat="48.469616733491420745849609375" lon="-2.146273143589496612548828125">
        <ele>101.1999969482421875</ele>
        <time>2026-05-07T10:42:48.000Z</time>
        <extensions>
          <ns3:TrackPointExtension>
            <ns3:atemp>14.0</ns3:atemp>
            <ns3:hr>82</ns3:hr>
          </ns3:TrackPointExtension>
        </extensions>
      </trkpt>
      <trkpt lat="48.46965135075151920318603515625" lon="-2.14619779027998447418212890625">
        <ele>100.8000030517578125</ele>
        <time>2026-05-07T10:42:53.000Z</time>
        <extensions>
          <ns3:TrackPointExtension>
            <ns3:atemp>14.0</ns3:atemp>
            <ns3:hr>83</ns3:hr>
          </ns3:TrackPointExtension>
        </extensions>
      </trkpt>
      <trkpt lat="48.4696561284363269805908203125" lon="-2.1461858041584491729736328125">
        <ele>100.59999847412109375</ele>
        <time>2026-05-07T10:42:54.000Z</time>
        <extensions>
          <ns3:TrackPointExtension>
            <ns3:atemp>14.0</ns3:atemp>
            <ns3:hr>83</ns3:hr>
          </ns3:TrackPointExtension>
        </extensions>
      </trkpt>
      <trkpt lat="48.4696854650974273681640625" lon="-2.14609804563224315643310546875">
        <ele>100</ele>
        <time>2026-05-07T10:42:59.000Z</time>
        <extensions>
          <ns3:TrackPointExtension>
            <ns3:atemp>14.0</ns3:atemp>
            <ns3:hr>81</ns3:hr>
          </ns3:TrackPointExtension>
        </extensions>
      </trkpt>
      <trkpt lat="48.4697017259895801544189453125" lon="-2.14602294377982616424560546875">
        <ele>99.8000030517578125</ele>
        <time>2026-05-07T10:43:04.000Z</time>
        <extensions>
          <ns3:TrackPointExtension>
            <ns3:atemp>14.0</ns3:atemp>
            <ns3:hr>80</ns3:hr>
          </ns3:TrackPointExtension>
        </extensions>
      </trkpt>
      <trkpt lat="48.46971035934984683990478515625" lon="-2.14600467123091220855712890625">
        <ele>99.59999847412109375</ele>
        <time>2026-05-07T10:43:05.000Z</time>
        <extensions>
          <ns3:TrackPointExtension>
            <ns3:atemp>14.0</ns3:atemp>
            <ns3:hr>81</ns3:hr>
          </ns3:TrackPointExtension>
        </extensions>
      </trkpt>
      <trkpt lat="48.46973919309675693511962890625" lon="-2.14594784192740917205810546875">
        <ele>99</ele>
        <time>2026-05-07T10:43:09.000Z</time>
        <extensions>
          <ns3:TrackPointExtension>
            <ns3:atemp>14.0</ns3:atemp>
            <ns3:hr>82</ns3:hr>
          </ns3:TrackPointExtension>
        </extensions>
      </trkpt>
      <trkpt lat="48.4697768278419971466064453125" lon="-2.14588849805295467376708984375">
        <ele>98.8000030517578125</ele>
        <time>2026-05-07T10:43:13.000Z</time>
        <extensions>
          <ns3:TrackPointExtension>
            <ns3:atemp>14.0</ns3:atemp>
            <ns3:hr>84</ns3:hr>
          </ns3:TrackPointExtension>
        </extensions>
      </trkpt>
      <trkpt lat="48.4698016382753849029541015625" lon="-2.145821861922740936279296875">
        <ele>98.40000152587890625</ele>
        <time>2026-05-07T10:43:17.000Z</time>
        <extensions>
          <ns3:TrackPointExtension>
            <ns3:atemp>14.0</ns3:atemp>
            <ns3:hr>84</ns3:hr>
          </ns3:TrackPointExtension>
        </extensions>
      </trkpt>
      <trkpt lat="48.46981748007237911224365234375" lon="-2.1457858197391033172607421875">
        <ele>98.1999969482421875</ele>
        <time>2026-05-07T10:43:19.000Z</time>
        <extensions>
          <ns3:TrackPointExtension>
            <ns3:atemp>14.0</ns3:atemp>
            <ns3:hr>83</ns3:hr>
          </ns3:TrackPointExtension>
        </extensions>
      </trkpt>
      <trkpt lat="48.46985117532312870025634765625" lon="-2.14571381919085979461669921875">
        <ele>97.59999847412109375</ele>
        <time>2026-05-07T10:43:25.000Z</time>
        <extensions>
          <ns3:TrackPointExtension>
            <ns3:atemp>14.0</ns3:atemp>
            <ns3:hr>84</ns3:hr>
          </ns3:TrackPointExtension>
        </extensions>
      </trkpt>
      <trkpt lat="48.46985377371311187744140625" lon="-2.14570191688835620880126953125">
        <ele>97.40000152587890625</ele>
        <time>2026-05-07T10:43:27.000Z</time>
        <extensions>
          <ns3:TrackPointExtension>
            <ns3:atemp>14.0</ns3:atemp>
            <ns3:hr>84</ns3:hr>
          </ns3:TrackPointExtension>
        </extensions>
      </trkpt>
      <trkpt lat="48.469862826168537139892578125" lon="-2.1456813812255859375">
        <ele>97.1999969482421875</ele>
        <time>2026-05-07T10:43:34.000Z</time>
        <extensions>
          <ns3:TrackPointExtension>
            <ns3:atemp>14.0</ns3:atemp>
            <ns3:hr>84</ns3:hr>
          </ns3:TrackPointExtension>
        </extensions>
      </trkpt>
      <trkpt lat="48.46990247257053852081298828125" lon="-2.14559714309871196746826171875">
        <ele>96.8000030517578125</ele>
        <time>2026-05-07T10:43:39.000Z</time>
        <extensions>
          <ns3:TrackPointExtension>
            <ns3:atemp>14.0</ns3:atemp>
            <ns3:hr>83</ns3:hr>
          </ns3:TrackPointExtension>
        </extensions>
      </trkpt>
      <trkpt lat="48.46995192579925060272216796875" lon="-2.14551416225731372833251953125">
        <ele>96.40000152587890625</ele>
        <time>2026-05-07T10:43:44.000Z</time>
        <extensions>
          <ns3:TrackPointExtension>
            <ns3:atemp>14.0</ns3:atemp>
            <ns3:hr>84</ns3:hr>
          </ns3:TrackPointExtension>
        </extensions>
      </trkpt>
      <trkpt lat="48.46999299712479114532470703125" lon="-2.1454542316496372222900390625">
        <ele>95.8000030517578125</ele>
        <time>2026-05-07T10:43:49.000Z</time>
        <extensions>
          <ns3:TrackPointExtension>
            <ns3:atemp>14.0</ns3:atemp>
            <ns3:hr>83</ns3:hr>
          </ns3:TrackPointExtension>
        </extensions>
      </trkpt>
      <trkpt lat="48.47003675065934658050537109375" lon="-2.14538290165364742279052734375">
        <ele>95.40000152587890625</ele>
        <time>2026-05-07T10:43:54.000Z</time>
        <extensions>
          <ns3:TrackPointExtension>
            <ns3:atemp>14.0</ns3:atemp>
            <ns3:hr>82</ns3:hr>
          </ns3:TrackPointExtension>
        </extensions>
      </trkpt>
      <trkpt lat="48.47004379145801067352294921875" lon="-2.14537183754146099090576171875">
        <ele>95.40000152587890625</ele>
        <time>2026-05-07T10:43:55.000Z</time>
        <extensions>
          <ns3:TrackPointExtension>
            <ns3:atemp>14.0</ns3:atemp>
            <ns3:hr>82</ns3:hr>
          </ns3:TrackPointExtension>
        </extensions>
      </trkpt>
      <trkpt lat="48.47010799683630466461181640625" lon="-2.1453046984970569610595703125">
        <ele>94.40000152587890625</ele>
        <time>2026-05-07T10:44:01.000Z</time>
        <extensions>
          <ns3:TrackPointExtension>
            <ns3:atemp>14.0</ns3:atemp>
            <ns3:hr>82</ns3:hr>
          </ns3:TrackPointExtension>
        </extensions>
      </trkpt>
      <trkpt lat="48.470163233578205108642578125" lon="-2.145239152014255523681640625">
        <ele>94.1999969482421875</ele>
        <time>2026-05-07T10:44:07.000Z</time>
        <extensions>
          <ns3:TrackPointExtension>
            <ns3:atemp>14.0</ns3:atemp>
            <ns3:hr>82</ns3:hr>
          </ns3:TrackPointExtension>
        </extensions>
      </trkpt>
      <trkpt lat="48.470212519168853759765625" lon="-2.14512473903596401214599609375">
        <ele>93.59999847412109375</ele>
        <time>2026-05-07T10:44:14.000Z</time>
        <extensions>
          <ns3:TrackPointExtension>
            <ns3:atemp>14.0</ns3:atemp>
            <ns3:hr>82</ns3:hr>
          </ns3:TrackPointExtension>
        </extensions>
      </trkpt>
      <trkpt lat="48.47022182308137416839599609375" lon="-2.14506388641893863677978515625">
        <ele>93.1999969482421875</ele>
        <time>2026-05-07T10:44:17.000Z</time>
        <extensions>
          <ns3:TrackPointExtension>
            <ns3:atemp>14.0</ns3:atemp>
            <ns3:hr>82</ns3:hr>
          </ns3:TrackPointExtension>
        </extensions>
      </trkpt>
      <trkpt lat="48.470253758132457733154296875" lon="-2.14498761110007762908935546875">
        <ele>93</ele>
        <time>2026-05-07T10:44:22.000Z</time>
        <extensions>
          <ns3:TrackPointExtension>
            <ns3:atemp>14.0</ns3:atemp>
            <ns3:hr>81</ns3:hr>
          </ns3:TrackPointExtension>
        </extensions>
      </trkpt>
      <trkpt lat="48.47031117416918277740478515625" lon="-2.1448923088610172271728515625">
        <ele>92.8000030517578125</ele>
        <time>2026-05-07T10:44:29.000Z</time>
        <extensions>
          <ns3:TrackPointExtension>
            <ns3:atemp>14.0</ns3:atemp>
            <ns3:hr>82</ns3:hr>
          </ns3:TrackPointExtension>
        </extensions>
      </trkpt>
      <trkpt lat="48.47038174979388713836669921875" lon="-2.14483807794749736785888671875">
        <ele>92.59999847412109375</ele>
        <time>2026-05-07T10:44:35.000Z</time>
        <extensions>
          <ns3:TrackPointExtension>
            <ns3:atemp>14.0</ns3:atemp>
            <ns3:hr>82</ns3:hr>
          </ns3:TrackPointExtension>
        </extensions>
      </trkpt>
      <trkpt lat="48.47041343338787555694580078125" lon="-2.1447652392089366912841796875">
        <ele>92.1999969482421875</ele>
        <time>2026-05-07T10:44:40.000Z</time>
        <extensions>
          <ns3:TrackPointExtension>
            <ns3:atemp>14.0</ns3:atemp>
            <ns3:hr>83</ns3:hr>
          </ns3:TrackPointExtension>
        </extensions>
      </trkpt>
      <trkpt lat="48.47040220163762569427490234375" lon="-2.14475543238222599029541015625">
        <ele>92.1999969482421875</ele>
        <time>2026-05-07T10:44:41.000Z</time>
        <extensions>
          <ns3:TrackPointExtension>
            <ns3:atemp>14.0</ns3:atemp>
            <ns3:hr>83</ns3:hr>
          </ns3:TrackPointExtension>
        </extensions>
      </trkpt>
      <trkpt lat="48.4703913889825344085693359375" lon="-2.14474168606102466583251953125">
        <ele>92.1999969482421875</ele>
        <time>2026-05-07T10:44:42.000Z</time>
        <extensions>
          <ns3:TrackPointExtension>
            <ns3:atemp>14.0</ns3:atemp>
            <ns3:hr>82</ns3:hr>
          </ns3:TrackPointExtension>
        </extensions>
      </trkpt>
      <trkpt lat="48.4703850187361240386962890625" lon="-2.14472475461661815643310546875">
        <ele>92</ele>
        <time>2026-05-07T10:44:43.000Z</time>
        <extensions>
          <ns3:TrackPointExtension>
            <ns3:atemp>14.0</ns3:atemp>
            <ns3:hr>82</ns3:hr>
          </ns3:TrackPointExtension>
        </extensions>
      </trkpt>
      <trkpt lat="48.47037403844296932220458984375" lon="-2.14468619786202907562255859375">
        <ele>91.8000030517578125</ele>
        <time>2026-05-07T10:44:45.000Z</time>
        <extensions>
          <ns3:TrackPointExtension>
            <ns3:atemp>14.0</ns3:atemp>
            <ns3:hr>82</ns3:hr>
          </ns3:TrackPointExtension>
        </extensions>
      </trkpt>
      <trkpt lat="48.47035660408437252044677734375" lon="-2.14463339187204837799072265625">
        <ele>91.59999847412109375</ele>
        <time>2026-05-07T10:44:51.000Z</time>
        <extensions>
          <ns3:TrackPointExtension>
            <ns3:atemp>14.0</ns3:atemp>
            <ns3:hr>80</ns3:hr>
          </ns3:TrackPointExtension>
        </extensions>
      </trkpt>
      <trkpt lat="48.47035744227468967437744140625" lon="-2.144639007747173309326171875">
        <ele>91.59999847412109375</ele>
        <time>2026-05-07T10:44:56.000Z</time>
        <extensions>
          <ns3:TrackPointExtension>
            <ns3:atemp>14.0</ns3:atemp>
            <ns3:hr>83</ns3:hr>
          </ns3:TrackPointExtension>
        </extensions>
      </trkpt>
      <trkpt lat="48.47035777755081653594970703125" lon="-2.14464428834617137908935546875">
        <ele>91.59999847412109375</ele>
        <time>2026-05-07T10:45:04.000Z</time>
        <extensions>
          <ns3:TrackPointExtension>
            <ns3:atemp>14.0</ns3:atemp>
            <ns3:hr>85</ns3:hr>
          </ns3:TrackPointExtension>
        </extensions>
      </trkpt>
      <trkpt lat="48.47035777755081653594970703125" lon="-2.14464428834617137908935546875">
        <ele>91.59999847412109375</ele>
        <time>2026-05-07T10:45:16.000Z</time>
        <extensions>
          <ns3:TrackPointExtension>
            <ns3:atemp>14.0</ns3:atemp>
            <ns3:hr>88</ns3:hr>
          </ns3:TrackPointExtension>
        </extensions>
      </trkpt>
      <trkpt lat="48.47035777755081653594970703125" lon="-2.14464428834617137908935546875">
        <ele>91.59999847412109375</ele>
        <time>2026-05-07T10:45:23.000Z</time>
        <extensions>
          <ns3:TrackPointExtension>
            <ns3:atemp>14.0</ns3:atemp>
            <ns3:hr>88</ns3:hr>
          </ns3:TrackPointExtension>
        </extensions>
      </trkpt>
      <trkpt lat="48.4703613817691802978515625" lon="-2.14464194141328334808349609375">
        <ele>91.59999847412109375</ele>
        <time>2026-05-07T10:45:25.000Z</time>
        <extensions>
          <ns3:TrackPointExtension>
            <ns3:atemp>14.0</ns3:atemp>
            <ns3:hr>85</ns3:hr>
          </ns3:TrackPointExtension>
        </extensions>
      </trkpt>
      <trkpt lat="48.47035593353211879730224609375" lon="-2.14462450705468654632568359375">
        <ele>91.40000152587890625</ele>
        <time>2026-05-07T10:45:32.000Z</time>
        <extensions>
          <ns3:TrackPointExtension>
            <ns3:atemp>14.0</ns3:atemp>
            <ns3:hr>83</ns3:hr>
          </ns3:TrackPointExtension>
        </extensions>
      </trkpt>
      <trkpt lat="48.4703622199594974517822265625" lon="-2.14464135468006134033203125">
        <ele>91.40000152587890625</ele>
        <time>2026-05-07T10:45:41.000Z</time>
        <extensions>
          <ns3:TrackPointExtension>
            <ns3:atemp>14.0</ns3:atemp>
            <ns3:hr>84</ns3:hr>
          </ns3:TrackPointExtension>
        </extensions>
      </trkpt>
      <trkpt lat="48.470367752015590667724609375" lon="-2.1446514129638671875">
        <ele>91.40000152587890625</ele>
        <time>2026-05-07T10:45:49.000Z</time>
        <extensions>
          <ns3:TrackPointExtension>
            <ns3:atemp>14.0</ns3:atemp>
            <ns3:hr>84</ns3:hr>
          </ns3:TrackPointExtension>
        </extensions>
      </trkpt>
      <trkpt lat="48.4703826718032360076904296875" lon="-2.144672870635986328125">
        <ele>91.40000152587890625</ele>
        <time>2026-05-07T10:45:56.000Z</time>
        <extensions>
          <ns3:TrackPointExtension>
            <ns3:atemp>14.0</ns3:atemp>
            <ns3:hr>85</ns3:hr>
          </ns3:TrackPointExtension>
        </extensions>
      </trkpt>
      <trkpt lat="48.47041544504463672637939453125" lon="-2.144693322479724884033203125">
        <ele>91</ele>
        <time>2026-05-07T10:46:00.000Z</time>
        <extensions>
          <ns3:TrackPointExtension>
            <ns3:atemp>14.0</ns3:atemp>
            <ns3:hr>85</ns3:hr>
          </ns3:TrackPointExtension>
        </extensions>
      </trkpt>
      <trkpt lat="48.47043070010840892791748046875" lon="-2.14470312930643558502197265625">
        <ele>91.1999969482421875</ele>
        <time>2026-05-07T10:46:03.000Z</time>
        <extensions>
          <ns3:TrackPointExtension>
            <ns3:atemp>14.0</ns3:atemp>
            <ns3:hr>83</ns3:hr>
          </ns3:TrackPointExtension>
        </extensions>
      </trkpt>
      <trkpt lat="48.4704852662980556488037109375" lon="-2.14480455033481121063232421875">
        <ele>91.59999847412109375</ele>
        <time>2026-05-07T10:46:12.000Z</time>
        <extensions>
          <ns3:TrackPointExtension>
            <ns3:atemp>14.0</ns3:atemp>
            <ns3:hr>85</ns3:hr>
          </ns3:TrackPointExtension>
        </extensions>
      </trkpt>
      <trkpt lat="48.47053111530840396881103515625" lon="-2.144862301647663116455078125">
        <ele>91.59999847412109375</ele>
        <time>2026-05-07T10:46:20.000Z</time>
        <extensions>
          <ns3:TrackPointExtension>
            <ns3:atemp>14.0</ns3:atemp>
            <ns3:hr>85</ns3:hr>
          </ns3:TrackPointExtension>
        </extensions>
      </trkpt>
      <trkpt lat="48.47054637037217617034912109375" lon="-2.14492030441761016845703125">
        <ele>92</ele>
        <time>2026-05-07T10:46:24.000Z</time>
        <extensions>
          <ns3:TrackPointExtension>
            <ns3:atemp>15.0</ns3:atemp>
            <ns3:hr>83</ns3:hr>
          </ns3:TrackPointExtension>
        </extensions>
      </trkpt>
      <trkpt lat="48.47055525518953800201416015625" lon="-2.1449791453778743743896484375">
        <ele>92</ele>
        <time>2026-05-07T10:46:27.000Z</time>
        <extensions>
          <ns3:TrackPointExtension>
            <ns3:atemp>15.0</ns3:atemp>
            <ns3:hr>83</ns3:hr>
          </ns3:TrackPointExtension>
        </extensions>
      </trkpt>
      <trkpt lat="48.47055844031274318695068359375" lon="-2.1450012736022472381591796875">
        <ele>92.1999969482421875</ele>
        <time>2026-05-07T10:46:28.000Z</time>
        <extensions>
          <ns3:TrackPointExtension>
            <ns3:atemp>15.0</ns3:atemp>
            <ns3:hr>83</ns3:hr>
          </ns3:TrackPointExtension>
        </extensions>
      </trkpt>
      <trkpt lat="48.47056992352008819580078125" lon="-2.14509665966033935546875">
        <ele>92.59999847412109375</ele>
        <time>2026-05-07T10:46:34.000Z</time>
        <extensions>
          <ns3:TrackPointExtension>
            <ns3:atemp>15.0</ns3:atemp>
            <ns3:hr>84</ns3:hr>
          </ns3:TrackPointExtension>
        </extensions>
      </trkpt>
      <trkpt lat="48.470599092543125152587890625" lon="-2.1452104859054088592529296875">
        <ele>93</ele>
        <time>2026-05-07T10:46:41.000Z</time>
        <extensions>
          <ns3:TrackPointExtension>
            <ns3:atemp>15.0</ns3:atemp>
            <ns3:hr>86</ns3:hr>
          </ns3:TrackPointExtension>
        </extensions>
      </trkpt>
      <trkpt lat="48.47060303203761577606201171875" lon="-2.145229093730449676513671875">
        <ele>93.1999969482421875</ele>
        <time>2026-05-07T10:46:42.000Z</time>
        <extensions>
          <ns3:TrackPointExtension>
            <ns3:atemp>15.0</ns3:atemp>
            <ns3:hr>87</ns3:hr>
          </ns3:TrackPointExtension>
        </extensions>
      </trkpt>
      <trkpt lat="48.4706063009798526763916015625" lon="-2.14525097049772739410400390625">
        <ele>93.1999969482421875</ele>
        <time>2026-05-07T10:46:46.000Z</time>
        <extensions>
          <ns3:TrackPointExtension>
            <ns3:atemp>15.0</ns3:atemp>
            <ns3:hr>90</ns3:hr>
          </ns3:TrackPointExtension>
        </extensions>
      </trkpt>
      <trkpt lat="48.4706063009798526763916015625" lon="-2.1452520601451396942138671875">
        <ele>93.1999969482421875</ele>
        <time>2026-05-07T10:46:48.000Z</time>
        <extensions>
          <ns3:TrackPointExtension>
            <ns3:atemp>15.0</ns3:atemp>
            <ns3:hr>91</ns3:hr>
          </ns3:TrackPointExtension>
        </extensions>
      </trkpt>
      <trkpt lat="48.4706269204616546630859375" lon="-2.145321629941463470458984375">
        <ele>93.59999847412109375</ele>
        <time>2026-05-07T10:46:53.000Z</time>
        <extensions>
          <ns3:TrackPointExtension>
            <ns3:atemp>15.0</ns3:atemp>
            <ns3:hr>92</ns3:hr>
          </ns3:TrackPointExtension>
        </extensions>
      </trkpt>
      <trkpt lat="48.4706700034439563751220703125" lon="-2.145436294376850128173828125">
        <ele>94</ele>
        <time>2026-05-07T10:47:00.000Z</time>
        <extensions>
          <ns3:TrackPointExtension>
            <ns3:atemp>15.0</ns3:atemp>
            <ns3:hr>93</ns3:hr>
          </ns3:TrackPointExtension>
        </extensions>
      </trkpt>
      <trkpt lat="48.4707072190940380096435546875" lon="-2.14549656026065349578857421875">
        <ele>94.1999969482421875</ele>
        <time>2026-05-07T10:47:04.000Z</time>
        <extensions>
          <ns3:TrackPointExtension>
            <ns3:atemp>15.0</ns3:atemp>
            <ns3:hr>93</ns3:hr>
          </ns3:TrackPointExtension>
        </extensions>
      </trkpt>
      <trkpt lat="48.470722474157810211181640625" lon="-2.1455232985317707061767578125">
        <ele>94.1999969482421875</ele>
        <time>2026-05-07T10:47:06.000Z</time>
        <extensions>
          <ns3:TrackPointExtension>
            <ns3:atemp>15.0</ns3:atemp>
            <ns3:hr>93</ns3:hr>
          </ns3:TrackPointExtension>
        </extensions>
      </trkpt>
      <trkpt lat="48.47077108919620513916015625" lon="-2.1456325985491275787353515625">
        <ele>94.59999847412109375</ele>
        <time>2026-05-07T10:47:13.000Z</time>
        <extensions>
          <ns3:TrackPointExtension>
            <ns3:atemp>15.0</ns3:atemp>
            <ns3:hr>93</ns3:hr>
          </ns3:TrackPointExtension>
        </extensions>
      </trkpt>
      <trkpt lat="48.47081542946398258209228515625" lon="-2.14572102762758731842041015625">
        <ele>95.1999969482421875</ele>
        <time>2026-05-07T10:47:20.000Z</time>
        <extensions>
          <ns3:TrackPointExtension>
            <ns3:atemp>15.0</ns3:atemp>
            <ns3:hr>94</ns3:hr>
          </ns3:TrackPointExtension>
        </extensions>
      </trkpt>
      <trkpt lat="48.4708334505558013916015625" lon="-2.1457469277083873748779296875">
        <ele>95.1999969482421875</ele>
        <time>2026-05-07T10:47:22.000Z</time>
        <extensions>
          <ns3:TrackPointExtension>
            <ns3:atemp>15.0</ns3:atemp>
            <ns3:hr>94</ns3:hr>
          </ns3:TrackPointExtension>
        </extensions>
      </trkpt>
      <trkpt lat="48.47086094319820404052734375" lon="-2.14578120969235897064208984375">
        <ele>95.40000152587890625</ele>
        <time>2026-05-07T10:47:24.000Z</time>
        <extensions>
          <ns3:TrackPointExtension>
            <ns3:atemp>16.0</ns3:atemp>
            <ns3:hr>95</ns3:hr>
          </ns3:TrackPointExtension>
        </extensions>
      </trkpt>
      <trkpt lat="48.47087712027132511138916015625" lon="-2.14581549167633056640625">
        <ele>95.59999847412109375</ele>
        <time>2026-05-07T10:47:26.000Z</time>
        <extensions>
          <ns3:TrackPointExtension>
            <ns3:atemp>16.0</ns3:atemp>
            <ns3:hr>95</ns3:hr>
          </ns3:TrackPointExtension>
        </extensions>
      </trkpt>
      <trkpt lat="48.4709295071661472320556640625" lon="-2.14592386968433856964111328125">
        <ele>95.8000030517578125</ele>
        <time>2026-05-07T10:47:33.000Z</time>
        <extensions>
          <ns3:TrackPointExtension>
            <ns3:atemp>16.0</ns3:atemp>
            <ns3:hr>98</ns3:hr>
          </ns3:TrackPointExtension>
        </extensions>
      </trkpt>
      <trkpt lat="48.47093428485095500946044921875" lon="-2.1459413878619670867919921875">
        <ele>95.8000030517578125</ele>
        <time>2026-05-07T10:47:34.000Z</time>
        <extensions>
          <ns3:TrackPointExtension>
            <ns3:atemp>16.0</ns3:atemp>
            <ns3:hr>98</ns3:hr>
          </ns3:TrackPointExtension>
        </extensions>
      </trkpt>
      <trkpt lat="48.47096714191138744354248046875" lon="-2.146033085882663726806640625">
        <ele>96.1999969482421875</ele>
        <time>2026-05-07T10:47:40.000Z</time>
        <extensions>
          <ns3:TrackPointExtension>
            <ns3:atemp>16.0</ns3:atemp>
            <ns3:hr>99</ns3:hr>
          </ns3:TrackPointExtension>
        </extensions>
      </trkpt>
      <trkpt lat="48.47097820602357387542724609375" lon="-2.1460490114986896514892578125">
        <ele>96.1999969482421875</ele>
        <time>2026-05-07T10:47:41.000Z</time>
        <extensions>
          <ns3:TrackPointExtension>
            <ns3:atemp>16.0</ns3:atemp>
            <ns3:hr>99</ns3:hr>
          </ns3:TrackPointExtension>
        </extensions>
      </trkpt>
      <trkpt lat="48.471007458865642547607421875" lon="-2.14612905867397785186767578125">
        <ele>96.59999847412109375</ele>
        <time>2026-05-07T10:47:45.000Z</time>
        <extensions>
          <ns3:TrackPointExtension>
            <ns3:atemp>16.0</ns3:atemp>
            <ns3:hr>101</ns3:hr>
          </ns3:TrackPointExtension>
        </extensions>
      </trkpt>
      <trkpt lat="48.47102212719619274139404296875" lon="-2.14619426988065242767333984375">
        <ele>97</ele>
        <time>2026-05-07T10:47:49.000Z</time>
        <extensions>
          <ns3:TrackPointExtension>
            <ns3:atemp>16.0</ns3:atemp>
            <ns3:hr>104</ns3:hr>
          </ns3:TrackPointExtension>
        </extensions>
      </trkpt>
      <trkpt lat="48.471023552119731903076171875" lon="-2.14621941559016704559326171875">
        <ele>97</ele>
        <time>2026-05-07T10:47:51.000Z</time>
        <extensions>
          <ns3:TrackPointExtension>
            <ns3:atemp>16.0</ns3:atemp>
            <ns3:hr>105</ns3:hr>
          </ns3:TrackPointExtension>
        </extensions>
      </trkpt>
      <trkpt lat="48.4710247255861759185791015625" lon="-2.1462273783981800079345703125">
        <ele>97</ele>
        <time>2026-05-07T10:47:58.000Z</time>
        <extensions>
          <ns3:TrackPointExtension>
            <ns3:atemp>16.0</ns3:atemp>
            <ns3:hr>105</ns3:hr>
          </ns3:TrackPointExtension>
        </extensions>
      </trkpt>
      <trkpt lat="48.47101910971105098724365234375" lon="-2.14626618660986423492431640625">
        <ele>96.8000030517578125</ele>
        <time>2026-05-07T10:48:04.000Z</time>
        <extensions>
          <ns3:TrackPointExtension>
            <ns3:atemp>16.0</ns3:atemp>
            <ns3:hr>104</ns3:hr>
          </ns3:TrackPointExtension>
        </extensions>
      </trkpt>
      <trkpt lat="48.47096982412040233612060546875" lon="-2.14635721407830715179443359375">
        <ele>97.1999969482421875</ele>
        <time>2026-05-07T10:48:11.000Z</time>
        <extensions>
          <ns3:TrackPointExtension>
            <ns3:atemp>16.0</ns3:atemp>
            <ns3:hr>102</ns3:hr>
          </ns3:TrackPointExtension>
        </extensions>
      </trkpt>
      <trkpt lat="48.47095993347465991973876953125" lon="-2.14640029706060886383056640625">
        <ele>97.1999969482421875</ele>
        <time>2026-05-07T10:48:17.000Z</time>
        <extensions>
          <ns3:TrackPointExtension>
            <ns3:atemp>16.0</ns3:atemp>
            <ns3:hr>102</ns3:hr>
          </ns3:TrackPointExtension>
        </extensions>
      </trkpt>
      <trkpt lat="48.4709372185170650482177734375" lon="-2.14645343832671642303466796875">
        <ele>97.40000152587890625</ele>
        <time>2026-05-07T10:48:22.000Z</time>
        <extensions>
          <ns3:TrackPointExtension>
            <ns3:atemp>16.0</ns3:atemp>
            <ns3:hr>101</ns3:hr>
          </ns3:TrackPointExtension>
        </extensions>
      </trkpt>
      <trkpt lat="48.4709321893751621246337890625" lon="-2.14647003449499607086181640625">
        <ele>97.59999847412109375</ele>
        <time>2026-05-07T10:48:23.000Z</time>
        <extensions>
          <ns3:TrackPointExtension>
            <ns3:atemp>16.0</ns3:atemp>
            <ns3:hr>101</ns3:hr>
          </ns3:TrackPointExtension>
        </extensions>
      </trkpt>
      <trkpt lat="48.47092540003359317779541015625" lon="-2.14647154323756694793701171875">
        <ele>97.59999847412109375</ele>
        <time>2026-05-07T10:48:24.000Z</time>
        <extensions>
          <ns3:TrackPointExtension>
            <ns3:atemp>17.0</ns3:atemp>
            <ns3:hr>100</ns3:hr>
          </ns3:TrackPointExtension>
        </extensions>
      </trkpt>
      <trkpt lat="48.47092799842357635498046875" lon="-2.146476320922374725341796875">
        <ele>97.40000152587890625</ele>
        <time>2026-05-07T10:48:27.000Z</time>
        <extensions>
          <ns3:TrackPointExtension>
            <ns3:atemp>17.0</ns3:atemp>
            <ns3:hr>100</ns3:hr>
          </ns3:TrackPointExtension>
        </extensions>
      </trkpt>
      <trkpt lat="48.47092657350003719329833984375" lon="-2.1464805118739604949951171875">
        <ele>97.1999969482421875</ele>
        <time>2026-05-07T10:48:36.000Z</time>
        <extensions>
          <ns3:TrackPointExtension>
            <ns3:atemp>17.0</ns3:atemp>
            <ns3:hr>100</ns3:hr>
          </ns3:TrackPointExtension>
        </extensions>
      </trkpt>
      <trkpt lat="48.47092858515679836273193359375" lon="-2.146477662026882171630859375">
        <ele>97.40000152587890625</ele>
        <time>2026-05-07T10:48:44.000Z</time>
        <extensions>
          <ns3:TrackPointExtension>
            <ns3:atemp>17.0</ns3:atemp>
            <ns3:hr>99</ns3:hr>
          </ns3:TrackPointExtension>
        </extensions>
      </trkpt>
    </trkseg>
  </trk>
</gpx>
